GFSMA_sfc_dewp_000.txt.gz
Dewpoint
53 53 52 52 52 52 52 51 51 50 50 50 49 49 49 49 49 48 48 52 55 55 56 57 56 58 60 61 62 62 62 60 61 61 63 64 64 63 63 63 63 63 63
53 51 49 48 48 50 49 49 50 49 48 47 45 46 46 46 46 48 48 48 53 53 54 56 57 58 58 59 60 61 61 62 62 60 62 62 63 64 63 63 63 63 63
48 46 44 44 45 47 46 45 45 43 42 42 41 42 42 44 44 48 49 48 48 50 52 53 54 55 56 57 58 60 60 61 61 61 61 61 62 63 63 62 62 63 62
44 44 46 44 45 44 42 43 43 39 41 40 39 39 39 42 42 48 47 46 46 44 46 48 48 49 51 54 55 56 57 59 60 61 61 61 62 62 62 62 62 62 62
43 43 44 44 42 40 40 40 40 40 40 39 39 39 38 39 43 47 46 44 44 44 43 44 46 45 45 46 49 52 54 56 57 59 60 60 61 61 61 61 61 61 61
43 43 42 41 40 39 39 39 38 39 39 40 39 37 37 37 44 46 44 43 43 42 41 41 41 40 40 42 46 48 51 53 56 56 58 59 60 60 60 59 60 60 60
39 40 40 40 40 39 39 40 39 39 38 42 39 37 38 39 41 43 43 42 42 43 42 41 40 37 35 40 45 48 49 50 52 56 57 57 58 59 59 57 57 58 59
38 39 41 41 40 39 39 40 40 39 39 41 40 39 36 37 38 37 39 40 39 41 39 37 40 40 37 37 43 44 49 51 50 51 52 56 57 58 58 56 55 55 56
38 39 40 40 39 39 40 40 39 39 39 39 39 38 34 33 35 36 35 36 36 37 38 39 38 39 37 39 39 44 47 49 49 49 49 51 55 56 55 54 53 53 54
37 38 39 39 39 39 40 40 38 37 38 34 37 35 36 35 33 32 33 33 35 34 37 38 39 39 38 39 39 42 45 49 49 49 49 50 52 53 53 51 49 50 52
37 37 38 38 39 38 37 37 35 33 35 33 34 34 34 34 34 33 29 29 30 33 36 36 38 39 39 39 39 42 42 44 48 48 49 49 49 48 48 47 48 48 49
37 38 37 37 37 36 35 34 33 33 33 33 33 33 33 32 31 31 29 28 27 31 29 35 37 38 39 39 39 39 40 44 48 47 48 48 47 46 46 48 48 49 51
37 37 37 37 36 35 35 33 31 31 30 29 30 30 32 31 33 32 31 29 28 27 31 32 35 34 35 37 37 38 41 43 46 46 46 47 47 46 44 44 44 46 49
36 37 36 34 33 35 34 35 32 31 30 29 28 28 30 30 31 31 31 29 22 24 25 26 31 33 35 36 37 37 40 43 43 44 46 46 47 46 45 40 39 40 45
37 37 34 36 36 36 33 33 31 30 30 30 30 30 30 30 28 26 29 28 27 19 17 21 29 33 34 36 35 35 36 40 43 43 41 41 42 46 46 43 42 39 39
36 36 36 35 34 32 31 31 30 29 30 30 31 28 24 26 26 26 25 26 26 23 19 24 23 30 32 31 31 33 33 36 39 41 40 41 41 42 45 46 45 42 39
34 34 33 34 31 31 31 28 26 27 29 28 24 23 23 23 23 24 23 22 22 22 20 20 24 25 27 31 28 31 31 31 34 36 38 40 40 40 42 42 42 44 41
31 32 33 33 33 30 28 25 26 27 24 22 22 22 21 19 20 19 20 19 20 21 21 21 23 24 26 29 28 30 30 25 29 33 37 39 40 40 40 41 40 40 39
30 32 33 31 28 26 25 25 26 24 21 21 21 21 21 21 19 19 19 20 21 24 26 26 25 25 25 27 26 28 28 28 23 29 31 34 38 39 39 40 41 39 38
34 32 30 29 26 24 24 25 22 21 21 21 22 21 21 21 20 20 21 21 23 22 22 24 24 24 24 24 24 24 22 25 23 21 28 30 31 35 38 39 40 39 39
34 31 31 24 22 23 23 22 20 21 21 21 21 21 21 23 26 25 20 20 20 22 22 23 22 22 24 22 19 22 20 21 22 26 27 27 27 29 33 37 38 39 39
32 26 19 21 23 21 28 28 29 27 24 21 24 24 24 23 22 22 22 22 21 20 21 22 21 21 22 25 26 21 20 19 15 26 26 25 27 25 26 31 36 37 37
29 26 22 23 23 27 30 30 29 24 23 22 19 18 17 16 19 20 22 22 22 25 27 26 23 22 25 24 22 21 20 20 19 21 25 23 26 24 25 24 32 35 34
30 20 23 24 26 24 26 27 24 21 20 19 17 18 17 18 19 18 21 24 22 22 22 21 22 24 25 26 23 22 22 21 23 24 27 24 24 24 26 28 31 32 34
26 24 24 23 19 20 23 21 21 21 20 18 18 18 18 18 20 23 21 22 20 20 20 22 22 22 23 24 28 26 23 22 21 20 26 25 23 24 24 27 29 31 33
22 22 22 20 18 19 19 19 19 19 15 18 20 18 19 19 21 21 24 22 20 21 22 24 23 22 23 23 23 23 24 24 24 21 23 23 22 22 22 24 25 27 28

GFSMA_sfc_dewp_003.txt.gz
Dewpoint
59 57 55 52 52 51 50 50 51 49 47 45 46 44 41 41 41 39 42 54 55 57 58 59 59 60 60 61 62 63 63 62 61 60 62 63 64 64 64 63 63 63 63
58 50 48 48 47 48 48 47 46 43 41 40 40 43 40 40 41 46 44 48 51 52 52 53 55 56 58 58 58 59 61 62 62 61 61 62 62 63 63 63 62 63 63
51 48 47 47 47 46 45 44 41 42 39 36 37 36 37 40 40 48 46 44 43 48 48 48 48 49 49 51 53 55 57 59 61 62 61 62 62 62 63 63 62 62 62
48 49 46 46 43 42 41 41 39 38 38 37 35 35 36 37 48 48 44 43 42 40 44 45 45 45 45 46 48 50 52 55 56 60 61 61 62 62 62 62 62 62 62
46 47 45 44 43 41 42 39 38 38 36 35 29 33 33 35 46 43 44 43 43 42 40 42 42 42 43 44 45 47 49 50 53 55 59 60 60 61 62 62 61 61 61
44 44 44 45 42 41 40 39 38 37 39 39 30 32 34 38 46 44 42 40 41 42 40 40 39 37 42 42 43 45 47 49 49 51 54 59 60 61 61 61 60 60 59
42 44 41 42 42 40 42 41 37 35 34 40 34 30 30 41 43 41 39 38 38 37 40 38 37 35 34 39 40 43 44 47 49 48 49 52 57 59 60 60 58 57 58
40 39 42 41 43 41 43 42 38 34 36 41 32 29 25 25 32 37 34 35 37 36 35 36 37 35 35 35 38 42 41 45 46 49 49 49 51 57 59 59 57 56 56
38 40 43 43 43 43 42 42 40 37 33 37 39 31 26 24 31 30 32 33 35 32 34 34 35 34 36 37 37 38 38 42 43 47 49 50 49 52 56 58 57 55 55
41 39 41 43 44 43 42 41 38 37 35 30 30 32 33 32 24 22 24 26 29 26 30 34 30 33 36 36 39 40 41 43 41 43 48 49 50 50 54 56 56 54 54
41 40 41 42 43 41 42 40 38 34 30 27 26 26 27 24 25 23 16 18 20 21 25 25 30 30 31 33 35 36 40 42 42 43 47 49 50 50 52 54 54 52 52
40 41 41 42 42 41 40 37 35 32 28 27 25 24 21 19 18 23 21 19 18 17 19 24 26 25 24 28 34 37 39 41 43 44 47 48 49 49 48 50 50 50 51
35 39 42 42 40 38 37 36 34 32 29 24 24 21 24 23 25 24 23 19 21 19 19 21 23 22 21 27 35 37 37 39 41 45 46 46 47 48 47 47 48 51 52
34 40 41 40 37 36 36 37 33 30 32 29 30 31 28 28 31 31 27 26 23 18 17 20 21 23 25 25 31 38 35 39 41 43 44 45 45 47 47 44 42 42 46
37 41 39 38 38 37 35 34 32 32 31 32 32 32 31 30 29 26 26 27 25 23 17 16 17 21 22 24 28 31 36 36 39 42 42 41 41 44 46 46 42 40 38
39 39 37 36 37 36 34 33 31 31 31 32 30 32 28 25 26 26 24 24 23 22 18 16 16 19 21 18 25 27 33 34 36 39 39 40 41 41 45 45 46 44 40
37 37 36 35 35 33 32 32 31 30 30 31 30 27 25 24 22 20 20 19 18 18 17 17 16 20 23 24 23 27 30 31 30 35 38 40 40 40 43 43 41 43 44
34 34 35 34 34 33 31 29 29 28 28 27 26 24 23 19 21 22 20 20 19 19 18 15 18 22 23 26 26 29 27 24 30 32 32 35 38 40 39 40 40 41 41
34 35 35 34 30 30 26 27 28 27 26 24 23 23 23 22 21 22 21 20 20 19 20 21 17 18 20 22 25 26 28 29 25 28 30 31 34 37 40 39 40 40 41
36 35 34 33 32 25 25 26 25 24 23 23 24 23 24 24 23 22 23 25 24 21 18 17 18 17 19 19 26 24 24 27 23 19 25 28 30 33 36 40 40 40 40
36 35 32 24 25 25 22 25 23 24 25 25 24 23 22 24 24 23 20 21 19 18 19 18 16 16 17 18 26 27 24 22 22 23 23 24 26 25 29 37 40 40 39
35 30 29 26 25 23 30 31 28 23 20 18 17 17 16 17 18 20 20 21 21 19 20 18 21 16 15 17 21 26 26 22 17 26 23 20 24 25 24 25 35 38 38
34 33 27 26 26 27 27 27 25 18 16 16 15 13 13 13 17 16 17 19 22 23 22 23 21 19 18 19 22 25 24 23 20 20 21 18 23 21 23 18 31 34 35
32 31 26 25 25 22 23 22 22 20 17 15 14 15 14 15 16 17 19 20 17 16 17 18 21 20 20 20 21 24 21 21 21 21 22 20 21 25 23 24 30 32 34
29 28 26 24 18 18 20 20 20 21 19 17 17 16 16 15 18 21 18 19 16 15 19 22 25 25 24 24 24 24 26 23 23 16 18 20 20 25 26 27 29 29 32
21 24 22 19 17 18 18 19 19 21 21 19 18 16 17 18 20 18 19 20 19 20 17 19 20 20 22 21 23 22 20 24 24 20 18 20 17 20 21 27 29 30 32

GFSMA_sfc_dewp_009.txt.gz
Dewpoint
59 57 59 58 57 51 50 50 48 44 42 42 41 41 41 42 41 38 40 56 55 53 52 52 53 53 53 53 53 55 56 58 58 60 62 62 62 63 63 63 63 63 63
58 56 55 54 50 50 48 46 44 42 41 42 42 44 40 40 40 41 39 45 54 52 50 49 50 51 51 51 50 51 52 53 54 56 57 61 62 62 63 62 63 63 63
59 60 53 53 52 48 46 44 44 42 40 40 41 39 38 38 38 38 40 42 45 52 49 48 47 46 48 49 49 49 49 50 51 53 53 55 58 61 62 62 62 62 62
53 53 50 49 47 49 47 47 46 42 42 39 39 37 36 35 37 40 37 39 40 39 46 45 43 41 42 43 45 46 48 48 48 49 51 52 53 55 59 61 62 62 62
46 48 46 47 47 43 43 42 41 42 40 39 38 37 39 37 37 32 34 40 42 41 40 46 48 47 39 40 42 43 44 45 47 47 48 49 50 52 53 55 59 61 62
46 46 44 46 45 41 42 43 45 43 42 39 33 36 38 32 33 33 34 35 36 37 37 38 37 37 46 42 40 40 42 45 45 45 46 45 46 48 50 52 54 57 61
42 44 43 44 44 42 44 44 43 43 39 37 33 34 32 35 35 29 31 34 35 32 35 34 33 31 32 41 37 39 42 43 44 45 45 44 44 45 46 49 51 55 58
42 42 44 43 43 42 43 43 43 40 36 34 31 31 28 25 24 30 29 29 35 29 29 29 31 30 31 28 33 36 37 42 42 43 43 43 43 43 44 46 48 51 55
42 42 43 42 43 41 38 42 39 40 35 33 34 29 26 24 26 26 28 27 34 29 29 26 27 26 29 27 29 31 37 40 39 40 40 42 42 43 44 45 47 49 51
39 35 35 37 40 39 39 38 36 39 37 32 31 28 32 29 24 23 22 22 24 24 31 26 23 24 25 27 33 35 38 37 37 38 41 41 42 42 43 45 46 47 50
27 24 26 32 37 37 39 40 40 39 35 34 32 30 29 26 24 21 19 19 20 20 21 25 23 24 24 24 26 30 36 41 36 35 40 40 42 42 43 44 45 47 48
25 28 28 33 34 35 39 39 40 38 39 36 31 28 26 22 20 21 20 22 22 20 19 22 26 25 26 25 25 35 37 35 34 33 38 39 43 44 42 43 45 47 49
26 30 34 36 35 37 39 39 40 40 39 35 31 27 25 24 24 23 21 21 20 18 20 23 24 25 19 26 25 33 31 32 34 37 37 37 41 43 41 43 45 46 48
28 31 34 37 37 38 39 38 39 40 39 34 31 30 27 26 24 23 21 21 22 19 20 22 23 23 23 24 28 33 25 32 33 37 37 36 40 43 42 43 44 45 46
26 30 34 36 39 38 39 41 36 35 32 31 30 28 26 25 23 21 21 21 23 24 19 19 21 22 22 24 26 28 29 31 34 34 36 37 40 41 41 41 42 44 46
30 31 32 33 35 36 37 34 32 32 31 29 24 27 27 25 25 22 19 22 22 23 22 19 18 22 23 19 24 27 27 32 31 34 34 34 36 37 39 40 42 44 45
30 29 30 32 31 31 31 31 32 32 27 27 28 28 26 26 24 23 23 22 20 21 21 21 19 21 23 23 22 24 25 27 27 34 34 34 34 36 38 40 40 41 42
30 30 31 30 29 29 29 28 28 26 26 26 27 26 25 21 24 22 22 21 21 21 21 20 22 23 23 23 23 23 21 19 25 26 37 38 35 34 36 38 40 40 41
30 31 30 30 29 31 30 29 26 26 28 28 26 27 26 25 22 21 21 21 20 16 21 23 22 23 21 21 20 21 20 24 21 29 36 36 35 32 34 37 40 41 40
30 30 30 29 30 27 24 24 24 26 27 28 29 25 22 21 21 22 19 19 18 19 18 18 17 17 18 20 21 21 23 26 25 27 34 36 30 31 33 36 39 39 40
29 29 29 31 32 29 24 28 28 28 26 25 24 20 20 20 19 19 17 19 18 17 16 15 16 18 18 21 19 19 23 24 26 29 34 36 31 26 29 35 35 37 37
27 27 27 28 32 28 31 28 24 24 22 21 21 20 19 22 21 22 22 21 20 18 18 17 17 17 18 17 21 24 24 21 20 30 30 33 29 26 23 29 37 37 36
28 27 26 26 30 30 29 24 22 21 23 23 21 18 16 13 19 18 21 22 21 23 25 22 20 19 22 21 23 26 24 23 23 25 31 24 27 25 23 22 32 35 36
27 26 25 26 27 27 26 22 21 23 24 22 20 19 18 18 19 19 17 17 16 15 14 14 19 20 19 19 20 19 19 19 21 21 23 22 25 24 26 27 31 30 34
27 26 25 24 24 26 24 21 20 24 24 22 21 19 17 15 21 20 18 17 15 14 17 22 21 22 24 24 23 24 22 19 23 17 22 26 23 24 27 29 31 30 32
26 25 25 25 24 28 23 21 20 25 25 24 21 19 19 17 19 19 19 18 18 16 13 14 16 19 21 21 25 24 22 21 21 21 23 28 25 21 20 26 29 33 34

GFSMA_sfc_dewp_015.txt.gz
Dewpoint
57 57 56 54 51 48 48 47 46 43 43 43 42 44 42 41 41 43 48 55 54 52 49 52 52 52 51 50 49 49 50 51 52 52 52 53 54 55 56 57 58 60 61
59 55 52 51 48 47 47 46 43 42 42 42 42 43 41 41 38 39 41 46 54 55 52 50 48 47 47 46 46 46 47 47 47 49 50 50 51 51 52 53 55 56 58
53 49 51 49 47 46 44 44 44 45 44 43 42 42 41 39 38 37 38 39 50 53 53 48 44 43 44 44 44 44 44 44 45 47 47 47 49 50 50 50 51 53 55
50 50 49 48 47 47 46 46 46 44 44 43 42 41 39 37 35 33 34 34 39 48 52 51 47 44 43 43 43 43 42 44 45 45 45 46 47 47 48 48 48 49 51
48 49 49 47 45 46 47 46 45 45 43 43 37 34 37 37 34 35 31 30 34 35 43 50 48 47 39 39 41 41 42 42 43 43 44 45 45 44 45 46 47 47 48
45 47 48 47 46 45 45 44 43 44 44 40 35 34 35 35 34 34 32 30 31 31 35 34 34 35 41 37 37 37 39 39 40 42 43 43 43 43 43 44 45 46 46
46 44 44 43 44 43 43 43 43 39 39 39 34 33 32 33 30 31 32 31 30 31 32 31 32 31 32 35 33 34 35 37 39 38 38 39 40 40 41 42 43 45 46
43 43 43 43 42 42 41 41 39 38 39 37 33 33 29 30 31 30 29 27 28 30 29 30 29 29 29 28 28 29 29 31 32 34 35 36 37 39 39 41 42 43 44
30 31 36 36 36 39 40 40 39 39 36 36 35 33 29 28 28 28 26 27 27 27 28 29 28 27 26 27 28 31 34 34 34 34 35 34 35 37 39 40 41 42 44
31 31 35 36 36 37 35 39 40 40 37 35 35 33 31 30 25 24 25 25 26 24 26 27 29 27 27 29 31 35 40 34 29 31 32 34 35 35 37 39 40 41 43
32 33 35 35 37 39 39 41 40 39 38 36 34 32 29 28 25 24 22 23 25 25 26 28 28 28 29 26 26 28 39 37 33 30 32 33 34 35 36 39 39 40 43
33 35 33 37 37 39 41 40 39 39 38 36 36 34 30 26 25 25 24 24 23 25 24 25 26 28 28 26 27 36 38 37 35 31 32 32 34 34 35 37 37 39 41
31 31 33 35 37 40 39 39 39 39 38 37 36 33 31 30 28 26 25 23 23 23 23 25 26 26 24 27 28 33 31 35 34 30 31 32 32 33 33 35 36 38 41
31 30 33 34 35 38 39 39 39 38 38 37 36 32 32 28 30 27 25 23 22 21 22 22 25 25 25 27 28 31 28 30 32 33 30 29 30 31 32 34 36 37 40
28 31 32 32 34 36 38 38 38 37 37 33 32 31 32 30 29 27 26 25 24 21 20 21 22 23 26 26 27 26 26 28 32 32 31 32 31 31 32 34 35 37 39
30 31 31 32 32 32 34 37 36 35 32 35 33 32 31 32 31 30 25 26 25 24 21 22 22 23 23 22 24 24 25 27 28 31 31 33 32 32 33 33 34 35 35
31 30 32 32 32 32 32 31 31 28 32 32 32 31 30 31 29 28 26 25 24 22 19 20 21 23 22 23 22 25 25 22 24 28 31 32 33 34 35 36 36 36 35
31 30 31 32 33 33 32 32 32 31 31 32 32 30 29 27 25 24 23 21 20 20 20 18 19 19 20 21 22 21 20 21 23 26 30 31 32 33 36 36 37 38 37
30 31 31 32 33 32 31 32 32 30 30 30 30 29 28 26 21 21 19 18 19 18 20 19 17 19 19 20 19 21 22 23 21 26 27 29 32 34 34 35 37 38 38
30 30 32 34 35 31 30 30 30 29 28 27 27 26 25 21 18 17 17 17 17 19 19 18 17 17 18 19 20 20 21 25 25 24 26 31 30 33 33 36 36 37 37
30 31 32 33 34 33 31 29 27 26 25 25 25 24 22 23 25 20 17 17 19 19 19 18 17 17 17 18 19 23 23 22 21 23 25 25 26 30 32 35 36 36 35
32 32 31 32 32 32 32 32 27 23 23 23 24 23 21 23 25 25 23 23 21 19 19 19 18 17 18 19 25 22 19 17 15 22 23 21 24 25 30 33 36 35 36
32 31 31 31 30 32 32 30 26 20 21 23 24 21 20 20 21 19 20 20 20 21 21 20 18 16 16 18 20 18 18 19 19 20 22 19 21 21 27 26 32 36 36
30 30 31 31 31 30 32 30 26 20 22 25 22 21 20 20 20 19 19 18 19 18 17 17 16 15 16 19 21 20 20 20 21 22 22 19 21 22 25 27 30 33 35
30 29 30 30 31 30 31 28 22 23 25 24 24 23 22 18 22 19 19 19 18 18 18 20 20 22 23 24 23 25 25 24 20 20 22 21 21 23 25 27 27 30 34
29 30 28 29 30 28 30 27 23 25 24 25 23 22 23 20 20 20 21 19 18 17 18 17 18 20 21 22 25 24 23 23 23 22 22 23 22 25 22 24 25 25 25

GFSMA_sfc_dewp_018.txt.gz
Dewpoint
56 53 50 49 47 47 46 44 43 42 42 42 42 41 41 39 37 40 42 52 54 52 50 52 51 49 49 48 48 48 48 47 47 49 49 50 50 51 51 52 52 54 55
54 52 50 47 46 45 45 44 43 43 43 42 42 42 40 38 36 35 38 39 52 56 53 50 47 46 46 46 46 45 45 45 47 48 47 47 47 48 49 49 50 50 52
53 51 48 47 47 46 44 45 44 44 43 43 42 41 38 37 35 34 33 36 44 53 53 46 44 43 44 44 43 43 43 45 45 45 45 46 46 46 46 46 47 49 49
51 49 47 45 45 47 46 45 45 43 43 43 40 36 38 36 34 32 31 32 34 43 48 49 46 44 42 42 41 41 42 41 42 42 43 45 45 43 44 44 45 46 48
49 49 47 45 46 45 45 44 43 44 43 40 36 34 37 34 34 31 30 31 32 34 35 43 41 40 35 36 35 37 38 39 39 41 41 41 42 42 42 42 44 45 45
48 47 45 45 44 43 43 42 40 40 41 40 34 32 32 33 32 32 30 29 30 32 32 31 32 34 40 34 32 33 34 36 38 38 38 38 39 40 40 40 41 43 44
44 44 43 43 43 41 41 42 40 37 37 37 33 33 32 32 31 30 29 29 28 29 29 30 31 30 30 32 31 31 33 33 33 33 34 36 36 37 38 39 40 41 43
43 40 40 36 38 39 40 39 38 37 39 37 33 32 29 30 30 28 28 28 26 27 28 26 28 27 28 28 32 37 34 31 31 33 33 34 34 36 37 38 39 40 41
31 35 35 35 35 36 35 36 39 38 36 36 34 32 28 27 28 28 26 26 26 27 27 27 28 26 27 28 31 35 37 33 29 30 32 33 34 35 36 36 37 39 40
34 35 35 36 36 38 36 38 40 38 36 34 34 32 30 29 24 22 25 25 26 25 25 27 27 27 28 27 29 33 37 36 28 29 31 32 34 35 35 36 36 38 40
35 34 35 37 37 40 40 39 39 37 36 35 33 32 30 28 25 23 22 23 25 25 26 25 26 27 27 26 26 28 39 37 32 30 31 32 34 34 35 35 36 37 39
35 33 35 36 37 40 39 39 39 38 37 36 35 33 30 26 25 24 23 23 22 24 24 24 26 27 27 27 28 34 31 32 30 30 31 32 33 34 34 35 35 36 37
32 30 33 34 36 40 39 39 39 38 37 36 35 33 31 30 29 27 25 23 22 23 23 25 25 26 26 27 28 30 30 30 29 29 30 31 31 31 32 33 34 35 37
31 33 33 34 35 38 38 38 38 36 37 37 35 35 32 30 30 27 25 23 22 22 22 22 25 25 26 26 28 29 27 28 28 29 29 28 28 29 31 32 33 34 36
31 33 32 33 33 33 37 38 37 36 36 35 32 32 30 30 29 29 27 26 24 20 20 21 21 24 25 25 26 25 24 27 28 27 28 29 29 29 30 31 33 34 35
32 32 32 32 32 32 32 34 34 33 31 33 33 31 30 32 32 30 26 27 25 23 21 22 21 22 23 21 23 24 24 25 26 27 29 29 30 30 31 31 34 34 34
32 32 32 31 32 31 32 31 31 30 32 32 31 30 30 31 28 27 25 24 21 20 18 19 21 21 20 21 20 23 23 22 24 26 27 28 29 32 32 33 34 35 35
32 31 30 31 32 33 33 31 31 31 31 31 31 31 30 28 25 24 22 19 18 18 19 17 18 18 19 19 20 20 20 20 23 25 27 26 29 30 31 33 33 34 36
32 31 30 31 32 34 33 32 31 32 31 31 32 30 29 27 21 22 19 18 18 18 19 18 17 18 18 19 19 20 22 22 24 24 23 23 29 28 29 30 32 35 36
30 30 31 32 34 34 31 31 30 29 28 27 27 26 24 22 19 18 17 16 17 18 19 18 18 18 18 18 20 20 22 23 22 18 21 23 26 25 27 29 33 36 37
31 31 31 33 34 33 32 31 29 28 26 25 25 23 22 23 26 21 17 19 19 19 19 18 17 18 17 18 19 21 23 20 18 19 20 24 22 24 26 27 32 36 37
33 32 32 33 33 31 33 34 30 25 24 23 23 23 20 22 25 26 24 22 20 18 18 18 18 16 17 16 19 18 19 17 17 21 21 21 23 23 24 26 30 31 34
34 33 33 33 32 32 34 34 31 23 22 22 24 21 20 22 22 19 20 19 18 19 18 20 17 16 16 15 17 19 20 20 20 21 22 21 22 21 23 23 28 30 32
31 31 30 31 32 31 34 32 28 22 22 24 23 22 21 20 20 19 18 18 18 18 18 17 18 17 17 20 21 22 23 25 23 23 22 20 21 21 23 25 28 30 32
32 30 30 31 31 30 33 31 25 21 24 24 24 23 22 21 22 23 19 19 18 18 18 20 21 22 23 22 23 25 22 21 19 20 22 23 21 22 23 24 26 29 31
30 31 30 29 31 30 32 30 25 25 24 25 24 23 24 20 24 22 21 20 18 17 17 18 19 19 21 20 22 22 22 21 21 20 22 25 23 22 20 24 25 25 27

GFSMA_sfc_dewp_021.txt.gz
Dewpoint
53 49 48 47 47 46 44 43 42 42 42 42 42 40 37 36 35 37 39 49 54 53 47 52 51 49 49 48 48 48 47 47 49 48 47 48 48 48 48 48 49 50 51
52 50 47 46 45 45 44 44 43 43 42 42 41 39 37 35 33 33 36 40 55 56 53 50 47 46 46 47 45 45 46 47 46 46 46 47 46 45 46 46 46 47 48
52 48 47 47 46 45 45 44 44 44 43 42 38 37 37 33 32 31 32 31 42 52 50 48 45 46 46 45 43 42 44 43 44 44 44 46 46 45 44 44 44 46 46
49 47 46 45 46 46 45 44 44 43 43 39 35 36 35 34 31 30 30 32 35 38 45 43 43 41 40 40 40 40 41 42 41 42 43 43 42 42 42 42 42 43 45
49 46 45 46 45 44 44 42 43 42 41 38 34 35 34 32 31 28 28 30 31 31 31 37 41 41 37 35 36 37 38 38 39 40 40 40 40 40 41 41 41 41 42
47 46 45 44 44 42 41 41 37 38 40 38 32 32 32 31 30 30 28 27 28 28 28 28 31 31 39 34 34 34 36 37 37 37 36 36 37 37 38 39 39 40 40
44 43 44 42 41 40 41 40 38 36 37 36 33 32 32 31 29 28 28 26 26 27 27 28 29 28 29 35 36 36 35 35 35 35 35 36 35 35 36 37 38 39 39
43 42 38 35 36 36 36 38 38 37 38 36 33 31 29 30 29 27 27 26 24 26 26 26 27 26 27 28 33 34 34 33 34 33 33 34 35 35 36 36 37 38 38
34 34 35 35 35 35 34 35 38 37 35 34 33 32 28 27 28 28 25 26 25 26 26 26 25 26 27 27 28 32 34 30 29 31 32 33 34 35 35 36 36 37 38
35 35 35 37 37 38 37 40 39 38 35 34 33 31 30 28 25 24 25 25 26 24 24 26 25 26 27 27 29 31 34 37 33 32 33 33 34 35 35 36 36 37 37
35 35 37 37 39 41 40 38 37 36 36 34 33 32 30 28 25 23 21 23 25 25 25 25 25 26 26 27 26 30 34 32 32 32 33 34 35 35 35 36 36 37 37
34 35 36 37 40 40 40 39 38 37 36 35 35 33 30 27 25 24 23 23 23 23 25 25 25 26 27 27 28 32 31 31 31 31 32 34 35 35 35 35 35 36 37
31 33 33 35 40 41 40 40 38 37 37 35 34 33 32 30 29 27 25 23 22 23 23 25 26 26 26 26 27 29 30 29 29 29 30 31 31 31 32 33 35 36 36
31 33 34 35 40 39 38 39 38 36 37 36 35 35 33 31 30 28 25 24 23 22 23 22 25 25 24 25 26 27 26 28 27 28 29 28 29 30 31 31 33 33 35
33 33 35 35 34 35 37 38 38 36 36 35 33 32 32 30 29 29 27 26 24 22 21 22 21 23 24 23 24 23 24 26 25 25 26 27 29 30 31 31 32 33 33
34 35 34 33 33 32 33 35 35 33 31 31 33 31 30 31 31 30 26 26 26 24 19 22 20 21 21 20 21 22 23 25 26 26 26 28 28 30 30 30 32 32 33
34 33 33 33 32 32 33 31 31 29 31 30 32 31 31 30 30 27 25 24 21 20 18 17 20 20 19 19 19 21 23 22 23 26 27 27 27 26 30 31 31 32 33
34 33 33 32 33 33 33 32 31 31 31 31 31 30 30 29 27 25 23 20 19 18 18 17 18 18 18 18 19 20 20 20 22 26 26 24 24 24 29 29 29 30 32
33 32 31 32 32 33 33 33 32 32 31 31 31 31 30 29 26 23 21 19 18 17 19 19 18 18 19 19 18 20 20 21 23 24 22 23 23 25 26 26 27 28 32
32 31 32 32 33 32 33 33 31 31 30 30 31 30 28 26 22 20 19 17 17 17 19 19 17 17 18 19 20 19 17 19 19 18 21 22 24 26 26 27 27 28 31
32 31 32 33 33 32 31 32 30 30 28 27 26 24 24 24 25 21 18 17 18 19 18 17 16 17 17 17 15 15 16 18 19 20 21 22 23 24 24 26 27 28 32
33 32 34 34 33 31 32 35 32 29 27 25 24 25 23 25 27 29 25 25 21 18 17 17 17 16 16 16 16 17 18 18 17 22 22 22 23 23 24 25 27 28 30
37 37 34 32 32 33 34 35 35 27 25 24 24 24 21 19 24 24 26 23 21 21 20 18 16 16 17 16 18 19 20 21 21 22 23 20 21 21 22 22 27 28 29
36 35 33 31 31 31 33 35 33 25 24 23 24 24 21 21 22 20 18 18 17 18 17 16 17 18 18 20 20 21 24 24 22 22 22 20 20 21 22 24 27 30 31
36 33 31 31 31 30 32 34 29 23 22 22 24 23 22 21 23 26 21 19 18 19 18 20 21 22 22 23 22 20 19 19 17 18 21 22 21 21 24 23 26 28 30
31 31 30 30 31 30 31 33 27 24 24 25 24 24 28 24 25 26 22 20 19 20 18 17 19 20 21 21 22 20 21 19 18 17 22 22 21 24 21 22 24 24 25

GFSMA_sfc_dewp_024.txt.gz
Dewpoint
52 48 47 47 46 45 44 43 43 43 43 42 40 38 36 35 35 36 41 56 57 54 50 54 51 50 49 49 48 47 47 49 47 47 48 48 47 47 47 47 46 46 47
50 47 46 45 45 45 44 44 43 43 42 41 39 37 34 33 32 33 35 46 53 52 51 50 48 47 48 47 45 44 47 46 45 45 45 47 47 46 45 45 45 44 45
50 46 46 46 45 44 44 44 44 44 42 38 37 36 34 33 32 32 34 36 43 49 50 48 48 47 46 44 43 43 44 43 43 42 42 44 44 43 42 43 43 43 44
48 47 46 46 46 45 44 44 43 43 40 37 36 35 34 32 31 32 33 34 34 31 39 44 42 41 37 37 38 38 39 39 39 40 42 42 41 41 40 42 41 42 42
47 46 46 46 45 44 43 43 43 42 39 37 35 34 32 31 31 28 29 30 31 30 30 38 39 42 39 38 37 37 37 38 38 38 39 38 37 38 39 39 40 40 41
46 46 46 44 43 42 41 39 37 39 39 37 32 32 32 31 30 29 29 28 29 29 29 31 32 31 37 37 36 35 36 38 37 37 37 37 37 37 37 37 37 38 39
45 44 43 42 41 40 41 39 38 36 37 36 34 33 32 32 29 29 28 28 28 28 29 30 28 28 29 34 36 34 35 36 36 36 36 36 35 35 36 37 37 38 38
43 42 39 39 39 37 36 39 38 38 36 35 33 32 30 31 30 28 28 27 28 28 28 29 29 29 30 28 34 33 33 33 33 33 33 34 34 35 36 36 37 37 37
36 34 35 35 35 35 34 37 38 37 35 34 33 33 30 28 28 29 28 27 28 28 28 28 27 28 30 29 29 32 33 34 33 33 33 33 33 34 35 36 36 37 37
35 35 36 37 37 38 39 39 39 38 36 33 33 32 31 30 28 26 26 26 28 26 27 28 26 27 29 29 30 32 36 36 35 35 34 34 35 35 36 36 36 37 37
35 36 37 38 39 40 39 38 37 36 36 34 33 33 31 29 27 25 22 23 25 26 26 27 27 28 28 29 29 33 34 33 33 33 34 35 36 36 37 37 37 36 36
36 36 37 39 39 39 39 39 38 36 35 35 35 34 31 29 26 25 23 24 23 25 25 27 27 27 28 28 27 31 31 32 32 32 33 34 35 35 35 35 35 35 35
35 34 35 38 40 41 40 39 38 37 36 35 35 34 33 31 29 27 26 25 23 24 24 26 27 27 25 26 27 28 28 28 28 30 30 31 32 32 32 33 34 35 35
35 35 35 38 41 41 40 40 38 37 37 37 35 35 33 32 31 29 26 25 23 23 23 24 25 26 24 24 25 25 24 26 26 27 28 28 28 30 31 31 32 33 34
34 37 36 36 40 40 39 40 39 38 37 36 35 34 33 32 30 29 28 26 25 24 25 23 22 24 23 23 23 23 23 25 26 26 26 27 28 29 29 31 32 32 33
36 35 35 35 35 35 36 38 38 37 35 35 34 32 31 31 30 31 28 28 27 25 22 22 21 21 21 19 21 22 21 26 26 26 26 27 28 28 28 28 29 30 31
35 35 34 35 34 34 34 33 33 32 30 30 32 32 31 31 31 30 27 26 24 22 20 18 20 20 19 19 19 20 22 22 23 25 26 26 26 26 25 26 27 31 31
35 34 34 34 34 34 34 33 32 31 31 30 31 31 31 30 29 28 26 23 21 20 18 16 17 18 18 18 19 19 19 19 21 24 26 24 24 24 25 25 27 28 29
34 34 33 33 34 34 33 33 33 32 31 31 31 31 30 30 28 26 24 22 20 18 19 19 18 19 19 19 18 19 20 20 19 23 23 24 25 26 26 27 27 27 27
33 33 33 33 33 33 33 33 32 32 31 31 31 31 30 29 28 25 22 20 18 18 18 18 18 17 17 18 19 18 15 17 18 19 22 23 25 26 27 27 28 28 28
33 33 33 33 35 36 32 33 32 31 30 30 30 29 29 28 28 24 19 19 17 17 19 18 16 15 15 15 16 15 16 18 19 21 21 22 24 25 25 26 26 28 28
32 32 33 38 38 33 34 34 34 31 29 28 27 25 24 29 30 31 30 24 20 19 18 16 15 15 14 16 17 17 19 17 16 23 23 21 22 23 25 26 26 27 28
37 38 39 37 35 33 33 35 35 32 29 28 26 24 23 21 25 23 28 28 26 24 22 19 17 15 17 17 18 19 19 20 19 21 23 19 21 21 22 21 26 28 32
39 39 38 36 33 31 33 34 33 32 29 26 24 24 24 22 22 22 22 21 19 18 19 18 17 16 18 19 20 20 20 20 20 20 20 18 20 21 22 24 27 28 29
39 38 36 32 32 31 32 33 33 29 26 24 24 24 23 22 24 27 21 20 18 18 21 23 22 23 24 24 23 22 19 18 17 15 18 19 21 21 23 25 26 27 28
37 33 32 32 31 30 32 33 33 26 25 24 24 24 29 24 26 28 25 21 20 18 20 18 17 20 23 22 23 21 18 18 18 15 21 20 19 22 20 24 25 27 27

GFSMA_sfc_dewp_027.txt.gz
Dewpoint
54 50 50 48 47 47 47 47 46 45 44 43 41 39 38 39 41 41 49 55 57 53 54 54 51 51 49 48 47 47 48 46 46 45 46 48 47 46 46 45 45 45 45
52 50 49 47 47 46 47 46 45 44 42 41 39 38 36 35 38 44 46 50 54 53 51 50 48 49 49 47 44 44 44 43 43 42 42 44 43 43 42 42 42 43 44
53 51 48 48 48 48 48 47 47 45 41 39 37 36 35 36 35 40 44 45 44 49 51 49 47 44 43 42 41 39 39 40 40 41 41 42 42 41 40 40 40 41 42
51 51 49 48 48 48 47 46 46 43 42 39 38 35 33 33 36 37 37 38 36 35 42 44 43 41 40 39 39 38 39 39 40 40 39 40 39 38 39 38 38 38 39
50 50 49 49 49 46 47 45 45 45 42 39 36 35 34 32 33 29 32 33 33 31 29 38 41 41 39 38 37 36 37 38 39 39 39 38 38 38 38 37 37 38 38
49 50 49 49 46 45 44 42 43 43 42 39 31 32 33 32 31 32 30 27 30 31 30 31 29 30 36 34 33 33 35 37 38 39 39 39 39 38 37 36 37 38 38
49 49 47 47 45 44 44 44 42 42 39 40 36 34 33 34 32 30 31 30 29 29 31 29 27 26 26 31 33 32 33 35 36 36 36 36 36 36 36 36 37 38 37
48 47 47 44 44 43 44 44 43 40 39 40 37 36 33 32 31 30 29 29 33 30 29 29 30 30 30 26 31 33 33 33 34 35 35 35 36 36 36 36 37 37 38
46 44 45 43 41 39 38 42 42 42 37 37 38 35 32 29 33 32 31 30 32 31 30 30 30 28 30 28 28 29 33 36 36 35 35 35 36 36 36 37 37 37 38
42 37 38 40 40 39 40 41 41 42 40 36 36 34 37 35 29 26 30 31 30 29 32 29 28 29 30 28 30 32 35 35 35 36 36 35 36 36 36 36 37 37 39
39 37 40 41 41 41 43 43 42 41 40 39 36 36 36 34 34 28 22 25 28 28 29 29 29 29 29 29 28 30 32 33 33 35 36 36 36 36 36 36 36 37 37
38 39 39 41 42 42 42 44 43 41 38 37 36 35 31 29 28 28 26 26 27 28 28 29 30 29 30 28 25 29 29 29 30 30 31 33 34 34 35 35 36 36 36
40 40 42 42 41 43 43 42 41 40 40 37 37 35 35 33 32 31 30 26 26 27 27 29 29 29 26 28 26 26 26 26 26 28 28 30 31 32 32 33 34 35 35
41 40 41 41 42 43 43 42 40 40 41 39 39 38 36 35 35 33 30 29 26 25 26 28 29 28 28 26 24 25 21 23 25 26 28 29 29 30 30 31 32 33 34
39 41 39 39 42 44 42 42 40 40 41 41 40 40 38 37 36 35 33 30 29 26 22 22 25 27 26 24 22 24 21 21 26 26 27 27 28 29 30 30 31 31 32
38 38 38 40 41 41 41 41 40 41 40 40 38 38 37 36 35 34 30 31 31 29 24 21 21 24 23 17 21 23 18 23 23 25 26 26 27 28 28 29 29 29 30
39 38 37 37 38 37 37 37 37 38 39 38 36 35 35 35 33 33 33 32 30 28 23 20 20 22 22 21 20 18 17 18 19 22 24 25 26 27 26 26 27 28 28
38 36 37 35 34 34 35 35 35 33 35 34 33 34 34 31 35 34 32 31 28 27 24 20 20 19 20 21 19 17 14 15 18 19 23 25 26 26 26 27 28 28 28
36 36 35 34 34 34 34 35 35 35 34 34 34 34 33 34 33 32 31 29 27 23 23 21 19 18 19 18 16 15 17 18 14 20 21 23 24 25 27 27 28 28 29
36 35 35 33 35 34 34 38 37 35 35 34 35 34 33 33 33 32 30 29 26 23 21 19 18 17 17 16 15 13 14 15 15 15 20 22 24 25 26 27 28 28 29
35 35 36 37 39 39 40 40 37 35 34 34 35 34 34 34 34 33 27 27 24 22 20 19 17 16 15 14 11 15 15 15 16 17 19 19 20 21 22 24 25 26 28
35 33 35 40 41 40 38 37 35 34 33 33 33 33 33 34 34 33 31 28 25 23 21 20 17 16 15 13 15 17 17 16 13 18 19 17 18 19 22 24 24 26 28
37 39 41 41 40 41 36 35 35 33 33 33 33 32 30 26 30 27 30 31 28 25 25 22 20 18 19 14 16 17 17 16 15 16 18 15 17 18 19 17 25 27 28
41 41 40 40 40 36 34 35 33 33 33 32 33 32 31 29 26 27 24 24 24 24 24 21 20 19 18 16 18 19 20 19 16 15 16 15 17 19 20 22 26 27 29
40 40 39 39 36 37 37 34 32 32 32 31 31 30 30 28 29 28 24 24 22 21 22 23 23 24 22 23 24 23 21 18 19 13 15 17 17 18 21 23 25 25 28
39 38 37 37 37 38 33 33 33 33 33 32 31 29 30 28 30 29 28 26 24 20 19 19 20 21 22 22 24 24 20 20 18 17 14 17 17 19 19 20 23 26 28

GFSMA_sfc_dewp_033.txt.gz
Dewpoint
58 55 55 53 52 52 51 51 50 46 47 45 43 41 38 40 39 36 47 55 57 55 56 54 53 52 49 47 47 46 45 44 44 43 43 43 43 43 43 43 42 42 42
59 55 55 52 52 51 51 49 47 45 43 43 42 39 38 36 38 40 40 49 55 55 53 52 53 51 48 45 44 42 42 41 42 43 43 42 44 44 43 41 41 40 41
58 57 54 53 52 51 51 49 47 45 43 39 38 38 37 37 37 38 37 41 47 52 50 48 46 45 43 42 42 41 41 41 41 42 42 42 42 42 42 40 41 41 40
58 57 53 53 52 52 49 47 46 44 42 39 39 37 37 37 38 38 37 37 37 40 46 45 43 42 41 39 37 36 36 38 39 41 41 42 43 43 43 43 43 42 40
56 56 54 54 53 51 49 47 46 44 41 38 37 38 39 38 38 31 35 36 36 33 33 41 40 38 35 33 33 33 36 37 38 39 39 39 40 40 40 41 41 41 40
57 57 54 54 53 50 48 47 47 41 40 39 29 32 39 38 38 37 36 33 34 36 34 34 34 35 37 34 27 29 33 34 35 36 37 38 38 39 39 39 40 40 40
56 57 54 54 53 50 49 49 44 43 38 39 39 40 40 41 41 37 36 34 33 33 35 33 32 28 31 33 31 30 27 31 34 36 38 38 38 39 39 39 39 40 40
56 56 55 53 53 48 49 49 45 40 38 41 41 41 41 39 39 38 36 34 36 34 32 32 32 31 30 28 34 30 30 31 35 37 38 38 38 38 38 38 38 38 39
56 55 55 54 53 50 49 48 45 42 38 41 43 42 39 37 35 37 38 36 36 36 35 32 32 32 31 30 31 33 36 34 34 35 36 36 36 36 37 37 37 38 38
58 54 54 54 52 50 49 47 42 42 42 41 44 41 43 41 32 30 35 36 36 35 36 34 32 32 31 31 35 36 35 33 31 33 34 34 34 34 35 36 36 37 37
57 55 53 54 52 49 48 47 43 43 46 45 45 44 42 38 37 33 30 31 34 31 31 31 32 32 31 30 31 35 32 28 29 31 32 33 33 33 34 35 36 36 36
54 55 51 52 51 49 45 43 45 46 47 45 46 44 37 33 33 33 32 31 29 28 28 30 32 30 30 30 31 32 29 28 30 29 29 31 32 32 34 34 35 35 35
52 51 51 50 49 47 48 48 47 47 47 46 45 40 34 36 35 31 29 28 27 28 28 29 30 29 27 30 30 29 29 33 33 28 28 29 30 31 32 33 34 34 34
51 53 50 49 46 46 47 47 48 47 47 47 45 39 38 38 34 32 30 30 29 27 26 28 27 28 29 28 30 31 28 34 33 29 27 28 29 30 31 32 32 33 33
51 51 49 47 45 46 47 47 47 47 46 46 42 42 40 37 34 34 33 31 29 27 24 25 24 28 26 27 30 28 27 31 33 31 29 27 27 28 29 30 31 31 32
50 47 47 45 45 47 46 47 47 46 44 43 42 43 41 38 35 33 30 30 29 28 25 25 24 27 26 21 28 27 27 33 31 33 32 29 25 26 27 28 29 30 30
49 47 47 47 45 45 44 44 46 43 40 40 42 41 40 38 34 31 30 30 28 28 27 27 25 29 28 27 25 27 26 24 24 30 31 30 27 25 26 27 27 29 29
52 50 47 44 44 43 43 44 42 38 38 38 43 42 40 33 34 33 32 33 30 32 29 29 29 27 28 28 29 26 20 18 19 23 31 28 27 27 26 26 27 27 28
50 46 43 43 43 43 42 43 40 36 41 42 42 41 37 36 35 34 34 33 32 30 31 30 28 28 26 26 25 24 22 21 15 25 29 31 30 28 27 28 27 28 28
44 43 43 42 42 40 38 36 39 41 42 42 43 41 36 35 36 36 35 36 34 34 34 31 29 28 25 26 22 19 20 20 14 10 22 25 27 26 29 30 30 29 29
45 43 41 40 40 38 37 39 42 42 41 41 42 38 38 38 37 37 33 36 36 34 33 31 29 27 24 24 21 18 16 17 17 20 19 17 19 20 22 25 26 31 30
42 39 38 38 38 38 40 40 41 40 40 40 39 38 38 37 37 35 35 35 35 35 34 32 30 28 26 24 22 21 18 16 13 20 20 19 19 18 21 21 27 27 29
38 38 39 40 40 42 39 39 37 38 38 38 39 40 38 34 32 31 31 34 34 34 34 33 33 32 29 26 24 22 20 17 16 18 20 18 20 18 19 14 29 29 30
38 38 38 37 38 38 38 38 36 38 39 39 40 37 33 33 31 31 31 32 33 34 35 30 29 32 31 27 24 20 21 18 20 20 22 18 20 19 19 21 26 29 30
39 39 38 37 38 39 38 36 37 39 37 34 32 31 30 30 32 34 32 33 32 32 32 33 32 31 26 25 22 23 21 19 25 16 20 17 17 19 21 22 24 30 30
40 40 40 40 38 40 38 37 36 34 33 33 32 31 32 32 32 32 34 33 33 32 32 33 31 29 28 27 27 23 20 22 22 21 20 19 16 16 17 20 23 25 27

GFSMA_sfc_dewp_036.txt.gz
Dewpoint
61 59 58 56 54 55 55 55 52 49 48 46 45 42 42 40 40 48 53 57 58 59 57 55 55 52 50 48 49 47 45 43 43 44 44 44 44 44 44 43 42 42 42
59 59 58 57 56 55 55 53 51 48 48 46 43 40 40 40 39 45 48 54 56 57 56 54 54 52 49 47 45 42 42 43 42 42 43 43 43 43 44 42 41 42 42
58 59 57 57 56 55 54 52 48 48 46 42 42 40 41 38 39 39 47 49 51 54 53 50 48 47 45 44 43 41 40 39 39 40 42 43 44 44 44 44 44 44 43
60 60 58 57 56 55 53 51 49 48 46 44 42 41 39 39 38 38 39 42 46 47 50 49 46 45 42 39 37 35 36 37 38 39 40 41 40 40 41 42 42 42 43
59 60 58 57 56 54 54 51 50 48 45 42 41 40 40 40 40 36 37 37 36 42 42 47 45 42 38 35 33 31 34 35 37 37 37 39 39 40 40 40 40 40 40
60 60 59 58 55 54 53 50 49 45 46 44 35 37 42 42 41 40 38 36 38 36 36 38 40 39 41 35 32 31 31 31 33 35 36 38 39 39 39 40 40 40 40
59 59 58 57 55 54 52 52 48 44 42 42 41 42 42 43 42 40 40 39 37 35 36 35 34 35 35 36 32 33 31 28 31 35 37 38 39 39 38 38 38 39 39
58 58 58 56 56 54 53 52 48 46 45 44 43 44 43 42 42 42 40 38 37 36 36 36 34 32 32 33 35 36 31 32 33 34 35 37 37 36 37 37 38 38 38
59 57 58 57 56 55 53 52 49 46 43 44 44 43 41 40 40 41 41 39 39 38 37 37 35 33 33 32 37 36 36 36 34 33 35 35 35 35 35 36 36 37 37
60 58 57 57 57 54 53 51 49 46 44 44 46 45 43 43 38 34 39 39 39 38 39 37 35 34 33 35 38 40 39 36 32 30 32 33 34 35 35 35 35 36 36
60 59 58 57 55 53 51 49 47 45 45 46 45 45 46 47 42 37 34 36 37 37 38 39 36 36 33 32 34 38 37 34 30 29 31 32 33 34 34 34 35 36 36
60 59 56 55 52 51 51 50 50 46 48 47 47 47 47 45 38 37 36 35 34 35 35 36 37 34 34 34 35 38 35 34 32 30 29 30 32 33 33 34 35 35 35
56 55 51 51 51 51 51 50 48 48 48 46 48 48 49 41 39 37 34 32 30 31 33 34 35 34 32 35 35 37 36 36 35 31 27 28 30 30 31 32 34 35 35
55 53 52 51 51 50 48 47 48 47 47 48 47 47 46 42 39 37 34 33 32 32 31 31 33 35 34 33 35 37 31 36 35 33 29 29 30 28 28 30 31 32 33
52 52 52 51 49 47 47 47 47 47 47 48 47 46 42 42 40 39 37 35 33 30 29 30 29 30 31 32 35 32 28 34 34 33 33 33 30 28 27 28 29 29 31
52 53 52 50 47 46 47 47 46 47 47 46 44 42 42 42 41 40 34 35 34 32 30 30 29 30 31 24 33 28 29 35 35 35 35 35 34 28 27 28 27 28 30
54 51 50 48 46 46 46 45 45 46 45 44 42 44 43 43 42 39 36 35 33 31 29 29 30 29 30 30 26 30 31 29 28 34 35 34 34 31 29 28 27 28 29
53 50 48 46 46 46 45 44 45 44 43 42 44 42 42 41 41 39 37 33 33 33 31 29 30 30 30 30 29 28 27 21 23 29 32 33 34 33 31 31 29 30 29
53 51 48 46 45 44 44 43 44 44 42 42 42 42 41 42 40 38 36 35 34 32 33 33 31 31 31 30 27 28 27 26 23 29 32 33 33 32 32 32 31 31 31
44 44 45 44 44 44 43 43 44 43 43 43 43 41 41 42 38 37 36 35 34 34 34 33 33 32 31 30 28 25 23 25 22 16 24 26 29 31 33 33 33 33 33
44 43 43 43 43 42 42 41 42 42 41 40 40 41 41 40 39 38 35 34 35 35 35 34 33 32 31 28 24 25 22 21 22 22 21 21 22 22 23 27 29 31 31
45 43 42 41 40 39 37 41 41 40 39 40 40 40 40 39 39 38 37 36 34 33 32 32 32 32 31 31 30 27 23 20 18 22 20 21 21 21 23 24 28 27 28
41 39 40 40 41 41 40 39 38 39 38 37 38 39 39 39 38 37 35 34 34 34 34 32 31 32 31 32 31 26 22 22 20 20 20 19 21 21 23 17 28 29 31
39 39 39 39 39 39 39 38 36 37 38 39 39 39 39 38 34 33 32 31 30 31 31 32 33 33 33 33 34 29 26 25 21 21 20 18 22 21 22 22 28 29 31
40 40 39 39 38 39 38 37 37 38 38 37 34 33 33 32 34 35 32 32 32 32 31 33 34 34 34 32 33 31 28 22 19 18 21 20 20 20 21 21 22 28 30
39 39 40 40 38 40 37 36 34 33 31 30 30 29 30 31 31 31 28 27 26 28 32 33 34 32 31 29 30 27 26 23 22 19 21 21 20 18 18 19 22 22 24

GFSMA_sfc_dewp_039.txt.gz
Dewpoint
57 56 56 52 52 51 47 52 49 47 46 44 42 40 38 41 47 51 54 58 58 59 57 57 55 53 50 51 48 46 44 44 44 44 44 44 43 44 45 43 42 43 43
58 57 58 54 53 53 53 51 49 48 46 42 39 38 38 38 47 49 52 55 58 59 57 56 54 52 50 48 46 43 43 42 42 42 42 44 45 45 45 45 44 44 44
58 60 58 56 55 53 52 52 49 47 45 43 38 39 37 38 40 46 51 51 53 56 56 56 53 50 48 45 44 41 39 39 40 41 42 42 42 41 42 42 43 43 43
57 57 55 56 55 54 50 48 47 45 43 40 39 38 40 38 36 40 47 49 49 49 53 53 50 48 47 44 40 36 36 38 38 40 39 39 40 41 41 41 41 41 41
57 58 56 57 55 52 52 49 48 46 44 42 40 40 39 39 38 36 37 46 47 46 45 51 51 49 43 38 35 34 34 35 36 36 37 39 40 40 40 40 40 40 40
59 58 58 57 54 52 52 50 47 46 43 41 37 38 38 39 40 38 36 36 38 44 43 42 43 42 44 38 35 33 34 33 33 34 37 39 39 39 39 39 39 39 39
60 58 57 55 53 53 51 49 48 41 40 40 39 39 40 40 39 39 38 36 37 36 38 37 38 36 39 39 36 35 35 32 31 34 35 36 36 37 37 37 37 37 38
60 59 57 54 53 53 52 50 45 43 41 40 39 42 40 40 41 40 40 38 37 35 35 34 34 34 34 34 35 38 36 33 35 34 33 34 35 35 36 36 37 37 37
54 58 58 55 54 54 53 50 46 43 41 43 42 42 40 39 39 40 41 39 36 37 36 36 34 33 33 34 37 39 40 38 37 35 33 33 34 35 36 36 36 36 37
58 59 58 56 55 54 53 50 48 46 44 41 44 44 43 42 38 36 39 39 38 36 36 37 36 34 33 33 39 40 42 41 38 36 33 33 33 34 35 35 35 35 36
59 59 58 57 55 54 53 51 49 47 49 49 46 45 46 47 43 41 36 35 38 38 38 38 36 36 34 35 37 40 42 40 38 35 33 32 32 33 33 35 35 35 36
60 59 58 58 56 51 50 51 50 50 49 49 48 47 47 46 45 42 38 35 35 36 37 38 38 36 35 33 38 42 42 40 37 35 34 32 31 31 32 33 33 35 35
57 58 56 54 51 51 51 51 50 48 47 47 48 48 49 49 48 44 38 33 31 31 32 35 37 35 33 35 37 42 41 39 38 36 34 31 31 30 31 30 31 33 34
59 56 52 52 51 52 51 49 48 47 47 47 47 48 48 48 46 39 35 33 31 31 31 31 34 35 34 33 38 42 37 38 38 38 35 33 31 31 29 28 29 30 31
56 54 52 51 50 49 48 47 47 47 47 47 47 47 47 46 42 40 38 36 33 30 29 30 30 30 33 35 37 38 33 38 39 38 36 35 33 31 29 28 28 29 28
55 53 53 52 51 48 47 47 47 47 47 47 47 46 45 44 43 41 39 36 36 33 30 31 30 30 30 29 34 33 29 37 38 37 37 37 37 34 31 29 29 28 27
54 53 54 52 47 47 47 46 45 47 45 45 45 44 43 44 42 42 41 38 34 33 30 29 31 30 28 29 28 32 30 32 31 37 36 36 36 36 35 33 31 29 28
53 54 52 50 47 47 46 45 45 45 44 44 44 44 42 42 42 42 41 38 35 33 31 29 30 30 29 30 30 29 29 27 28 33 36 35 35 35 35 34 33 33 31
53 51 49 47 46 46 45 45 44 44 45 44 43 43 42 40 40 41 39 37 36 34 34 32 31 32 31 31 30 29 28 28 24 30 34 34 34 35 36 35 34 34 34
50 50 48 46 46 45 44 44 44 44 43 43 43 41 40 40 41 41 37 36 35 35 35 35 35 35 34 33 33 30 30 29 27 21 27 25 31 33 35 35 35 35 35
46 45 45 45 44 44 43 44 44 43 42 42 41 40 41 41 40 39 38 37 37 35 35 35 36 36 35 33 31 32 30 31 25 25 20 20 21 22 23 29 29 31 32
44 43 43 43 43 42 40 40 42 41 40 39 40 39 39 40 40 38 38 38 37 36 34 33 33 32 31 31 32 31 30 28 25 24 21 19 23 21 22 23 27 30 30
41 40 40 39 39 38 38 39 38 39 38 36 35 36 38 38 38 37 34 33 33 33 34 32 31 31 31 31 33 32 29 29 27 26 23 20 24 20 22 20 29 30 31
38 38 39 40 39 39 38 37 36 36 36 37 38 38 36 34 33 31 29 28 28 29 29 31 32 32 32 33 33 33 33 32 28 27 25 20 23 20 22 24 28 30 29
38 37 38 38 38 38 38 36 36 36 38 33 31 29 29 28 31 30 26 24 22 19 19 24 26 29 31 30 32 33 33 30 29 22 23 21 21 20 21 21 22 27 29
39 40 39 40 38 38 36 35 33 29 26 25 25 26 28 27 29 27 23 22 22 21 22 24 25 26 27 27 30 31 32 31 30 24 22 21 20 20 17 19 20 21 22

GFSMA_sfc_dewp_042.txt.gz
Dewpoint
55 55 54 52 50 49 47 51 49 47 45 42 40 41 45 45 48 51 53 56 59 58 57 57 55 52 52 51 48 46 45 45 44 44 44 45 47 47 46 45 45 44 44
55 54 55 51 50 50 47 51 47 46 43 39 39 40 42 47 47 50 53 56 59 59 58 56 55 53 50 50 47 44 45 43 42 42 43 44 43 43 43 44 44 43 43
57 57 57 54 52 51 52 50 49 47 44 40 38 38 39 45 47 49 52 53 56 58 58 57 54 53 50 48 45 43 41 40 40 41 42 41 40 41 42 42 42 42 42
58 58 58 56 55 53 53 51 49 46 45 41 38 39 38 39 44 47 50 50 51 52 55 56 55 51 49 47 45 41 38 38 39 40 38 39 40 41 41 41 41 40 41
57 57 56 56 55 53 50 49 47 46 42 41 39 39 39 38 38 45 47 48 48 48 48 53 53 52 49 46 41 37 38 37 37 36 37 39 39 39 39 39 39 39 40
57 58 56 56 54 52 50 48 47 47 44 42 38 38 38 39 39 40 42 46 47 46 46 47 48 47 49 43 40 38 37 38 37 35 37 36 36 36 36 37 38 38 38
59 58 57 56 54 51 51 49 47 43 42 42 39 38 39 40 39 39 37 40 42 44 44 43 41 39 42 46 41 38 38 38 36 36 36 34 34 34 35 36 37 37 38
59 58 57 56 53 52 51 49 46 43 40 41 38 41 38 41 40 40 39 37 37 41 40 38 37 36 37 39 37 40 40 40 38 39 37 35 34 34 35 35 36 37 38
59 59 57 56 53 52 52 50 46 43 41 42 42 41 40 39 39 40 40 40 38 37 37 36 35 36 35 35 39 42 44 42 39 41 39 37 35 35 35 35 35 36 37
59 58 58 56 54 53 52 51 47 44 43 42 44 44 45 43 38 37 39 40 39 37 36 37 36 34 33 34 38 41 45 43 42 41 40 38 36 35 35 35 35 36 36
58 56 57 57 55 54 54 53 48 46 48 48 48 46 46 46 42 42 39 38 38 39 38 37 37 36 34 34 35 39 44 43 43 41 40 39 37 36 34 35 35 35 36
58 58 58 58 56 56 55 53 51 48 49 47 47 47 47 46 46 44 41 39 37 37 38 38 38 37 36 35 36 40 44 42 42 41 40 38 37 36 36 35 34 34 34
56 58 58 58 56 54 54 53 50 49 48 47 47 47 49 48 47 45 42 41 36 33 32 35 38 38 37 35 37 42 44 42 42 41 39 38 37 36 35 34 33 32 32
58 59 59 58 56 53 52 52 50 50 48 48 48 48 49 49 47 45 40 39 34 32 32 32 33 35 36 35 36 43 41 42 41 40 40 39 37 36 35 33 32 30 30
58 58 57 56 54 53 52 51 50 48 48 48 48 48 47 48 47 45 40 38 36 33 32 32 31 32 35 35 35 40 39 42 41 39 39 40 39 36 35 34 31 30 29
56 56 54 53 52 51 50 50 49 48 47 48 47 47 47 46 45 43 42 42 38 36 33 32 31 32 31 30 34 38 38 39 41 39 39 38 38 38 37 35 32 30 29
56 54 53 51 51 50 49 48 47 47 47 46 46 46 45 44 44 43 43 43 40 36 34 32 31 31 29 29 29 37 36 35 35 40 38 38 37 37 37 37 36 33 31
57 55 53 53 50 49 48 47 46 47 46 45 45 44 43 43 42 42 42 41 40 38 35 34 31 30 29 30 30 29 33 29 30 33 39 38 37 37 36 36 35 35 34
57 54 53 52 50 49 47 46 46 45 45 44 44 43 43 42 40 41 41 40 38 36 36 32 34 32 32 32 32 33 31 31 30 34 35 37 37 36 35 35 36 35 35
53 53 51 50 48 47 46 45 45 44 44 44 43 42 42 40 40 40 39 38 37 36 36 35 35 35 35 36 34 35 35 35 31 31 33 32 34 35 36 36 36 36 36
51 50 49 48 46 45 45 44 44 44 43 43 43 41 40 41 40 40 39 38 38 38 37 36 35 34 35 34 34 34 33 33 33 31 31 30 30 30 29 34 33 36 36
47 46 45 45 44 44 40 41 43 42 42 41 40 40 39 39 40 37 34 34 33 30 29 29 29 29 30 30 32 32 32 32 31 32 27 26 24 23 23 27 29 31 31
43 43 43 44 42 43 39 40 40 41 39 39 37 37 38 36 34 31 31 30 29 31 31 29 27 26 28 28 31 32 33 33 32 32 25 27 24 22 25 24 30 32 32
40 39 38 39 39 39 38 38 36 36 35 37 37 34 31 29 31 28 26 24 23 23 20 18 21 22 23 24 26 26 26 26 28 32 30 28 28 24 25 25 30 31 32
38 38 38 38 37 37 37 36 35 35 33 30 28 28 27 26 27 27 24 22 21 22 24 26 27 29 30 30 30 28 26 26 24 24 28 27 27 26 25 23 23 29 31
37 38 37 37 36 35 36 36 35 32 27 25 24 23 25 25 25 23 22 23 23 23 24 23 23 26 28 27 29 28 27 27 27 26 26 26 28 27 24 21 22 21 23

GFSMA_sfc_dewp_045.txt.gz
Dewpoint
56 55 54 52 50 47 47 49 46 45 42 42 44 46 47 48 49 51 52 59 60 59 58 56 55 54 52 50 48 46 46 45 44 44 45 46 45 45 45 45 45 44 44
55 53 53 50 48 46 49 48 46 44 42 40 42 44 44 45 47 49 52 55 59 59 59 57 55 53 52 50 47 45 45 43 42 43 43 43 43 44 44 43 43 43 43
54 54 53 50 49 47 50 48 47 44 41 39 39 42 45 46 47 49 52 55 57 58 58 58 56 53 52 51 46 45 43 41 40 42 41 41 42 42 42 42 42 41 42
55 55 54 51 51 51 51 50 48 45 43 39 38 39 43 46 45 48 51 53 54 55 57 58 57 54 52 50 48 44 41 40 40 40 39 40 40 40 40 40 40 40 41
56 56 56 55 54 53 52 50 48 46 43 40 38 39 39 41 44 46 49 50 51 51 51 56 55 54 52 50 48 43 40 39 40 38 39 39 38 36 36 37 38 39 39
57 57 56 56 55 53 51 50 47 46 44 41 37 38 38 39 38 44 46 48 49 48 48 49 51 50 52 50 45 42 41 40 41 39 39 39 35 34 34 35 36 37 38
57 56 55 55 54 52 51 49 47 45 43 42 39 38 38 39 39 39 41 45 46 47 46 47 47 45 47 49 44 42 42 42 41 40 40 39 36 34 33 34 35 36 37
56 57 56 56 54 52 50 49 46 43 42 41 38 39 36 39 41 40 38 40 42 45 44 44 43 41 39 42 41 44 42 42 42 42 41 40 38 36 35 35 35 36 37
57 57 57 56 55 53 51 49 47 44 41 41 42 40 39 38 40 41 40 39 38 39 43 42 40 37 36 38 42 44 46 46 43 42 43 42 41 39 37 36 35 36 37
57 59 58 56 55 53 52 51 48 44 44 41 43 44 44 43 39 38 39 41 40 38 38 39 38 36 36 36 39 42 45 46 46 42 43 43 42 41 39 37 36 36 37
57 58 58 57 56 54 53 53 51 51 48 48 46 46 45 45 42 41 39 40 39 40 39 38 37 37 35 35 35 39 44 45 45 44 42 44 43 42 41 38 37 37 37
56 56 57 57 56 55 54 54 53 51 49 49 48 46 45 46 45 43 40 39 38 39 39 40 39 38 37 35 36 39 42 43 44 44 44 43 43 43 42 40 38 38 37
54 56 56 55 56 56 55 55 53 51 50 49 47 48 48 48 47 45 43 41 40 39 33 35 37 38 38 38 37 41 42 43 43 44 44 44 43 42 41 40 39 38 37
54 55 56 57 57 57 55 54 54 53 51 50 48 48 49 49 48 46 44 42 38 35 33 32 33 35 38 39 39 41 39 42 43 43 43 44 44 43 41 39 38 37 36
56 56 56 57 58 57 56 54 53 51 50 49 49 49 49 49 48 47 42 39 37 35 34 35 33 33 35 35 36 37 39 41 44 42 42 42 43 43 42 41 39 37 36
56 56 55 56 55 55 54 54 52 50 49 49 49 49 48 48 46 45 42 42 40 38 36 35 33 32 32 31 33 37 38 42 42 42 41 41 41 41 41 41 40 38 36
56 56 56 55 53 53 51 50 49 48 48 48 48 48 47 46 45 44 43 43 42 39 38 38 33 32 31 30 30 32 37 37 38 41 42 41 39 39 39 39 39 39 38
57 56 55 54 52 51 50 50 48 48 47 47 47 46 45 44 43 43 43 41 41 41 38 36 35 32 31 31 31 30 30 34 34 36 39 40 40 39 38 38 38 38 38
58 57 57 54 53 52 50 49 48 47 47 47 46 45 44 42 41 41 41 41 39 37 37 35 35 33 32 32 32 33 32 33 32 35 36 36 37 39 39 38 38 37 37
57 57 54 53 52 50 49 48 47 46 46 45 44 44 42 42 40 40 40 39 38 36 36 36 36 35 34 34 35 35 34 35 35 36 36 36 36 37 37 38 37 38 37
57 54 53 51 50 48 47 46 46 45 44 44 43 42 41 41 40 39 39 37 35 33 32 31 30 31 29 29 29 31 32 33 33 34 34 34 33 33 33 35 37 38 37
51 51 50 48 47 47 44 41 43 44 43 42 41 40 40 40 37 35 34 33 31 28 25 26 26 25 24 26 27 26 27 26 23 29 32 31 32 31 31 31 33 35 36
46 46 46 46 45 44 40 41 40 42 42 41 40 38 37 34 32 30 28 27 26 26 28 25 23 22 22 22 24 24 24 24 24 24 25 24 26 28 30 26 31 33 34
44 44 43 43 43 42 39 39 38 39 38 38 37 35 31 30 29 27 24 22 21 21 21 21 21 22 22 24 25 26 27 26 25 26 27 24 25 25 27 27 30 32 33
41 40 41 40 40 39 37 37 37 36 32 29 28 28 27 27 26 25 22 20 21 23 24 25 23 23 24 24 25 26 24 24 23 21 24 24 25 26 27 26 26 32 34
38 38 36 35 36 36 36 36 35 31 27 25 23 23 25 24 23 21 23 23 23 23 22 21 21 21 21 22 23 24 20 18 18 17 21 23 23 26 26 24 27 30 32

GFSMA_sfc_dewp_051.txt.gz
Dewpoint
56 52 52 49 50 52 53 53 54 53 54 54 54 54 55 56 56 55 55 59 60 58 56 55 54 54 52 51 49 49 48 48 48 48 47 47 46 46 45 45 44 44 43
56 51 50 49 49 48 50 51 52 52 51 52 53 54 54 55 56 56 55 56 59 59 58 57 56 55 53 51 49 49 47 46 47 46 46 46 45 44 43 42 42 41 42
56 54 50 49 50 50 49 48 49 50 50 50 51 52 52 53 53 54 56 56 56 59 59 59 57 56 54 52 49 49 47 45 45 45 44 45 44 42 40 39 39 39 39
55 53 50 49 51 51 48 46 45 47 47 48 47 47 46 47 48 50 53 55 54 53 58 59 58 57 55 53 50 50 47 45 45 44 44 44 43 40 37 35 36 37 38
53 52 50 50 52 52 50 48 46 45 45 44 44 45 46 45 47 44 48 53 56 56 55 58 58 57 57 54 51 50 48 46 45 44 44 44 42 38 35 34 34 35 36
54 54 51 52 51 52 51 49 48 47 44 43 36 41 45 46 46 47 47 50 54 57 57 56 56 54 56 56 53 50 49 47 46 46 45 45 43 39 37 35 34 35 36
55 56 54 54 52 51 53 53 50 49 46 45 41 41 41 43 45 44 47 47 50 52 54 55 54 52 53 56 54 51 49 47 47 47 45 45 44 41 39 38 37 37 37
56 57 57 56 55 54 54 55 52 49 48 46 43 43 41 41 41 42 42 45 48 49 50 52 53 53 52 51 53 52 49 48 48 48 47 46 45 44 42 41 40 39 38
55 56 58 58 58 58 54 55 54 52 49 47 47 45 42 43 43 43 44 42 44 46 47 49 51 52 52 50 50 51 52 51 49 47 47 47 46 46 45 44 43 42 41
57 57 58 58 58 58 58 57 54 54 53 50 46 44 48 46 43 42 43 44 43 43 47 47 47 49 50 49 48 48 48 49 50 49 46 47 48 47 47 46 45 44 43
54 55 57 58 58 58 58 58 57 55 54 54 50 48 47 46 46 46 46 43 42 43 42 45 46 46 46 46 45 45 46 46 47 49 48 47 46 47 48 48 47 46 45
54 55 54 57 58 59 59 59 58 57 56 54 52 51 48 48 45 44 44 45 43 43 44 43 43 44 44 43 42 44 44 45 46 47 48 47 47 45 46 47 48 48 47
53 54 55 56 57 58 59 59 58 58 57 56 54 53 52 51 50 47 46 45 43 44 42 43 44 44 42 43 41 43 44 43 44 45 46 47 47 48 48 47 45 46 47
53 54 55 56 56 57 57 58 58 58 58 57 56 55 53 52 52 51 48 46 43 45 41 43 39 40 41 42 43 42 41 43 43 44 44 45 46 46 47 47 48 48 47
53 54 55 55 56 57 57 58 58 58 57 57 56 55 53 53 54 53 50 48 47 43 42 41 38 39 39 41 40 41 41 41 42 42 43 44 45 45 46 46 46 47 47
54 54 55 56 56 57 57 57 58 58 57 56 56 54 53 54 54 51 49 48 48 47 44 42 38 39 40 36 39 39 40 39 40 41 41 41 43 43 44 45 45 45 46
52 53 54 55 56 56 57 58 58 58 55 56 55 54 53 53 51 50 49 46 45 45 43 40 40 40 39 40 38 39 38 39 38 39 39 40 41 41 42 42 43 43 43
53 52 53 54 55 56 57 57 57 56 54 54 54 52 52 51 50 49 47 45 44 43 41 40 41 38 37 38 38 39 37 35 38 38 39 40 40 40 40 40 40 41 41
54 54 54 55 55 55 56 57 56 54 53 54 54 52 50 49 48 46 45 44 43 42 41 38 37 37 37 37 38 37 36 36 32 34 35 38 39 39 39 39 39 39 39
54 54 55 55 56 56 56 55 55 55 54 53 52 49 48 47 47 44 43 43 41 39 38 37 36 36 37 36 34 32 29 26 22 17 24 27 32 33 36 37 37 37 37
54 55 56 56 56 56 55 54 53 52 51 49 48 47 47 46 43 42 42 40 39 37 36 35 33 32 32 29 28 24 21 19 21 22 23 23 22 22 23 27 26 29 30
55 56 56 56 57 56 48 46 49 51 50 47 45 43 43 41 39 38 37 36 37 34 31 30 30 29 28 23 22 21 21 19 15 22 22 20 21 21 22 23 27 30 31
56 57 57 56 55 54 44 44 43 48 46 45 42 40 38 36 35 33 31 30 29 27 28 27 25 22 20 21 23 22 21 20 18 19 20 19 19 18 18 13 26 28 30
56 55 53 51 49 47 41 41 41 44 42 41 41 38 36 33 31 29 25 22 20 20 21 19 22 23 24 22 22 20 20 21 20 19 18 15 13 14 15 17 23 24 26
46 45 45 45 44 41 39 38 38 37 35 34 34 33 32 30 31 29 23 21 21 22 25 23 21 20 19 19 20 20 20 17 19 9 12 13 14 12 15 18 19 24 27
40 39 38 39 38 38 37 37 36 33 31 30 29 29 29 29 29 26 23 21 20 21 19 19 17 15 15 16 18 17 15 17 15 13 14 14 10 14 15 14 18 21 24

GFSMA_sfc_dewp_054.txt.gz
Dewpoint
57 54 55 56 56 55 55 54 53 53 52 51 52 53 53 53 53 51 53 59 59 58 56 56 55 54 52 51 51 50 49 49 50 48 48 47 47 46 45 45 44 44 43
56 52 52 50 52 54 54 52 51 50 48 49 51 51 52 53 53 54 52 55 59 59 58 56 56 54 53 51 50 49 49 48 49 47 47 46 46 44 43 42 42 41 41
56 55 48 48 49 50 51 50 51 49 47 47 50 51 50 52 52 53 52 53 56 59 59 59 57 55 54 52 50 50 48 47 48 47 47 46 44 42 40 39 39 39 39
55 53 48 48 48 49 48 48 49 48 47 46 48 48 48 49 50 52 52 52 52 53 58 59 59 58 55 54 51 51 49 47 47 46 47 46 44 40 37 36 36 36 37
51 50 48 49 52 49 48 47 47 47 46 45 45 45 45 44 46 44 49 52 53 52 52 58 58 58 58 56 53 52 50 48 47 47 46 46 44 41 38 36 35 35 35
53 51 48 52 52 50 50 49 48 46 45 43 37 41 44 44 45 45 46 46 49 53 52 53 56 54 57 58 55 53 52 50 48 49 47 47 46 43 40 38 37 37 37
53 53 49 52 52 51 52 53 50 49 45 46 41 42 43 46 47 44 45 46 48 50 53 52 52 51 53 57 57 54 53 52 50 50 48 48 47 45 43 41 39 39 39
53 53 52 51 52 51 55 55 53 50 48 47 44 45 44 44 44 45 44 45 48 46 47 51 51 51 50 51 53 56 53 52 51 51 50 49 48 47 46 43 42 41 41
53 53 54 53 53 52 53 56 55 54 50 51 51 48 46 45 45 46 46 44 47 47 47 47 50 49 51 50 51 52 54 53 52 50 50 50 49 48 48 46 45 44 43
56 53 54 55 56 54 54 55 55 55 55 51 50 49 52 51 46 46 46 46 47 46 47 46 47 49 50 50 51 50 50 51 52 52 50 49 50 50 49 49 48 47 46
56 54 55 57 58 58 58 58 58 58 56 58 53 52 51 50 51 49 48 48 47 46 46 46 48 47 49 48 49 49 49 48 49 51 51 50 48 48 48 50 50 50 49
57 58 56 59 60 59 59 60 60 59 58 57 58 55 53 51 50 49 48 49 48 49 49 48 48 47 47 47 48 48 47 47 47 48 49 49 48 48 47 47 47 49 50
54 55 57 56 56 57 58 58 59 59 59 58 58 56 55 54 53 52 50 49 50 51 50 49 46 46 45 47 46 46 46 44 44 46 46 46 47 46 47 46 46 46 46
52 55 55 55 55 55 56 56 56 57 58 59 59 58 56 56 56 54 50 49 46 48 48 48 46 48 48 45 46 44 42 43 44 44 44 45 45 45 46 46 46 46 46
52 55 55 54 54 54 55 56 55 55 57 58 58 58 58 57 58 56 55 52 49 48 47 48 48 44 43 45 44 44 44 43 43 42 43 43 44 44 44 45 45 45 45
56 55 56 56 55 55 56 56 56 56 56 57 57 58 58 58 57 55 53 54 53 50 47 48 45 41 41 38 41 43 44 42 41 41 41 41 42 42 43 43 43 43 43
56 55 55 55 55 55 55 56 56 56 56 57 59 58 57 57 56 54 54 52 50 50 48 45 42 42 42 43 40 42 42 41 41 41 40 40 41 41 41 42 41 41 41
56 56 55 55 54 54 54 55 55 55 55 56 57 57 56 54 53 53 52 51 50 49 47 44 43 41 42 42 41 40 39 37 38 41 39 39 39 39 39 39 40 40 40
55 54 53 53 52 53 52 55 54 55 56 55 57 56 54 55 53 52 50 48 47 46 45 42 41 40 41 39 39 40 39 40 36 37 35 35 36 37 38 39 38 37 37
54 54 54 53 54 52 53 53 54 55 55 56 56 56 56 54 52 50 47 46 45 43 41 40 40 38 38 39 39 36 36 36 32 21 24 26 29 30 32 34 35 36 35
54 53 53 53 54 53 53 54 55 56 56 56 55 55 55 51 46 46 46 44 42 40 39 39 37 37 36 34 34 34 30 29 25 23 21 23 22 21 23 31 30 32 32
53 53 53 53 54 54 48 47 53 57 55 55 51 49 48 45 43 41 41 41 41 40 39 37 35 33 33 32 31 29 26 22 18 20 24 22 21 20 21 22 28 29 30
54 54 54 54 54 55 45 45 45 56 53 51 47 44 43 41 40 37 35 33 31 31 33 34 32 31 30 29 26 25 23 21 20 19 20 18 21 19 19 10 27 28 27
54 55 55 56 56 55 44 44 42 49 46 45 43 42 39 37 36 33 30 26 25 24 22 19 23 24 24 23 23 21 21 21 21 20 20 15 16 16 17 17 24 26 27
56 54 53 52 51 46 41 40 42 41 39 37 37 37 35 33 33 32 26 23 23 24 27 25 23 22 20 19 19 18 19 18 22 15 14 14 16 17 16 16 19 26 25
42 40 38 39 39 39 38 39 38 35 33 31 31 32 33 31 30 29 26 25 25 24 20 19 19 18 18 19 19 18 15 17 17 16 16 16 14 12 14 15 17 20 22

GFSMA_sfc_dewp_057.txt.gz
Dewpoint
61 61 61 60 57 56 54 53 52 51 51 51 52 53 52 52 52 51 53 59 59 58 56 56 55 54 53 53 52 51 50 51 50 49 49 48 47 46 45 44 44 43 44
60 60 60 57 55 55 53 51 51 50 48 50 52 53 52 52 52 53 52 55 59 59 58 55 55 55 53 53 52 50 50 50 50 49 48 48 46 44 43 42 41 41 41
59 59 57 56 55 55 54 52 52 49 47 48 50 51 51 53 52 53 53 53 55 59 59 58 57 55 54 53 52 50 49 50 49 49 48 47 46 43 42 41 40 39 39
58 58 53 52 51 53 51 49 49 46 46 47 49 49 49 51 52 53 52 53 53 53 57 59 59 58 55 54 53 52 50 49 49 49 49 48 46 44 42 40 39 38 38
53 54 50 53 53 51 50 48 49 48 46 46 47 48 48 48 50 48 51 53 54 53 55 57 59 59 58 56 54 53 52 50 50 50 48 48 47 44 42 40 39 38 37
53 55 54 57 53 48 48 48 51 49 47 46 41 44 46 45 46 46 48 48 51 53 54 57 57 56 58 58 57 54 54 52 50 50 49 49 48 46 43 41 40 38 38
53 55 53 57 56 52 51 53 49 48 46 47 42 42 44 46 47 45 46 46 48 50 52 51 57 55 55 58 58 56 55 54 53 51 51 50 49 48 45 43 41 40 41
52 53 54 53 55 52 55 55 54 49 45 46 41 41 41 43 45 47 47 47 52 47 48 53 53 54 54 54 56 58 56 54 54 53 52 51 50 49 48 46 44 43 42
53 53 55 55 55 55 55 57 56 54 49 49 51 46 44 42 45 48 51 49 52 50 48 48 51 51 52 53 55 55 55 55 55 54 53 52 51 51 50 49 48 47 46
56 53 54 56 57 55 56 58 56 56 55 51 52 50 55 53 49 48 49 50 50 49 52 50 48 50 51 52 53 52 53 52 53 55 55 55 53 52 52 51 50 50 49
58 56 55 57 57 56 57 58 59 59 57 55 54 53 53 52 53 50 50 49 50 48 47 51 50 50 51 52 52 52 51 51 51 53 54 53 52 53 53 53 52 52 51
57 57 55 57 59 60 60 59 60 60 59 58 59 55 55 52 51 53 52 51 53 51 50 51 54 54 53 52 51 50 50 48 49 51 52 52 52 51 50 49 49 49 49
56 57 58 57 58 60 60 59 60 61 61 60 59 59 57 55 54 52 53 50 51 53 53 53 53 53 53 53 52 50 48 46 47 48 49 49 49 49 49 48 48 48 48
55 57 58 58 59 59 60 59 59 59 59 59 60 58 58 55 55 54 54 54 52 52 53 52 52 53 53 52 51 47 47 45 44 44 45 46 46 47 47 47 47 47 47
54 57 58 59 59 59 59 59 59 59 59 59 60 59 58 56 55 56 57 56 54 50 49 52 52 52 51 52 49 46 45 45 44 43 44 44 45 45 45 45 45 45 45
55 56 57 57 57 57 58 58 57 57 57 57 57 58 57 57 57 58 57 57 56 53 51 53 52 49 49 48 47 47 43 45 43 42 42 42 43 43 43 44 44 44 43
56 54 54 55 55 55 56 56 56 56 56 56 57 57 57 57 57 59 58 56 55 53 50 51 48 46 44 44 44 44 45 44 43 43 41 41 41 41 41 42 42 41 40
58 56 54 54 54 54 55 55 55 54 55 55 55 56 56 56 58 58 57 55 54 53 51 49 45 43 43 43 44 43 41 41 42 42 43 41 40 39 39 39 39 39 40
58 57 55 55 54 55 55 55 55 55 55 55 55 55 56 57 57 57 55 53 53 51 50 46 42 42 43 41 41 41 41 42 40 43 40 38 38 37 35 36 37 37 36
58 57 57 56 56 55 54 54 54 55 55 55 57 55 55 57 56 55 54 53 51 48 46 45 42 39 41 40 40 40 39 40 39 37 35 29 31 33 34 34 34 34 35
57 56 57 57 57 55 54 55 54 54 54 54 55 56 56 55 50 53 53 52 48 45 44 42 40 39 38 38 37 38 37 37 36 35 31 28 26 27 28 33 32 35 36
57 57 56 56 56 54 47 44 50 55 54 53 54 55 56 50 48 44 43 43 45 44 42 40 39 38 38 37 36 35 33 32 29 31 28 24 26 26 25 26 30 30 28
57 56 56 56 56 56 44 44 44 54 56 57 56 56 51 46 45 43 38 35 34 35 37 40 38 35 34 35 33 32 31 29 26 26 26 23 24 23 25 17 28 28 28
56 56 56 56 56 55 43 44 44 55 55 53 53 50 45 41 40 39 36 33 31 31 30 31 33 30 27 28 27 27 27 25 24 22 23 21 23 23 22 23 29 29 29
56 56 56 56 55 54 43 43 44 44 40 39 40 40 39 36 36 36 32 30 30 30 29 28 26 24 23 22 20 21 21 21 26 18 22 22 22 22 25 25 23 27 25
54 46 41 41 39 40 41 42 42 38 34 33 33 34 34 33 32 31 29 28 26 26 24 22 19 18 17 19 18 16 16 19 18 18 20 18 16 17 17 21 23 25 25

GFSMA_sfc_dewp_060.txt.gz
Dewpoint
62 62 61 58 55 55 54 52 52 52 53 52 55 54 54 52 53 54 56 59 58 58 56 56 55 55 54 53 52 52 52 51 50 50 50 49 48 47 45 45 44 45 44
61 61 61 58 55 55 54 52 53 53 52 52 54 54 53 52 52 54 55 57 59 58 58 56 55 55 54 53 52 52 52 52 50 50 49 48 47 45 44 43 43 43 42
59 60 59 58 56 55 54 53 53 53 52 52 53 54 54 54 52 53 53 55 57 58 58 58 57 55 55 54 53 52 51 52 50 50 49 48 47 45 44 42 41 41 40
59 59 59 58 56 54 54 55 52 51 51 51 52 52 53 53 53 53 53 53 54 55 58 59 58 58 56 54 54 52 51 51 51 50 50 48 47 45 43 42 41 40 39
58 59 59 59 57 56 55 53 53 51 50 50 51 52 52 52 53 51 53 53 54 54 55 57 59 58 58 57 55 54 53 51 51 51 50 49 48 46 44 42 40 40 40
56 57 55 56 55 54 53 53 52 52 51 50 46 49 51 51 51 52 51 52 54 54 55 55 56 56 58 58 57 55 55 53 52 52 51 50 50 48 45 43 42 41 40
54 55 54 54 54 52 51 53 53 52 51 51 48 49 48 48 50 49 50 50 51 53 55 56 56 55 56 58 59 57 56 55 54 52 52 51 50 50 48 46 44 43 42
53 54 54 54 54 55 54 53 51 51 50 51 47 45 44 45 47 49 49 48 49 50 52 55 56 55 55 55 56 59 58 56 55 55 53 52 51 51 50 49 47 46 44
52 52 55 55 55 56 55 54 54 53 49 50 48 46 43 43 44 47 48 49 48 51 50 51 53 55 55 55 56 57 56 56 57 57 56 55 54 52 52 51 50 49 48
54 52 53 55 55 55 56 57 56 55 55 49 49 48 51 53 51 48 48 49 51 50 50 50 50 52 52 53 55 55 54 53 55 57 57 57 56 54 53 53 52 52 51
58 54 55 56 55 54 54 57 57 56 56 56 52 53 52 52 53 52 49 49 49 49 50 52 52 50 50 52 52 54 52 52 53 55 56 57 57 56 56 55 54 53 53
57 58 54 55 57 57 56 57 58 57 57 57 56 55 54 52 51 52 51 50 50 50 50 51 51 52 52 52 52 51 50 50 51 53 54 55 55 55 55 55 54 52 52
53 57 56 56 57 57 58 59 58 58 59 58 56 56 57 55 54 53 53 51 50 52 51 51 52 52 52 52 52 51 50 48 49 51 52 53 54 53 53 52 51 50 50
53 55 56 55 56 57 57 59 59 58 57 58 57 55 57 56 55 54 53 52 49 51 51 50 52 53 52 53 52 51 51 46 47 48 48 49 49 50 50 50 49 49 49
53 56 57 57 56 56 57 58 58 57 57 57 56 57 56 55 57 55 55 54 52 49 50 51 51 53 53 53 52 51 49 48 46 45 45 46 46 47 47 48 47 47 46
53 53 56 57 56 56 57 58 58 57 57 57 57 56 56 56 56 55 55 55 55 53 50 52 52 52 52 51 50 50 49 48 46 44 43 44 44 45 46 46 46 45 44
54 54 54 54 55 57 57 57 56 56 56 56 55 55 56 56 56 56 56 56 55 55 53 53 50 49 46 47 48 48 48 47 45 43 43 43 43 43 43 43 43 43 43
55 54 53 53 54 54 55 55 55 54 55 54 55 54 54 54 55 55 56 56 55 54 53 51 50 45 46 46 47 45 46 44 44 44 43 43 42 41 41 40 40 40 40
56 55 54 52 52 53 53 54 54 54 53 53 53 53 53 53 54 55 55 56 56 55 54 52 50 43 43 43 44 44 44 42 42 43 44 42 41 41 40 39 37 36 37
56 56 55 54 53 52 52 52 52 53 53 53 53 53 53 53 53 54 55 56 55 53 52 51 48 41 41 41 42 41 40 41 41 39 42 40 39 40 39 35 35 35 35
57 57 56 55 55 54 52 52 52 53 53 53 53 53 54 53 49 51 55 55 54 52 51 48 46 39 40 39 39 40 39 40 41 41 37 33 32 31 30 36 34 36 35
57 57 57 56 56 54 48 45 50 54 53 53 52 53 53 49 48 45 46 48 52 52 49 46 45 41 41 38 39 38 37 35 33 36 31 29 28 28 27 27 31 33 35
57 57 56 56 56 56 46 44 43 53 53 53 53 53 53 51 48 46 37 36 35 35 38 44 41 37 36 37 37 36 34 31 29 28 27 25 26 24 25 20 31 28 27
56 56 56 56 56 55 47 44 43 51 53 53 53 53 54 47 44 40 36 34 33 33 34 35 34 32 32 32 32 29 26 25 25 24 24 22 23 24 25 25 29 32 33
56 56 56 55 55 54 41 41 42 48 42 37 38 38 39 38 38 39 35 32 30 30 32 32 32 31 30 25 24 27 26 26 28 21 24 24 22 22 23 24 25 27 30
55 53 42 41 39 41 39 40 44 40 34 33 33 33 34 34 34 34 31 29 26 27 27 25 23 22 23 23 23 21 21 25 25 22 22 22 19 20 20 21 23 23 24

GFSMA_sfc_dewp_063.txt.gz
Dewpoint
62 62 60 59 57 57 55 53 52 51 49 50 52 52 52 53 53 55 56 59 59 58 57 57 56 56 54 53 53 53 52 51 51 51 50 49 49 47 47 47 46 46 46
62 61 57 55 55 54 52 51 52 51 50 50 53 53 53 53 53 55 55 56 58 59 57 56 56 56 54 53 53 53 52 51 51 50 49 48 48 46 45 44 44 44 43
60 61 56 54 55 54 50 51 52 52 52 53 52 53 53 53 54 54 55 56 56 58 59 58 57 56 55 54 53 52 53 52 51 50 49 48 47 45 44 43 42 42 41
60 61 58 54 56 53 53 52 53 51 52 52 52 52 53 53 53 54 54 55 55 55 57 59 58 58 56 55 54 53 52 53 52 51 50 49 48 46 44 43 42 41 40
58 61 60 58 56 55 55 53 52 50 50 51 51 51 52 53 53 53 53 54 55 55 55 58 58 58 58 57 55 54 54 52 53 52 51 51 49 47 45 44 43 41 41
58 60 59 59 58 57 55 52 51 50 50 51 49 50 51 52 53 53 53 53 54 54 54 54 56 55 58 58 57 56 56 55 53 53 53 52 51 50 48 46 44 43 42
56 55 56 56 55 57 53 50 52 50 50 50 48 49 48 50 50 50 52 53 53 53 54 54 55 55 56 58 59 57 57 57 55 54 53 53 52 52 50 48 46 45 44
54 54 54 55 54 55 54 52 50 50 50 50 47 46 43 44 46 48 49 49 52 53 54 54 55 55 55 55 56 59 58 58 57 56 54 54 53 52 52 51 49 48 47
53 53 53 53 53 53 53 51 50 48 48 49 47 45 43 42 43 45 47 48 48 49 53 55 55 55 55 55 56 56 56 57 58 59 58 57 56 54 53 53 52 51 49
53 52 53 53 53 55 54 52 50 52 50 47 48 48 48 50 47 46 47 48 48 48 50 52 55 55 55 55 55 55 54 54 56 58 59 58 57 57 55 53 53 53 52
53 52 54 54 53 54 55 55 54 52 54 53 48 47 48 51 52 50 47 48 48 50 49 49 50 53 55 55 55 54 53 53 53 56 58 58 59 58 57 57 56 55 54
54 54 53 55 54 53 54 57 56 54 54 55 54 53 51 49 50 50 49 48 48 48 49 50 50 50 51 51 52 53 52 51 52 54 56 57 57 58 58 57 57 55 55
55 56 54 54 55 55 53 55 57 57 55 56 56 55 55 55 54 52 52 51 50 51 50 50 51 51 51 51 51 51 52 50 50 52 54 55 55 56 56 57 56 56 55
53 55 56 54 55 56 57 57 57 57 57 57 56 56 55 56 55 53 52 51 48 49 50 50 51 51 51 51 51 50 51 48 48 48 50 52 53 54 55 54 54 53 52
51 54 56 55 55 55 57 57 57 56 57 57 56 56 55 54 55 54 54 53 51 47 47 50 50 51 52 52 51 50 52 49 48 47 48 49 51 51 51 50 50 50 49
50 50 55 56 55 55 56 57 57 57 57 56 56 56 56 55 55 57 55 55 54 52 49 50 51 51 52 52 52 52 51 50 47 46 46 46 46 47 47 47 48 48 48
50 50 53 55 56 55 54 56 56 56 56 55 55 55 55 55 55 55 56 55 54 53 51 51 51 50 49 50 49 50 50 50 49 46 45 44 44 44 44 45 45 45 45
52 51 51 53 55 55 55 54 54 55 56 55 55 55 55 55 55 55 55 55 55 54 53 51 52 48 48 47 47 47 48 48 48 46 45 44 43 42 42 42 42 42 42
54 53 52 51 51 52 53 55 55 55 55 55 55 55 54 54 54 55 55 55 55 55 55 54 53 48 48 44 45 45 46 46 46 46 43 42 42 42 42 41 41 41 40
55 54 54 53 53 52 52 52 53 55 55 55 55 54 54 54 54 54 53 53 54 54 55 54 53 47 44 43 45 44 42 44 44 43 43 42 43 43 42 41 40 39 36
55 55 55 54 54 53 52 53 53 53 53 53 53 53 53 52 49 50 53 53 53 53 54 53 52 44 42 39 41 43 43 42 42 43 43 43 42 41 41 40 37 37 37
55 55 54 55 55 53 48 44 49 52 52 52 52 53 53 48 47 44 44 46 51 53 53 53 52 49 46 44 42 41 39 37 36 42 40 38 37 32 31 31 34 35 36
57 56 56 56 55 55 47 45 43 51 52 52 52 52 53 53 48 51 39 38 38 38 38 51 52 47 39 38 39 37 35 35 34 35 32 29 26 24 26 22 31 32 30
57 56 56 56 56 56 48 46 44 50 53 53 54 54 53 52 50 44 38 34 32 32 33 34 34 32 32 34 34 34 32 31 31 30 30 29 26 23 26 27 31 32 33
56 56 57 57 57 56 45 44 44 51 52 40 38 39 42 42 39 40 35 31 29 29 32 32 32 31 30 31 33 31 30 29 28 27 29 27 24 23 24 24 25 27 27
55 55 47 41 39 44 38 41 44 46 36 33 33 34 35 36 35 35 31 29 27 27 28 28 29 30 30 31 30 30 29 27 27 25 23 22 22 21 19 22 22 23 24

GFSMA_sfc_dewp_066.txt.gz
Dewpoint
63 62 61 61 60 59 57 54 52 49 50 52 53 53 53 53 54 55 56 59 59 58 58 58 57 56 55 56 54 53 53 53 52 52 51 50 49 48 48 48 48 48 48
62 61 60 58 58 57 55 52 51 48 49 51 53 53 53 53 54 55 56 57 59 59 58 57 57 56 55 55 54 53 52 52 51 51 50 49 48 47 46 46 46 46 45
61 60 57 56 56 54 51 51 52 50 49 51 53 53 53 53 54 55 55 55 57 58 58 58 57 56 55 55 54 54 53 52 51 51 50 49 48 47 46 46 45 44 44
60 58 55 54 53 52 49 51 52 51 50 52 53 53 53 53 54 54 54 55 55 55 57 59 58 58 56 55 55 54 54 53 52 52 51 49 48 47 46 45 44 44 43
60 57 55 55 52 51 49 51 53 51 51 52 52 53 53 53 54 53 53 54 55 55 55 58 58 58 58 57 55 55 55 54 54 53 52 51 50 48 47 46 45 44 43
60 60 56 57 53 52 50 52 52 52 51 52 50 51 52 53 53 53 53 54 54 54 54 55 56 55 57 58 58 57 56 55 55 55 54 53 52 50 49 48 46 45 44
58 60 57 57 56 55 53 52 51 50 51 52 50 49 49 52 53 53 53 53 53 54 54 54 55 55 55 58 58 57 58 57 57 55 55 54 54 52 51 49 48 47 46
57 58 58 56 57 57 55 52 51 50 50 51 49 48 46 45 48 51 53 53 52 53 54 54 54 55 54 55 56 59 58 58 58 57 56 56 55 54 53 52 50 49 48
55 54 57 55 56 56 54 51 51 49 49 50 49 48 43 43 44 45 48 51 53 53 53 54 54 54 55 54 55 56 57 57 59 60 59 58 57 56 54 54 53 51 50
55 54 55 54 55 55 55 53 51 49 49 48 48 47 46 47 44 42 47 47 48 51 53 54 54 54 54 55 55 54 53 54 56 59 60 60 58 58 57 56 54 54 53
55 53 53 55 53 55 56 55 52 50 49 51 48 47 47 50 50 48 46 47 48 48 49 52 54 55 55 55 55 54 52 52 53 56 58 59 60 59 58 57 57 56 55
53 54 52 53 54 54 55 55 53 50 50 50 52 50 48 47 49 49 48 47 47 47 49 49 50 54 55 55 55 53 52 51 52 54 56 57 58 59 59 58 58 57 57
52 53 53 54 54 54 54 56 55 52 51 53 53 51 52 51 51 51 50 49 48 49 49 49 50 50 51 53 54 53 53 50 50 52 53 55 56 57 58 59 59 58 58
52 53 53 53 54 53 53 54 56 56 54 55 55 55 54 55 54 53 52 51 47 48 48 49 50 51 52 52 51 49 51 49 49 49 51 52 53 55 56 57 58 58 58
54 55 54 53 54 55 55 55 53 55 56 55 55 55 55 55 56 56 54 52 50 46 46 49 50 51 51 52 51 51 50 49 48 47 48 50 52 53 53 54 55 55 55
52 53 56 55 55 54 55 56 56 56 55 55 56 56 56 55 55 55 54 53 53 50 48 49 50 52 52 51 51 51 50 50 48 47 47 48 49 50 51 52 52 52 52
51 51 54 55 55 54 54 54 55 56 56 55 55 56 55 55 55 55 55 55 54 53 51 51 51 51 51 51 51 51 52 51 51 47 46 46 46 47 48 48 48 48 48
51 50 50 54 55 55 54 53 52 52 55 55 55 55 54 55 55 55 55 54 54 53 52 50 51 49 49 50 52 51 51 51 51 48 46 46 46 45 44 44 44 44 45
52 51 50 49 51 54 55 54 53 53 53 55 55 55 54 54 54 54 54 54 54 54 53 53 51 52 51 44 46 46 48 49 49 48 45 44 44 44 44 43 43 43 43
54 53 52 51 50 49 51 53 54 54 53 53 54 55 55 54 54 54 53 54 54 53 53 53 53 53 51 47 45 46 47 47 48 48 46 45 44 44 43 42 42 42 42
55 54 54 54 53 52 50 50 51 51 52 53 53 54 55 53 50 51 53 53 54 53 53 53 53 53 49 41 44 48 47 49 45 46 45 44 43 43 43 42 42 42 41
55 54 54 54 54 53 48 45 48 51 51 51 52 54 55 49 49 45 45 46 50 53 52 52 52 52 52 49 49 49 46 38 38 42 41 40 41 39 40 41 41 39 39
55 55 55 55 53 54 47 45 43 51 52 53 52 52 52 52 48 52 44 41 37 36 38 48 52 52 51 51 50 39 37 36 34 34 35 32 34 33 34 31 33 35 34
55 55 55 55 55 54 47 44 43 50 52 52 53 53 53 52 52 51 44 35 33 33 34 35 36 33 34 35 37 36 34 32 32 31 33 30 32 31 32 32 33 32 30
55 56 56 56 55 55 48 46 45 53 53 52 52 48 49 52 48 44 39 32 30 30 33 33 33 33 33 34 34 34 32 31 28 28 29 29 28 28 28 29 32 27 25
45 52 56 56 52 55 46 43 46 54 53 51 37 36 37 42 39 39 39 32 28 28 30 29 29 29 30 30 30 31 31 29 27 25 25 26 25 24 22 22 22 25 24

GFSMA_sfc_dewp_069.txt.gz
Dewpoint
63 64 62 61 59 58 57 54 51 51 52 53 53 53 53 54 55 55 56 59 59 59 58 58 58 57 57 56 55 55 55 54 53 52 52 51 51 50 51 50 50 50 49
63 62 60 60 59 57 56 53 49 50 52 53 53 53 53 54 55 55 56 57 58 59 58 57 57 57 57 56 55 55 54 53 53 52 51 51 49 49 49 49 48 48 48
63 61 60 59 58 56 53 52 50 49 51 53 52 53 53 54 55 55 55 56 57 58 59 58 57 57 56 57 55 54 54 53 52 52 51 50 49 48 47 47 47 46 46
62 60 58 57 57 54 53 51 51 49 50 53 52 53 53 54 54 55 55 55 55 55 58 59 58 57 56 56 56 55 54 53 53 53 51 51 49 49 48 47 47 46 46
60 58 56 55 55 53 52 50 52 50 50 53 53 53 53 53 54 54 54 54 55 55 55 58 58 58 58 56 56 56 56 55 54 53 53 51 51 49 48 47 46 46 45
59 57 55 55 53 50 50 51 51 51 51 52 52 53 53 53 54 53 53 54 54 54 55 55 56 56 58 58 57 56 56 56 56 55 54 53 52 51 49 48 47 46 46
59 56 55 54 52 48 49 52 51 50 51 52 51 50 51 53 53 53 53 53 54 54 54 54 55 55 55 58 59 58 58 57 57 56 56 55 54 53 51 50 49 48 48
60 57 55 55 52 51 52 52 51 50 50 51 50 49 48 48 51 52 53 53 53 53 54 54 54 55 54 55 56 59 58 59 58 57 57 57 57 55 54 53 51 50 49
59 60 56 56 55 53 53 52 51 50 49 50 50 49 45 47 47 48 51 53 52 53 53 53 53 54 55 54 55 56 57 57 59 60 60 59 58 58 57 55 54 53 51
58 58 59 57 57 56 55 53 51 50 50 49 48 48 47 48 47 45 47 50 52 52 52 53 53 53 54 54 55 54 53 54 56 59 60 60 60 59 58 58 57 55 54
57 56 57 57 56 57 56 55 52 49 50 51 48 48 48 49 49 48 45 46 48 50 53 53 54 54 54 54 54 54 52 52 53 56 58 59 60 61 60 59 58 58 57
57 56 57 56 56 56 56 56 54 52 51 51 51 50 49 49 49 49 47 47 46 47 48 50 53 54 55 55 55 53 52 51 52 54 56 57 58 59 60 60 59 59 58
56 55 55 56 55 56 56 57 56 55 52 51 51 50 51 50 50 50 50 48 48 49 48 49 49 50 53 55 55 53 53 50 51 52 53 55 56 57 58 59 59 60 60
55 54 55 56 56 56 56 56 56 55 55 53 52 52 50 50 51 50 49 48 46 47 48 48 50 50 51 51 53 51 54 50 49 50 51 52 53 55 55 56 57 58 59
54 53 53 55 56 56 55 55 56 55 55 52 52 54 53 52 53 53 52 51 48 46 46 48 49 51 51 52 51 51 52 51 49 48 49 50 51 53 53 54 55 56 57
53 54 53 53 54 55 55 54 53 53 55 53 53 53 54 53 55 55 54 53 53 51 48 48 49 51 51 52 52 51 51 50 48 46 46 47 49 50 51 52 53 54 55
52 53 55 54 53 54 54 53 52 52 52 53 54 54 54 54 54 55 55 54 54 53 51 51 51 51 49 51 51 51 51 51 50 47 46 46 46 47 48 49 50 51 51
53 52 52 55 55 53 53 53 54 54 55 54 53 53 54 54 55 55 55 54 54 54 53 51 51 51 49 51 51 50 51 51 51 49 47 46 46 46 46 46 47 47 48
52 52 51 51 53 54 54 53 52 52 52 54 54 54 54 54 54 54 55 54 54 54 54 53 51 52 51 46 48 47 49 49 51 50 46 45 46 46 46 45 46 46 45
53 52 51 51 51 51 53 54 53 53 52 51 51 52 53 54 53 53 53 54 54 53 53 52 52 51 52 49 46 49 49 48 49 50 48 46 45 45 45 44 44 44 44
54 53 53 52 51 50 49 50 51 53 52 52 52 52 52 52 49 51 52 53 53 52 52 52 52 52 52 48 48 51 49 51 51 49 49 48 47 45 44 43 43 43 43
55 55 54 54 53 52 47 44 46 49 50 51 51 52 52 48 48 45 45 46 49 52 52 52 51 51 51 52 52 50 51 48 46 43 44 40 42 41 41 42 42 42 41
55 55 55 55 54 54 46 45 43 50 50 50 50 51 51 52 49 53 47 43 44 43 45 52 52 52 52 52 52 50 49 50 47 35 37 32 35 33 35 35 36 36 36
47 51 55 55 55 55 47 46 46 52 53 52 51 51 51 51 51 52 52 50 48 47 39 40 46 48 41 39 41 42 42 33 32 31 33 32 32 31 33 33 35 35 35
43 44 46 47 52 55 48 44 45 52 53 53 53 53 53 52 49 46 49 49 38 33 34 35 34 34 33 34 36 36 33 34 29 26 28 30 27 28 29 30 32 31 30
40 41 40 36 35 34 36 36 39 51 52 52 52 51 36 35 37 41 49 49 38 31 30 28 28 28 29 30 30 30 32 29 27 24 26 26 26 26 24 27 27 27 26

GFSMA_sfc_dewp_072.txt.gz
Dewpoint
62 61 62 62 61 59 56 54 54 55 54 54 54 54 54 55 55 56 57 59 59 59 58 57 57 57 57 57 56 56 55 55 55 54 54 53 53 53 52 52 52 52 51
63 61 62 61 59 58 55 52 53 53 53 54 54 54 54 55 55 56 56 57 59 59 59 57 57 57 57 57 56 56 55 54 54 53 53 52 52 52 52 51 51 50 50
62 62 61 60 59 57 54 51 50 53 53 53 53 54 54 55 55 56 56 56 57 58 59 59 58 57 57 56 56 56 55 54 53 53 52 51 50 50 50 50 49 49 48
63 62 61 59 57 56 53 50 50 52 53 53 53 53 54 54 55 55 56 56 56 56 58 58 59 58 57 57 56 56 55 54 54 53 52 51 50 50 49 49 48 48 47
62 61 60 59 56 55 53 50 50 51 53 52 52 53 54 54 54 55 55 55 55 55 56 58 58 58 58 57 57 56 56 55 54 54 53 52 51 50 49 48 48 48 47
61 60 58 57 56 54 53 51 50 51 53 53 52 52 53 54 54 54 54 54 55 55 55 56 57 57 57 58 57 57 57 56 55 55 54 53 52 51 50 49 49 48 48
59 57 56 55 53 52 52 51 50 50 52 53 52 51 51 53 53 54 54 54 54 55 55 55 55 56 56 58 59 57 57 58 57 57 56 55 54 53 52 51 50 49 49
58 57 56 53 52 50 51 51 50 50 52 53 51 50 48 50 52 53 53 53 54 54 54 54 55 55 55 56 57 59 58 59 58 57 57 58 57 56 55 53 52 51 50
59 58 57 53 52 49 50 52 51 50 50 51 52 50 47 48 49 51 52 53 53 53 54 54 54 54 55 55 55 56 57 57 60 60 60 59 59 58 57 56 55 54 53
60 58 57 56 52 51 52 51 52 51 51 50 49 49 49 49 49 47 49 52 53 52 53 54 54 54 54 55 55 54 53 54 56 59 60 61 61 60 59 59 58 57 55
59 59 57 57 55 55 55 54 53 51 51 51 50 48 48 49 49 48 47 47 49 52 53 53 53 54 54 54 54 54 52 52 53 56 58 59 61 61 61 60 59 59 58
58 58 59 57 57 57 56 55 54 52 52 52 51 50 50 48 48 49 47 48 47 48 51 53 53 53 54 54 54 53 52 51 51 54 56 57 58 59 60 61 61 60 59
56 56 58 57 58 56 57 56 54 53 52 52 52 50 52 51 52 50 50 48 48 49 49 50 52 53 54 55 55 53 53 50 50 52 53 55 56 57 58 59 60 61 61
57 56 57 57 57 57 57 57 56 55 55 54 53 53 51 51 51 50 49 48 47 48 49 49 50 50 52 53 54 52 54 50 50 50 51 52 53 54 55 56 57 58 59
56 56 56 57 56 57 57 57 57 56 56 56 55 54 53 51 52 51 51 51 48 45 45 48 50 51 51 51 51 52 54 52 49 49 49 50 51 52 53 54 55 56 56
55 54 54 55 56 56 56 56 56 56 56 56 55 54 54 53 52 53 50 51 51 47 44 48 50 52 52 51 51 51 52 50 48 47 47 48 49 50 51 52 52 53 54
54 53 53 54 54 55 56 56 55 54 55 55 55 54 53 53 52 53 54 53 52 52 49 49 52 51 51 51 52 52 52 52 52 47 46 46 46 47 47 48 49 50 51
53 53 54 53 53 54 54 55 54 53 53 53 54 53 52 52 52 52 53 53 53 54 53 51 51 53 50 52 52 52 51 51 52 49 47 46 46 45 45 46 46 47 48
52 52 52 54 54 54 53 53 54 53 52 52 51 51 52 53 53 53 54 54 54 54 54 53 52 53 53 51 50 50 51 52 51 50 47 46 45 45 45 45 45 46 46
52 52 52 52 52 53 54 53 53 53 53 53 54 53 53 52 52 51 52 53 53 54 54 53 53 53 53 53 49 50 50 49 50 50 49 48 47 47 45 45 45 45 45
54 53 52 52 52 52 51 52 53 53 53 52 52 51 52 52 49 51 52 52 53 53 52 52 51 51 51 51 49 51 50 51 52 52 52 51 50 48 48 45 46 45 44
56 55 54 53 53 51 46 44 47 51 51 52 52 52 52 48 47 44 44 45 48 50 51 51 50 49 50 50 51 52 51 50 49 50 50 49 43 41 40 41 43 42 42
47 48 52 55 55 54 47 45 42 50 50 50 50 50 50 51 48 51 47 42 43 42 44 50 50 50 50 51 52 51 51 51 51 44 41 35 35 33 36 36 36 37 37
43 44 45 45 44 41 35 35 37 48 52 52 52 52 52 52 51 51 51 51 49 48 48 48 50 50 39 38 43 46 47 43 32 30 33 32 32 31 32 33 34 34 33
40 41 37 36 33 34 33 35 36 41 50 52 53 53 53 53 49 46 49 49 49 38 34 35 34 31 31 32 34 38 36 35 31 26 27 30 28 28 28 27 29 31 31
36 35 31 30 30 30 32 34 35 38 41 46 49 34 33 34 35 38 43 49 49 36 29 28 27 27 27 27 28 27 31 32 29 24 25 26 25 27 23 27 26 27 27

GFSMA_sfc_dewp_075.txt.gz
Dewpoint
64 63 62 64 63 61 62 61 60 59 59 57 57 56 56 56 56 54 54 59 59 58 58 59 59 59 58 59 57 56 56 56 55 56 55 55 55 54 54 53 53 53 53
64 62 63 63 61 60 60 59 58 58 57 56 56 56 56 56 56 56 54 55 59 60 60 59 59 58 58 57 56 56 56 55 55 55 55 54 54 53 53 53 53 52 52
63 62 62 62 61 59 57 57 57 57 56 55 55 56 55 56 55 56 56 55 56 58 59 59 59 57 57 57 56 56 56 55 55 54 53 53 53 53 52 52 52 51 51
63 62 61 61 61 57 56 55 56 55 55 54 54 54 54 55 55 56 56 55 54 53 57 59 59 59 57 56 56 56 56 55 54 53 53 52 52 52 52 51 51 50 50
63 63 61 61 59 57 55 54 55 56 55 54 53 54 54 54 55 55 56 56 57 55 54 58 58 58 59 58 56 56 56 55 55 54 54 53 52 51 51 50 50 49 49
62 62 61 59 59 57 54 53 55 55 55 54 51 53 54 54 55 55 55 55 56 57 56 56 56 55 57 59 58 57 57 57 56 55 55 54 53 52 51 50 50 50 50
63 61 59 58 59 57 55 55 54 55 54 55 53 53 54 55 55 55 55 55 55 56 56 56 56 55 55 58 59 58 58 58 57 56 56 56 54 54 53 52 51 51 50
61 60 59 58 57 57 56 55 55 54 54 55 52 52 50 52 53 54 54 55 55 54 55 56 56 56 56 55 56 59 58 58 58 58 57 58 57 57 55 54 53 52 52
59 58 58 57 56 56 55 54 54 54 52 54 55 52 50 49 51 53 54 54 55 55 54 55 55 55 56 55 56 57 57 58 60 60 60 60 59 59 58 57 56 55 54
59 58 56 56 55 55 55 55 53 53 53 53 54 52 54 53 50 50 52 54 54 54 55 54 54 55 55 55 55 54 54 54 56 59 61 61 61 60 60 59 59 58 57
59 58 57 56 54 53 55 55 55 54 54 54 53 52 52 51 53 52 50 50 52 53 54 55 55 55 55 55 56 55 53 52 53 56 58 59 61 61 61 60 60 59 59
60 58 58 57 55 54 54 54 54 55 54 55 54 54 52 50 49 49 48 50 50 50 52 54 56 55 55 56 55 53 52 51 52 54 55 57 58 59 60 61 61 61 60
58 59 58 58 57 56 55 55 54 54 54 54 56 53 54 53 53 49 51 48 46 49 50 52 54 55 54 56 56 53 53 50 50 52 53 54 56 57 58 59 60 61 61
57 58 59 58 57 57 57 56 55 54 54 56 56 56 53 54 53 52 50 50 48 49 52 50 52 54 55 55 56 52 55 50 49 50 51 52 53 54 55 56 57 58 59
57 57 58 58 58 57 57 57 56 55 54 54 55 56 54 53 54 53 52 52 47 45 44 49 50 54 53 53 54 56 56 53 50 49 49 50 51 52 53 53 54 55 56
58 57 58 57 57 57 57 57 57 56 55 56 56 55 55 55 54 54 52 53 53 48 45 47 50 53 55 53 53 54 55 52 49 48 47 48 49 50 51 51 52 53 54
56 56 56 57 56 57 57 57 57 57 56 55 55 55 55 55 55 55 54 53 52 52 50 49 50 53 55 55 54 55 54 53 53 47 46 47 47 47 48 48 49 50 51
56 55 55 56 56 56 57 57 56 56 56 55 56 55 55 55 55 55 54 53 54 54 52 51 51 51 55 56 56 56 53 51 53 49 47 47 46 45 45 45 46 47 47
56 55 54 54 55 55 56 56 56 56 56 56 56 56 55 55 54 54 54 53 53 52 53 52 52 52 53 55 56 56 55 55 53 50 47 46 46 46 46 45 45 45 45
55 55 55 55 55 54 54 54 55 56 56 55 55 55 55 55 55 55 55 55 54 53 53 53 53 54 54 54 55 55 54 55 53 52 50 48 48 47 46 45 45 45 44
54 54 54 54 55 54 54 55 54 54 54 55 56 54 55 54 49 51 52 54 54 54 53 52 52 53 53 53 54 54 54 54 54 55 55 55 55 55 54 47 47 45 45
48 53 54 54 53 48 36 38 45 54 54 54 54 55 55 50 50 44 44 45 49 52 52 52 51 50 51 53 53 53 53 53 52 55 54 53 50 43 38 38 40 42 43
45 45 44 44 42 35 35 36 36 43 50 52 53 53 53 53 50 53 47 42 43 43 44 50 50 50 50 51 51 51 51 51 51 52 49 50 36 32 34 34 36 36 37
42 39 37 35 36 33 34 34 34 41 45 48 51 52 52 51 51 50 52 52 50 50 47 47 49 50 41 34 37 44 46 46 34 30 33 32 32 29 30 32 32 32 32
37 33 32 31 32 31 32 32 34 39 42 44 36 34 33 35 36 37 41 48 49 36 33 32 32 31 29 29 31 38 37 37 33 27 27 30 28 25 26 26 29 31 31
31 30 29 30 30 30 30 31 33 38 38 34 30 29 31 32 33 33 37 38 34 30 29 27 26 25 26 26 27 27 30 34 32 28 26 27 26 28 23 27 27 27 27

GFSMA_sfc_dewp_078.txt.gz
Dewpoint
63 65 65 65 64 65 64 66 63 62 61 59 58 58 57 55 55 52 55 60 61 61 59 58 57 58 58 59 58 57 56 56 56 56 56 55 55 55 55 55 54 54 54
64 63 63 64 64 63 64 64 61 62 59 57 58 57 56 54 54 53 52 56 59 60 60 59 59 59 59 58 57 56 56 56 56 56 56 55 55 54 54 54 54 53 53
65 63 62 64 63 63 63 63 61 60 57 56 57 56 55 54 52 53 51 53 55 59 60 61 60 59 59 58 57 56 56 56 55 55 55 55 54 54 54 54 53 52 52
64 63 62 62 62 61 62 62 59 58 57 55 55 54 54 53 53 53 52 52 54 54 58 59 59 59 59 58 57 56 56 55 55 55 54 54 54 54 53 53 52 52 52
63 63 63 63 61 60 61 60 58 57 56 54 54 53 54 53 53 50 52 53 54 53 54 58 59 58 59 58 56 57 56 56 55 55 54 54 53 53 53 52 52 52 51
63 63 63 61 61 59 59 59 59 58 55 54 51 52 54 54 54 53 52 52 52 53 52 55 55 54 58 59 58 56 57 57 56 56 55 55 54 53 52 52 52 51 51
63 63 62 60 61 58 58 58 57 57 55 55 52 53 54 54 55 53 54 52 52 53 54 53 52 51 54 58 59 57 57 57 57 57 56 56 55 54 53 53 52 52 52
63 62 61 60 59 58 58 59 58 55 55 55 52 52 51 53 54 55 54 53 54 52 52 53 53 53 52 53 54 59 59 58 58 58 57 58 58 57 55 55 54 53 53
61 61 61 60 59 59 58 58 58 57 54 55 54 50 49 47 51 53 55 54 54 54 52 53 53 53 54 53 54 55 57 57 60 61 61 60 59 59 59 58 57 55 55
60 60 60 60 59 60 58 58 56 57 55 54 54 51 51 48 48 51 53 54 54 54 55 53 53 54 53 53 55 53 53 54 56 59 61 61 61 61 60 60 59 59 58
59 59 59 59 59 59 60 59 58 57 56 54 54 54 54 53 52 47 47 52 54 53 54 55 54 54 55 55 55 55 52 52 53 56 58 60 61 62 62 61 60 60 60
59 59 58 58 58 57 58 59 58 57 56 55 55 55 52 51 50 48 47 49 51 53 53 54 57 57 55 55 55 53 52 51 51 54 56 57 58 59 60 61 62 61 61
59 58 58 57 56 56 57 57 58 57 56 55 56 54 55 53 51 49 48 45 47 49 52 54 55 55 54 57 57 53 53 50 50 52 53 55 56 57 58 59 59 60 61
59 60 59 57 57 55 55 56 56 56 57 57 57 56 55 55 53 52 50 49 44 46 46 48 50 54 56 57 56 52 55 50 49 50 51 52 53 54 55 56 57 58 59
58 59 59 59 58 57 55 55 55 55 55 56 56 56 55 54 55 54 53 50 49 48 44 47 48 52 54 53 53 56 57 53 49 48 48 50 51 52 53 53 54 55 56
58 58 59 58 58 58 58 56 55 55 54 54 55 55 55 55 55 54 52 54 53 51 47 48 47 50 52 50 52 56 55 52 49 48 47 48 49 50 51 51 52 52 53
58 57 58 58 58 58 57 57 56 55 54 54 55 54 54 55 55 55 56 55 54 54 51 51 51 51 53 54 52 54 53 55 54 48 47 47 47 47 48 48 49 50 51
57 58 58 58 57 57 57 57 57 57 55 53 54 55 54 55 55 55 55 55 54 54 52 50 52 51 52 54 55 56 53 51 54 50 47 46 46 46 46 46 46 46 47
56 56 56 56 57 57 57 58 57 57 57 57 56 54 54 53 53 54 54 54 54 53 54 52 52 53 53 54 54 55 55 57 54 50 48 46 46 46 45 45 45 45 45
56 55 55 55 55 56 56 57 57 57 57 57 57 57 57 56 56 56 56 56 55 55 55 55 54 53 53 53 54 53 54 55 55 52 49 48 48 47 46 46 45 45 45
55 55 55 55 56 49 39 42 54 56 56 56 57 56 56 54 50 52 56 57 56 55 55 54 53 53 53 53 53 54 54 54 55 56 56 56 55 55 46 42 42 43 44
48 47 45 43 41 36 35 36 39 50 53 54 54 55 55 50 50 45 45 45 50 54 54 53 53 52 52 52 53 53 52 52 52 56 55 54 41 35 35 36 37 39 40
42 40 40 39 35 33 34 34 34 39 45 49 51 49 51 53 48 51 48 43 43 42 42 49 51 52 52 52 48 51 52 51 51 47 43 48 33 31 32 33 34 34 34
37 35 35 35 33 31 32 33 34 40 44 38 34 34 36 38 36 36 40 45 50 37 35 39 37 32 30 31 33 38 40 40 37 34 35 32 29 27 30 31 33 33 33
34 33 32 32 32 30 31 32 37 43 37 33 31 30 31 31 32 33 39 41 37 30 31 30 29 28 28 28 28 34 35 36 37 33 28 32 28 27 27 28 30 30 31
31 31 30 32 31 31 29 30 34 34 31 29 28 28 28 28 29 30 33 36 29 27 26 25 25 25 24 24 25 24 24 30 32 30 25 28 28 28 24 28 28 30 29

GFSMA_sfc_dewp_081.txt.gz
Dewpoint
65 63 62 64 63 65 65 65 65 65 62 60 58 58 54 54 53 54 56 62 62 62 60 60 59 59 59 58 58 58 56 57 57 57 57 56 56 56 56 56 55 55 54
64 64 62 63 65 65 64 63 64 64 62 59 57 56 55 53 53 53 54 59 60 61 61 59 59 59 59 59 58 57 56 56 56 56 56 56 56 55 55 55 54 54 53
65 64 64 64 64 64 63 63 63 64 59 57 56 57 53 53 52 52 53 56 57 59 60 61 61 59 59 59 57 56 56 56 56 55 56 56 55 55 54 54 54 54 53
65 64 63 63 64 63 63 63 62 62 59 55 55 53 52 51 52 52 51 52 53 53 58 60 61 61 60 59 57 56 56 56 56 56 56 55 55 55 54 54 54 53 53
64 64 63 63 63 63 62 62 62 61 57 56 55 52 54 51 51 49 51 53 55 54 55 59 59 59 60 60 57 57 57 56 56 56 55 55 54 54 54 54 54 53 53
64 64 63 62 62 62 61 62 61 60 56 55 51 52 57 54 50 50 51 51 52 54 53 55 55 55 59 59 59 57 57 57 56 56 55 55 54 54 54 54 53 53 53
64 64 62 61 61 61 61 61 60 58 58 56 55 54 57 57 57 50 50 49 50 51 53 56 54 52 54 59 59 58 57 58 57 57 56 56 56 55 54 54 53 53 53
63 62 62 61 61 60 59 59 60 58 56 56 53 52 53 53 55 55 53 50 53 51 51 53 53 52 53 54 55 60 58 58 58 58 57 58 59 58 56 55 55 54 54
62 63 62 61 60 59 58 58 59 57 55 57 55 51 49 48 51 55 55 54 55 52 51 51 52 52 53 52 55 56 57 58 60 61 60 60 59 59 59 58 58 57 56
62 62 61 60 60 59 58 59 60 59 57 54 55 52 53 48 48 51 53 54 53 52 54 51 52 53 54 53 55 54 54 54 56 59 61 61 61 60 60 60 59 59 59
61 61 61 60 59 59 59 59 59 59 57 56 54 54 54 53 54 50 49 52 54 52 53 55 53 54 54 54 55 54 52 52 53 56 58 60 61 62 61 61 61 60 60
59 59 60 60 60 59 59 59 59 59 58 57 56 55 53 53 51 49 49 51 52 52 53 55 56 56 56 55 55 53 52 50 51 54 56 57 58 60 61 62 62 62 61
58 58 58 58 59 60 60 59 59 59 59 57 57 55 55 55 53 52 53 49 50 51 53 55 56 57 56 58 57 53 53 50 50 52 54 55 56 57 58 59 59 60 61
59 59 58 58 58 58 59 59 59 58 59 59 58 57 56 56 55 54 53 51 47 47 48 52 56 57 57 57 56 52 56 50 49 49 51 52 53 54 55 56 57 58 58
60 60 59 57 57 57 57 58 58 58 59 59 58 58 57 56 57 56 53 52 52 48 46 50 50 54 54 54 54 57 58 53 49 48 48 50 51 52 53 53 54 55 56
58 59 59 59 57 56 56 56 56 56 55 56 57 56 57 56 56 55 53 54 54 52 49 51 51 51 54 50 53 57 57 53 50 48 47 48 48 50 51 51 52 52 53
58 58 59 59 58 57 56 55 55 54 54 54 55 55 54 55 55 54 55 55 54 54 52 51 51 53 55 55 53 55 55 56 55 48 48 47 47 47 48 48 49 50 51
57 58 58 57 58 58 57 57 56 55 53 53 53 53 53 52 54 53 54 54 54 54 53 51 52 52 53 54 53 53 52 50 53 49 47 46 46 46 46 46 46 47 47
57 57 58 57 57 58 58 57 57 56 55 54 54 54 53 54 53 54 54 54 53 53 53 52 51 51 52 53 53 53 53 54 52 50 47 46 46 46 46 45 45 46 46
56 56 56 57 57 56 54 55 57 57 57 57 57 57 55 53 53 54 54 54 54 54 53 53 52 53 54 55 55 54 54 55 54 52 49 48 48 47 45 42 43 44 44
51 50 54 47 42 39 36 39 47 55 57 57 58 57 57 55 51 52 55 55 56 55 55 55 55 55 55 55 54 54 54 54 55 55 55 56 54 43 38 37 39 40 41
43 43 40 38 37 34 34 35 37 48 52 52 52 49 51 43 42 40 41 41 44 51 54 54 53 53 54 55 55 54 54 54 52 52 48 52 38 34 34 35 36 37 37
38 38 37 35 33 33 34 35 35 42 42 38 37 37 40 38 35 36 39 40 35 34 36 42 46 45 38 34 35 40 45 44 44 37 41 39 33 31 32 33 35 35 35
35 35 35 34 32 31 33 34 35 39 35 32 31 33 33 32 31 33 37 42 32 30 30 30 29 28 28 28 29 33 35 37 37 34 34 37 32 29 31 32 33 33 33
34 33 32 33 31 30 32 33 38 35 32 30 29 29 30 30 30 33 38 36 30 28 29 29 28 27 28 28 27 31 28 31 34 31 26 28 30 28 28 28 30 31 30
32 32 30 30 31 29 30 32 34 32 30 28 28 28 28 28 29 31 33 30 26 26 25 25 25 26 25 26 26 26 26 27 25 28 26 28 29 28 26 28 30 30 30

GFSMA_sfc_dewp_084.txt.gz
Dewpoint
65 65 64 64 64 65 65 65 64 64 64 63 61 59 56 55 58 59 60 62 63 62 61 60 60 59 59 59 58 58 57 56 57 58 58 57 58 56 58 57 57 56 55
65 64 64 64 64 64 65 64 64 64 63 62 61 58 55 54 56 57 59 60 61 62 61 60 59 58 58 59 59 58 57 57 56 56 57 57 57 58 58 56 55 55 55
65 63 63 63 63 64 64 63 63 63 63 63 59 57 55 54 53 56 57 58 59 60 60 60 61 59 58 60 58 57 56 56 56 56 57 56 56 56 56 55 55 55 54
65 64 63 63 64 64 63 62 62 62 62 61 56 55 53 53 53 54 56 56 57 56 59 60 61 61 61 59 56 57 56 57 57 56 57 56 56 56 55 55 55 55 54
64 64 63 64 63 63 62 62 62 62 61 60 54 54 53 52 53 51 54 54 55 55 56 60 60 60 60 60 57 57 56 56 56 56 57 56 56 55 55 55 55 54 54
64 64 63 63 63 62 62 62 61 62 60 58 51 53 54 52 52 53 53 53 54 55 56 57 58 58 59 60 59 57 57 57 57 57 57 56 55 55 55 55 55 54 54
64 64 63 62 62 61 61 61 61 60 60 57 55 55 55 55 53 52 54 54 53 54 55 56 56 55 57 59 60 58 57 57 57 57 57 56 56 56 55 55 55 54 54
64 63 63 62 61 61 61 60 60 59 59 58 52 53 51 53 55 54 53 51 53 53 54 55 54 53 54 56 57 59 59 58 58 58 58 59 59 58 56 56 55 55 55
62 63 63 61 61 61 60 60 60 59 57 58 53 51 51 49 52 55 54 54 54 53 51 54 54 53 54 54 56 57 57 57 60 60 60 60 59 59 59 58 57 57 56
62 62 62 61 61 60 60 60 60 59 58 55 56 53 52 51 49 50 54 54 55 53 54 54 52 53 53 55 55 55 54 54 56 60 61 61 61 60 60 60 59 59 59
62 62 61 61 60 60 59 59 60 59 59 56 53 54 52 53 51 51 50 53 54 54 53 54 54 53 53 54 55 55 53 52 53 57 59 60 62 62 61 61 60 60 60
59 60 61 60 60 60 59 59 60 59 59 58 56 55 54 53 52 52 51 52 51 53 52 54 54 55 54 54 54 52 51 51 51 54 56 57 59 60 61 62 62 61 61
58 59 59 59 59 59 59 58 59 59 59 58 55 55 55 54 53 53 52 52 52 53 55 54 55 54 55 57 55 52 52 49 50 52 53 55 56 57 58 59 60 62 62
58 59 59 59 59 59 59 59 58 59 59 58 57 56 56 56 55 54 53 52 50 50 53 54 55 56 56 56 55 53 55 50 49 49 50 52 54 55 55 56 57 58 59
59 58 58 58 58 58 59 59 58 58 58 58 57 57 56 57 56 55 55 55 52 50 49 50 53 55 56 57 56 56 56 53 49 48 48 49 51 52 53 54 55 55 56
59 59 58 57 57 57 57 58 58 58 58 58 57 56 56 56 56 56 55 54 53 52 49 51 50 52 54 52 53 55 56 53 50 48 47 48 48 50 51 51 52 53 53
59 59 59 57 56 56 57 57 56 56 56 55 55 55 55 56 55 55 55 54 53 51 51 51 50 50 51 53 52 54 55 55 55 48 47 47 47 47 48 48 49 50 51
59 58 59 58 57 56 56 56 55 55 55 54 55 55 54 55 55 55 55 54 53 51 49 48 51 51 51 52 53 54 53 52 51 49 48 48 47 46 46 46 46 47 47
58 58 58 58 58 57 56 56 55 55 54 53 53 53 53 54 53 53 53 52 53 53 53 52 50 49 50 51 51 51 51 52 52 50 47 45 46 46 46 43 43 43 44
57 57 55 49 47 44 45 49 56 56 55 55 54 54 54 53 53 52 51 52 53 52 52 51 51 51 51 51 51 51 51 53 53 53 50 48 43 40 39 39 40 41 40
46 46 42 41 39 37 36 37 43 53 57 56 56 56 50 44 41 42 51 51 53 53 53 53 52 52 52 53 54 55 55 55 55 47 50 43 40 37 36 37 38 38 38
40 38 36 36 36 34 35 36 38 49 44 43 42 42 42 37 38 38 37 35 35 44 48 50 51 52 51 40 41 41 44 47 48 41 43 42 37 34 34 34 36 36 36
37 35 35 34 33 34 35 38 38 37 35 35 35 35 35 33 33 35 37 33 32 32 32 37 39 31 32 30 32 36 40 40 41 35 38 41 34 32 32 33 33 33 33
35 35 33 32 32 33 37 36 35 34 32 31 31 32 32 31 32 35 37 31 30 30 30 29 29 29 29 29 29 32 35 35 35 28 29 33 32 29 30 31 32 32 31
33 33 32 31 31 31 34 36 34 32 30 29 29 30 29 30 32 37 33 30 27 28 29 29 28 28 28 28 28 29 27 31 33 27 27 28 28 27 28 28 30 29 29
32 30 29 30 29 29 32 33 32 31 29 28 28 28 29 28 29 30 29 27 25 25 26 26 27 28 29 28 28 27 28 26 23 26 24 27 26 23 23 21 28 28 26

GFSMA_sfc_dewp_087.txt.gz
Dewpoint
64 63 62 63 64 64 65 64 64 65 64 63 61 61 59 59 59 61 62 62 63 63 62 62 62 61 60 59 58 57 58 59 58 59 59 59 57 57 58 58 57 57 56
64 63 63 62 63 64 65 64 64 64 64 64 62 61 58 58 58 60 61 61 61 62 62 61 59 60 60 59 60 57 57 57 57 59 58 57 58 58 58 57 57 56 56
64 64 64 63 63 64 64 63 62 62 63 63 62 61 57 57 58 59 60 60 60 60 61 61 61 60 59 59 58 57 57 57 57 58 57 57 57 57 57 56 56 55 55
65 63 63 63 63 63 63 62 62 61 62 62 61 61 55 56 57 58 59 59 58 58 59 60 61 60 60 59 57 58 57 56 56 57 57 57 57 57 57 56 56 55 55
64 63 62 62 63 63 62 61 61 61 61 61 61 59 52 54 55 57 57 57 57 56 57 59 59 59 60 60 57 57 57 57 57 57 57 57 57 57 56 56 56 55 55
63 62 61 62 62 62 61 60 61 61 61 61 61 57 51 52 53 56 55 56 55 55 57 58 58 58 59 59 58 57 57 58 58 57 57 57 57 57 56 56 56 55 55
63 61 62 62 62 61 61 61 61 60 60 61 57 55 53 51 50 54 54 54 54 54 57 58 58 57 58 59 59 58 57 58 58 58 58 57 57 57 56 56 56 55 55
62 62 62 62 61 61 61 61 60 60 60 60 55 52 51 52 53 52 53 53 53 54 55 56 57 56 56 57 57 59 59 58 58 58 58 59 58 57 56 56 56 56 55
62 62 62 62 61 61 61 61 60 59 58 59 57 51 49 48 52 54 52 53 53 54 54 55 55 54 55 55 57 57 57 57 60 60 60 59 59 59 58 57 57 56 56
62 62 62 62 61 61 61 60 60 59 59 57 56 52 52 52 48 49 53 52 54 53 53 55 54 54 54 54 55 55 55 54 56 60 61 61 60 60 60 60 59 59 58
61 61 61 61 61 61 61 61 60 59 59 58 55 53 51 52 52 51 49 51 53 54 53 54 55 54 53 54 54 54 53 53 53 56 59 61 61 61 61 61 61 60 60
60 61 61 61 61 61 60 60 60 59 59 58 57 55 52 52 51 51 50 51 49 52 53 53 54 54 53 54 55 53 52 51 52 54 56 58 60 61 62 62 61 61 61
57 58 60 60 60 60 60 60 60 59 59 58 57 56 56 53 53 53 52 53 52 52 52 53 53 53 54 54 54 52 52 50 50 52 54 55 56 58 59 61 61 62 62
57 58 58 60 59 60 59 59 60 59 59 58 57 57 57 56 55 54 53 52 49 52 53 53 55 54 54 55 55 51 52 48 49 50 51 52 53 54 55 56 57 58 59
58 58 58 59 59 59 59 59 59 58 58 58 57 57 57 57 56 56 55 53 50 47 48 51 54 56 56 56 55 55 55 53 48 48 48 49 51 52 53 54 55 55 56
58 58 58 58 58 58 59 58 57 58 58 58 57 57 56 56 56 56 54 53 53 51 49 51 51 52 57 58 57 57 56 53 50 48 48 47 48 50 51 51 52 53 54
58 58 58 57 57 57 57 58 58 57 57 57 57 56 56 55 55 55 54 53 53 52 50 50 51 52 51 52 53 54 55 56 55 49 48 47 47 47 48 49 49 50 51
59 58 58 57 56 57 57 56 57 57 56 56 55 55 55 55 54 55 55 54 54 53 52 49 49 49 51 52 52 53 52 53 54 51 49 48 47 47 46 44 44 44 45
58 58 58 58 57 56 56 56 56 56 56 56 55 55 55 55 54 54 54 53 53 53 52 51 49 50 52 50 50 50 51 51 51 49 47 42 42 42 41 41 41 41 42
52 48 47 46 46 45 48 54 56 55 55 55 55 55 54 54 54 53 53 52 52 51 53 52 51 50 49 49 51 50 50 53 53 49 41 40 39 39 39 39 40 39 40
43 43 41 40 40 39 38 43 51 54 55 53 52 44 42 41 39 40 51 50 51 52 52 52 51 51 51 52 51 48 50 50 47 44 48 43 39 37 37 37 37 37 37
38 37 36 37 37 37 37 38 43 42 42 42 42 41 38 38 37 36 35 34 34 40 47 48 50 46 42 37 37 39 41 45 45 35 38 40 36 33 34 35 35 35 35
35 35 35 35 37 37 36 36 36 35 34 35 35 36 34 34 37 34 33 32 32 32 31 37 33 31 31 30 31 36 39 39 39 31 34 35 32 30 33 34 33 33 33
33 33 32 33 35 36 35 34 33 32 31 31 31 31 32 34 36 34 31 30 29 30 30 30 29 29 29 29 29 31 32 33 31 28 28 31 31 28 30 30 31 31 31
32 31 31 31 32 34 35 34 31 30 29 29 30 30 30 32 35 33 30 28 27 28 30 30 30 29 28 28 28 27 26 27 29 26 26 28 25 20 19 20 24 29 30
30 30 30 31 32 32 34 33 30 28 27 27 28 29 30 29 30 29 28 26 25 26 28 29 28 29 29 27 25 22 22 23 17 17 22 26 28 27 26 18 22 23 21

GFSMA_sfc_dewp_093.txt.gz
Dewpoint
64 64 64 63 63 63 63 62 63 64 63 64 64 63 62 62 63 63 64 64 64 66 66 66 66 65 64 64 64 63 62 60 60 60 59 59 60 59 59 59 59 59 59
63 63 62 62 61 62 63 61 62 62 63 63 63 63 62 62 62 62 63 63 63 64 65 65 65 64 63 63 63 62 61 60 60 58 59 59 59 56 59 59 58 58 57
62 62 61 62 61 62 63 61 61 61 63 63 63 62 61 61 61 62 62 62 62 61 63 65 64 64 62 61 62 61 60 61 59 59 57 58 57 58 59 58 57 57 56
62 62 61 62 62 62 63 62 61 62 62 62 61 61 61 61 61 61 61 61 60 60 61 62 63 63 62 61 60 59 59 59 60 59 58 58 57 57 58 58 57 56 57
63 62 61 61 62 62 62 62 62 61 60 61 60 61 60 60 61 61 60 59 59 59 58 60 60 60 61 62 60 58 59 58 57 59 59 58 57 57 58 57 57 57 56
64 63 62 61 62 61 62 62 61 61 60 60 60 59 59 59 60 60 59 59 58 58 58 58 58 58 59 61 60 59 58 58 58 58 58 57 57 58 58 57 57 57 57
64 63 62 62 61 61 61 61 61 60 59 61 60 57 56 58 59 59 59 58 57 57 57 57 57 56 58 59 59 59 59 59 59 56 57 57 56 56 58 57 57 56 56
62 63 62 61 62 62 61 61 60 59 59 60 58 55 52 54 56 58 58 57 57 56 56 57 57 56 56 57 56 59 59 60 59 57 56 57 57 56 57 57 57 57 56
61 62 61 62 62 61 61 60 60 59 58 60 57 55 52 51 53 54 55 56 55 55 56 56 56 56 56 56 57 57 57 58 59 58 59 59 59 59 58 58 57 57 57
61 61 61 62 62 61 60 60 60 59 58 58 59 58 56 54 52 50 54 54 54 54 55 56 56 56 56 56 57 55 54 54 56 59 60 60 60 60 59 59 58 57 57
61 61 62 62 61 61 60 60 60 60 59 58 58 57 55 55 54 52 50 52 53 53 54 55 56 56 55 55 56 55 53 53 53 57 60 61 61 61 61 60 60 59 59
60 61 61 61 61 60 61 60 60 60 59 59 58 57 54 53 53 52 51 51 51 52 53 54 55 55 55 55 55 54 53 51 52 54 57 59 60 61 61 61 61 61 61
58 59 61 61 61 61 60 60 60 59 59 59 57 56 55 54 55 54 53 50 50 51 52 53 54 55 55 55 54 53 53 50 51 52 54 55 57 58 60 61 61 62 62
58 59 59 60 61 61 60 60 60 60 60 59 58 57 56 56 55 54 53 53 50 50 52 52 53 54 55 54 54 51 53 49 49 50 51 53 54 55 56 57 58 60 61
58 58 60 60 60 60 60 60 60 60 60 59 58 57 56 56 56 55 54 53 51 49 49 51 52 54 54 54 53 53 54 51 49 48 48 49 51 52 53 54 55 55 56
57 58 57 58 58 58 59 59 59 59 59 59 58 57 57 57 56 56 54 53 53 51 50 51 53 53 55 56 54 55 55 52 48 47 47 47 48 50 51 51 52 52 53
57 57 57 57 56 57 57 58 58 58 58 58 58 57 56 57 55 55 55 53 53 52 50 52 52 52 52 52 55 56 57 56 56 48 46 46 46 46 47 47 47 48 49
56 56 57 57 57 57 57 57 57 57 57 57 57 57 56 56 55 54 54 53 53 52 51 49 51 51 51 51 51 52 52 55 53 44 43 43 43 42 42 42 42 42 42
57 57 57 57 57 57 57 57 57 57 57 57 57 57 56 56 55 55 54 53 53 53 52 51 50 51 51 51 51 52 52 49 43 42 41 41 41 41 41 41 41 41 41
52 50 50 49 50 51 54 56 57 57 57 57 57 57 56 56 55 55 54 53 53 53 53 52 52 52 52 52 52 50 49 49 43 40 40 39 39 39 39 39 39 39 39
44 44 44 43 42 42 41 45 55 56 51 48 46 44 44 44 45 50 54 53 53 52 52 51 51 51 51 50 49 46 48 44 38 40 39 37 37 36 36 37 37 37 36
40 40 39 38 38 37 37 39 47 47 45 43 40 39 38 38 36 36 36 35 37 50 51 51 50 49 40 38 38 40 43 45 41 34 39 33 34 33 34 35 35 35 33
37 37 36 35 34 35 36 36 37 38 38 38 39 38 36 35 35 33 33 33 32 32 33 41 38 34 33 32 33 37 38 38 33 30 34 31 32 30 33 33 32 32 31
34 35 34 34 33 33 34 34 34 34 34 33 34 37 35 34 33 33 32 31 30 30 30 30 30 30 30 31 32 34 34 30 29 28 29 28 30 28 30 29 30 30 30
31 32 33 32 32 32 33 33 32 32 31 32 33 34 33 32 33 33 31 29 29 29 29 28 27 26 28 29 31 31 30 32 28 25 24 29 27 25 13 15 17 28 29
30 30 30 31 32 32 33 32 31 30 30 30 30 31 32 31 31 31 29 28 26 27 27 25 23 21 20 20 22 18 21 29 24 16 16 20 17 27 25 17 15 17 18

GFSMA_sfc_dewp_096.txt.gz
Dewpoint
66 65 64 64 62 62 63 63 62 63 63 64 64 63 63 63 63 64 65 64 64 67 68 67 67 66 66 66 65 64 63 62 62 61 61 60 59 60 60 58 57 58 57
65 64 64 64 63 63 62 62 62 63 63 63 63 63 63 63 63 63 64 64 63 64 66 66 66 65 65 65 65 64 62 62 61 60 59 60 60 58 57 56 57 59 56
64 63 63 62 62 62 62 60 62 62 62 63 62 63 62 62 63 63 63 63 63 62 64 65 65 65 65 64 64 63 62 62 61 59 59 59 58 56 57 56 58 57 57
63 63 62 62 62 62 62 61 61 61 62 61 62 62 62 62 62 62 62 63 62 62 62 63 64 64 64 63 63 62 61 60 60 60 58 57 57 58 58 56 57 57 57
63 62 62 62 62 62 62 62 61 61 60 61 61 61 61 61 61 62 61 62 61 60 60 61 61 62 62 63 62 60 59 59 59 59 59 58 57 57 57 56 57 57 57
62 62 62 62 62 62 62 62 61 61 61 61 61 60 60 61 61 61 61 61 60 59 59 59 60 59 60 62 61 59 59 59 58 59 59 58 57 57 58 58 57 57 56
63 63 62 61 62 61 61 61 61 60 60 61 59 57 57 59 60 60 60 59 59 58 58 58 57 57 59 60 61 60 60 59 59 59 59 59 57 58 56 58 57 57 57
63 63 62 62 61 61 61 61 61 60 60 61 58 56 53 55 57 59 60 59 58 57 57 57 57 56 57 58 58 60 60 60 59 59 59 59 58 56 56 58 58 57 57
63 63 62 61 61 61 60 61 61 60 59 60 59 56 51 51 54 56 58 58 57 57 57 57 57 56 56 57 57 57 57 58 60 60 59 56 56 57 56 57 58 57 57
63 63 62 61 60 62 61 61 61 60 59 58 58 58 56 55 53 51 55 56 56 56 56 56 57 56 56 56 57 55 54 54 57 60 59 59 59 59 59 58 58 58 58
62 62 62 60 61 61 61 60 60 60 60 58 58 57 56 55 55 53 51 52 54 55 55 56 56 56 56 56 56 55 53 52 53 57 59 60 60 60 60 60 60 59 59
61 62 62 61 61 60 60 60 60 60 59 59 59 58 56 54 53 53 52 53 53 53 55 55 55 56 56 56 56 54 53 51 52 54 57 59 60 60 60 61 61 60 60
60 60 60 60 60 60 60 60 60 60 60 59 58 58 57 55 55 54 53 53 52 52 53 54 55 55 55 56 56 54 53 50 51 52 54 56 57 59 60 61 61 61 61
60 60 60 60 59 59 60 60 60 59 59 59 59 58 57 56 55 55 54 52 50 51 52 52 54 55 55 55 55 52 54 50 50 50 51 53 54 55 56 57 59 60 61
58 58 59 59 60 60 60 60 60 59 59 59 59 58 57 56 56 56 55 54 52 49 50 52 52 55 55 55 54 55 54 51 49 48 48 50 51 53 53 54 55 56 57
58 57 58 59 60 60 60 60 60 60 59 59 59 57 57 56 56 56 56 55 54 52 50 52 53 54 55 55 54 55 54 51 48 47 47 47 48 50 50 51 52 52 53
57 57 57 58 58 58 58 58 58 58 58 59 59 58 56 56 56 56 56 54 53 53 51 53 53 53 54 55 55 55 55 55 53 47 46 46 45 45 46 47 47 48 48
56 56 57 56 56 56 57 57 57 57 57 57 57 58 56 56 55 56 55 54 53 53 52 51 52 52 52 53 54 55 54 51 45 43 43 42 42 42 42 42 42 42 42
55 55 55 57 56 57 57 57 57 57 57 57 58 57 56 56 55 55 55 54 53 53 53 51 51 52 52 52 52 52 47 44 42 42 41 41 41 41 41 41 41 41 40
55 53 51 50 50 50 52 55 57 57 57 57 57 57 57 56 55 54 54 54 54 53 53 52 51 51 52 52 52 51 49 44 41 39 39 39 39 39 39 39 39 39 39
46 46 45 43 42 41 40 43 51 56 54 49 46 44 46 53 51 52 54 54 53 52 52 51 51 51 51 51 50 48 48 41 38 41 38 37 37 37 37 37 37 36 35
40 39 38 38 37 37 37 39 47 47 45 44 41 40 39 39 38 37 37 36 41 52 51 51 51 50 46 43 42 44 43 41 38 34 35 33 35 34 35 36 35 33 31
36 35 35 35 34 35 36 37 37 39 38 39 39 38 37 36 36 35 34 34 33 33 33 47 44 39 37 35 38 39 40 37 33 31 35 30 32 30 33 34 33 32 31
34 33 33 33 33 33 34 35 34 35 35 35 35 35 34 34 34 34 33 32 30 30 30 31 30 30 32 32 34 36 34 30 29 28 30 29 31 29 30 28 31 30 30
31 31 32 32 32 33 33 33 33 32 31 32 33 33 33 33 34 34 31 28 27 26 28 28 28 28 29 30 31 33 32 32 27 23 23 30 28 26 25 26 26 28 26
30 30 30 31 32 32 33 33 32 31 30 30 31 32 33 32 32 31 30 28 25 25 24 23 22 22 22 23 25 27 32 28 25 22 20 24 25 28 27 26 24 24 24

GFSMA_sfc_dewp_099.txt.gz
Dewpoint
67 67 67 67 67 67 66 67 67 66 66 65 66 65 64 64 64 65 66 64 64 67 68 68 67 67 67 66 66 65 64 63 63 62 62 62 62 61 60 60 60 59 59
67 66 66 66 65 65 66 66 65 65 65 65 64 64 64 64 63 64 65 66 63 65 67 68 67 67 67 66 66 65 64 63 62 61 61 61 60 60 59 59 59 57 57
67 66 65 65 64 64 64 64 63 64 64 65 64 64 64 63 63 63 64 64 64 63 65 66 66 66 66 66 65 65 64 64 63 62 60 60 60 60 59 58 59 59 56
66 66 65 65 65 64 64 63 63 62 63 63 62 63 64 63 63 63 63 64 66 63 63 64 65 65 65 65 65 64 63 63 61 60 60 60 59 58 58 58 58 57 57
65 65 64 64 65 64 64 62 62 62 62 62 62 63 63 62 62 63 62 63 65 64 64 62 62 63 64 64 64 63 62 60 59 60 59 58 58 58 58 58 58 58 57
64 64 64 64 64 64 63 62 61 62 62 62 61 62 62 62 62 62 62 62 63 64 63 63 63 62 61 63 63 62 61 60 59 60 59 59 58 58 58 57 57 57 57
64 63 63 63 63 63 62 62 61 61 61 62 60 59 59 61 61 62 62 62 61 61 62 62 61 61 61 61 62 62 60 60 60 60 59 59 59 57 58 58 58 57 57
64 63 62 62 63 62 62 62 61 60 61 62 59 57 54 56 59 61 61 61 60 60 60 60 60 60 60 59 58 61 60 60 59 59 60 60 59 58 58 57 58 58 57
63 63 63 63 62 62 62 62 62 60 59 61 60 57 53 53 55 58 60 61 60 59 59 59 59 58 58 56 58 58 57 58 60 60 61 60 59 58 58 57 58 58 58
63 63 63 63 62 62 62 62 62 61 61 59 60 60 58 57 54 53 56 59 59 59 59 58 58 57 57 55 56 55 54 55 58 60 61 60 59 58 58 58 58 58 58
62 59 59 62 62 62 62 62 62 61 61 60 59 58 57 57 57 55 53 55 56 58 58 58 58 57 57 56 56 55 52 52 54 58 60 59 59 59 59 59 59 59 59
59 59 61 62 62 62 62 63 62 61 61 60 60 59 57 55 55 56 55 55 54 55 57 57 58 57 57 57 55 54 52 51 52 55 57 58 59 59 59 60 60 60 60
58 59 62 61 62 62 62 62 61 62 61 60 59 59 59 58 58 56 56 55 54 54 55 57 57 57 56 57 56 54 53 50 51 52 54 56 58 59 60 60 60 61 61
60 62 62 62 62 62 61 61 61 61 61 60 60 59 59 59 58 57 57 55 53 52 53 54 56 57 57 57 56 52 56 50 50 50 51 53 54 55 56 58 59 60 61
61 61 62 61 61 60 60 61 60 61 61 60 60 60 59 58 58 58 57 56 54 50 51 53 54 57 56 57 55 57 57 52 50 49 49 50 52 53 53 54 55 56 58
59 61 60 60 60 60 61 61 60 60 60 60 60 59 59 58 58 58 56 57 55 53 50 54 55 55 57 56 55 57 56 52 48 48 47 48 49 50 51 52 52 53 54
59 59 59 59 59 60 60 60 60 60 59 59 59 59 58 58 57 57 57 56 54 54 51 53 55 56 56 56 55 56 56 56 52 46 46 46 46 47 47 48 48 48 48
58 58 58 58 58 59 59 59 58 59 59 58 58 58 58 57 57 57 56 55 54 54 53 51 53 54 55 56 56 57 56 50 46 43 43 43 43 43 42 42 43 43 43
57 57 58 57 57 57 57 57 57 58 58 58 58 58 57 57 56 56 55 55 54 54 54 53 52 54 55 56 56 52 47 45 42 42 41 41 42 42 41 41 41 41 40
58 58 57 55 55 54 55 57 57 57 57 58 57 57 58 57 56 55 55 54 54 53 53 55 53 52 54 54 54 50 47 44 41 40 40 40 40 40 40 40 40 39 39
50 49 47 45 44 43 41 46 52 56 57 52 48 45 43 51 51 53 55 55 54 53 53 53 52 52 52 52 52 52 47 41 40 41 39 38 38 38 38 37 37 35 34
41 40 39 39 39 38 37 39 48 49 46 44 42 41 39 40 39 39 39 41 50 53 53 52 52 51 51 49 47 49 41 39 38 38 35 33 36 35 35 35 33 32 31
36 35 35 35 35 36 36 37 38 40 39 39 38 38 38 37 37 36 35 34 34 34 38 51 51 47 43 42 42 43 43 41 35 32 34 31 33 31 33 35 34 31 29
33 33 33 34 34 34 35 35 35 36 35 34 34 35 35 35 35 35 34 33 32 32 32 33 33 32 33 35 37 38 35 30 30 29 32 29 31 29 29 31 33 32 30
31 31 32 32 33 33 34 34 34 33 32 32 33 33 33 33 34 34 31 30 28 27 31 32 32 32 32 33 35 35 33 32 28 25 25 30 29 26 28 28 31 27 26
30 30 30 31 32 32 34 33 32 32 31 30 31 32 33 32 32 32 30 29 25 25 25 25 25 25 26 27 28 30 34 31 27 25 24 28 29 30 28 31 32 31 28

GFSMA_sfc_dewp_102.txt.gz
Dewpoint
68 67 66 66 67 66 67 66 66 66 66 66 66 65 64 64 63 62 62 64 64 66 68 68 69 68 67 68 67 67 66 65 64 64 63 64 63 62 62 62 61 61 59
68 67 67 67 65 66 67 66 67 66 66 66 66 65 65 64 64 64 64 62 63 65 67 68 68 68 67 67 66 66 66 65 64 63 62 62 62 61 61 61 60 59 59
68 68 66 66 67 66 68 68 68 67 66 65 65 65 64 64 64 64 64 64 65 62 64 66 67 67 67 67 66 66 65 64 64 63 62 61 61 60 60 60 60 58 59
67 68 66 66 66 67 66 66 65 65 64 65 64 65 64 64 64 65 63 64 64 65 64 64 64 66 66 66 66 65 64 64 64 63 62 61 61 60 60 59 59 59 57
67 67 66 65 66 66 65 65 64 64 64 64 62 63 64 64 64 63 63 63 64 65 65 63 63 63 64 65 66 65 64 63 62 61 61 60 59 60 59 59 59 56 56
67 67 66 66 66 65 65 65 64 63 63 62 62 62 63 64 63 63 62 63 63 64 64 63 62 62 62 64 64 64 64 62 61 61 60 59 59 59 59 59 57 58 58
67 66 66 65 65 64 64 64 63 62 62 63 62 61 61 62 62 62 62 62 62 63 64 65 64 61 62 62 64 64 63 62 61 61 60 60 60 60 59 58 57 58 57
67 66 65 64 64 64 64 64 63 61 62 63 60 59 56 57 61 61 62 62 62 62 62 63 62 61 62 61 61 63 63 62 60 60 61 61 60 59 58 58 58 58 57
66 66 65 64 64 64 64 64 63 62 60 62 61 58 55 55 57 60 61 61 61 61 61 61 61 60 60 60 60 60 58 59 61 61 61 61 60 59 58 58 58 58 58
65 65 64 63 63 64 64 64 63 63 62 60 61 61 60 57 55 54 57 61 62 61 61 61 61 60 59 57 58 57 55 55 58 60 61 61 60 59 59 58 58 59 58
64 64 64 64 64 64 64 64 64 64 63 61 60 60 60 58 59 56 54 56 59 60 61 61 61 59 58 56 55 54 53 53 55 59 60 61 60 59 59 58 58 58 59
64 64 64 64 64 63 63 63 63 63 63 62 61 61 59 57 57 56 55 56 56 57 60 60 60 59 59 57 54 53 52 51 53 56 58 59 59 59 58 59 59 59 59
63 63 64 61 62 63 63 63 62 64 63 62 61 60 60 58 58 57 57 56 55 56 57 59 59 59 58 58 55 53 52 50 50 53 55 57 58 58 58 59 59 60 60
62 64 62 59 59 61 62 63 63 64 63 64 61 61 60 60 60 59 57 56 55 55 56 56 58 58 59 59 57 52 55 50 49 50 52 53 55 56 57 58 59 59 60
62 61 60 61 61 62 63 62 63 63 62 61 61 62 60 60 60 59 59 59 55 53 53 56 57 58 59 59 57 57 57 51 49 49 49 50 52 53 54 55 56 57 58
61 61 61 62 62 62 62 63 62 61 61 61 61 60 60 61 60 59 58 58 58 55 53 55 55 56 58 57 56 58 57 52 49 48 48 48 50 51 52 52 53 54 55
62 61 61 61 60 61 62 61 60 60 60 60 61 60 60 60 59 59 60 60 59 58 53 54 55 57 57 57 57 58 56 57 52 46 46 47 47 48 49 50 50 51 51
61 61 61 60 60 60 60 61 60 60 60 59 59 59 59 59 59 59 59 58 57 57 54 52 55 56 56 57 57 57 55 51 46 44 44 44 44 44 44 44 44 44 45
60 59 59 59 59 60 59 60 60 60 60 60 59 59 59 59 58 58 58 57 56 55 54 53 53 55 56 57 56 54 49 46 42 43 42 42 42 42 42 42 42 41 41
58 58 59 58 58 58 59 58 58 58 58 59 60 59 58 58 58 57 57 56 56 55 54 53 53 53 55 57 52 47 45 46 43 41 41 41 41 41 41 40 40 40 39
57 56 53 51 51 50 44 50 56 58 58 58 52 49 45 43 45 53 56 56 55 54 53 53 52 53 54 55 52 50 46 42 41 41 40 39 39 38 38 38 38 38 37
40 44 44 44 41 39 37 39 46 53 50 49 46 44 41 41 40 40 42 45 52 53 53 52 52 52 52 53 54 50 42 40 36 39 35 34 36 35 35 35 35 34 33
34 36 38 37 37 37 37 38 40 44 42 40 40 41 39 38 39 38 36 36 35 36 42 53 52 52 49 49 49 44 44 43 38 36 34 30 33 31 34 34 33 32 30
32 32 33 35 35 34 35 36 36 37 37 36 36 37 37 37 36 37 36 34 33 33 33 35 38 33 35 38 44 44 40 32 32 31 35 29 32 29 31 34 34 32 31
31 30 32 33 34 34 34 34 34 33 32 32 33 34 34 34 34 35 33 32 30 28 32 33 33 33 34 34 37 37 34 34 30 29 29 30 29 28 29 30 32 31 28
29 29 28 30 32 32 34 33 33 32 31 30 31 31 32 32 32 32 30 29 26 27 27 27 27 27 27 28 30 31 36 34 29 28 27 29 27 28 25 29 29 29 27

GFSMA_sfc_dewp_105.txt.gz
Dewpoint
67 65 64 63 66 65 67 66 66 66 66 66 67 66 65 66 65 64 64 64 64 66 67 67 68 68 68 68 68 67 67 67 66 65 66 65 65 65 64 63 62 61 58
68 65 64 63 62 65 68 66 65 67 67 67 67 66 66 66 65 64 61 63 63 64 66 68 68 68 68 68 68 67 67 66 66 65 64 64 63 63 63 62 61 60 59
69 68 66 67 64 64 68 68 68 67 66 65 66 66 65 66 65 64 65 62 63 62 64 64 67 66 68 68 68 66 66 65 65 64 64 63 62 62 62 61 60 59 59
69 68 65 66 66 65 67 67 66 67 65 65 65 64 66 65 65 65 65 65 62 63 64 64 63 65 67 68 67 66 65 65 64 64 63 62 62 61 61 59 60 58 59
66 68 66 66 67 65 67 67 66 66 65 64 63 64 65 64 65 63 63 64 64 64 65 63 63 62 64 66 67 66 65 64 64 64 63 62 61 61 60 59 56 59 59
68 68 66 67 67 65 67 66 65 65 64 64 61 63 63 64 64 64 63 63 63 63 64 65 64 64 62 64 65 66 65 64 63 63 61 62 61 61 60 58 55 56 55
69 68 66 67 66 65 66 65 65 64 64 64 63 62 63 63 64 63 63 62 62 62 64 64 63 64 64 63 64 66 64 64 63 62 62 62 61 60 59 58 55 56 56
68 67 66 66 66 65 65 64 64 63 63 64 61 59 57 58 61 62 62 61 62 62 62 63 63 63 61 64 63 64 64 64 63 62 62 61 60 59 59 58 55 56 57
67 67 67 66 66 65 64 64 64 62 61 63 62 59 56 55 57 61 61 61 61 61 62 62 63 64 63 64 61 62 60 61 62 62 62 61 60 59 59 59 56 55 58
65 67 67 65 65 65 64 64 64 63 62 60 62 61 60 57 55 55 59 61 61 61 61 61 62 62 62 63 61 59 57 56 59 61 62 62 61 59 58 58 58 56 59
65 66 67 65 65 64 64 64 63 63 63 62 61 60 61 60 59 56 54 57 60 61 61 61 61 61 62 61 62 60 55 54 56 59 61 62 61 60 59 59 58 57 59
65 65 65 65 65 65 64 64 65 65 64 63 62 62 60 58 57 57 56 56 56 59 61 61 61 61 61 61 59 54 53 52 53 57 59 60 60 59 59 59 58 58 59
64 64 64 64 64 64 59 58 61 64 64 63 63 62 61 61 59 57 58 57 56 57 59 61 61 61 59 59 58 54 53 51 52 54 56 58 59 58 58 58 58 59 59
63 63 64 63 63 63 61 63 64 64 64 63 63 63 62 61 61 59 58 57 55 55 56 56 60 61 60 59 56 52 54 49 50 51 53 55 56 56 56 57 58 59 59
62 63 64 63 63 64 63 63 62 63 63 64 64 63 62 61 61 61 60 59 56 53 53 56 57 59 60 60 58 57 57 50 48 48 49 51 53 54 55 55 56 57 58
63 63 63 63 61 60 62 62 61 62 63 64 64 63 62 61 61 60 59 59 58 56 53 57 57 58 59 58 56 59 58 52 49 47 47 48 50 52 52 53 54 55 56
62 61 62 61 61 61 59 60 61 61 61 62 61 61 60 61 61 61 60 60 58 57 54 56 58 59 59 58 57 58 58 57 52 48 47 47 48 48 50 50 51 52 53
62 61 60 60 60 60 61 58 57 59 60 60 60 61 59 59 60 60 60 58 58 58 57 54 57 57 57 57 57 57 58 57 50 46 46 46 46 46 46 46 46 47 47
61 61 60 60 60 61 61 61 58 57 60 60 59 59 59 59 59 59 59 58 59 58 58 55 54 56 56 57 57 55 48 45 44 44 43 43 43 43 43 43 43 43 43
60 60 60 60 59 60 60 61 60 60 60 60 61 60 60 59 58 59 58 58 58 57 56 55 54 54 55 56 55 46 45 45 43 42 42 41 41 42 41 41 41 41 41
41 50 56 54 56 54 54 59 59 59 59 59 56 53 49 44 42 43 54 57 57 56 55 54 53 53 54 52 49 48 44 41 41 41 40 40 39 39 40 40 40 39 39
35 37 40 43 42 40 39 41 54 55 53 52 48 46 44 42 42 38 40 42 50 55 54 53 52 52 53 52 50 46 41 38 36 41 36 34 36 35 35 36 37 36 36
34 33 34 36 36 37 38 41 41 44 41 41 41 41 41 40 40 40 37 36 35 36 42 53 52 52 52 53 50 44 43 42 38 37 35 31 33 32 34 35 35 34 33
32 32 31 33 34 34 36 36 36 37 36 35 35 36 37 38 37 39 36 34 33 33 33 36 40 34 37 44 48 46 43 33 34 33 35 29 32 30 32 33 34 33 33
29 29 30 30 32 32 34 35 34 33 32 32 32 33 34 34 34 36 34 32 31 31 32 34 34 34 34 36 39 40 36 35 32 31 32 30 29 28 30 31 33 32 31
29 28 27 28 30 30 33 33 32 31 30 30 30 31 32 32 32 32 31 30 27 27 29 29 28 28 30 31 33 35 39 38 30 29 30 28 27 28 24 29 30 30 29

GFSMA_sfc_dewp_108.txt.gz
Dewpoint
68 68 67 67 68 68 68 67 67 67 66 66 67 66 66 66 65 66 65 65 65 66 68 67 68 68 68 67 68 68 68 68 68 67 66 66 65 65 64 63 62 61 60
67 66 67 65 67 67 67 66 66 66 66 66 66 66 66 66 66 65 65 64 63 64 66 68 67 68 68 68 67 68 67 67 67 67 66 65 65 64 64 63 62 60 59
70 68 67 65 64 66 65 67 67 68 66 66 65 66 66 66 66 65 65 64 63 62 63 66 67 66 66 68 68 67 67 66 66 66 66 65 64 64 63 62 61 60 59
68 68 67 65 67 66 66 67 66 66 66 66 65 65 65 66 65 64 64 64 63 64 63 63 64 66 67 67 68 68 67 66 66 65 64 64 63 63 62 62 61 59 57
67 68 67 66 66 66 66 66 66 66 65 65 65 64 64 65 64 64 64 63 63 64 64 63 63 63 64 65 66 67 67 66 66 65 64 63 63 62 61 61 59 57 59
67 67 67 67 66 65 65 67 65 66 65 64 62 63 64 64 64 64 63 64 64 63 63 64 62 62 62 62 61 67 66 66 65 64 64 63 63 62 61 59 57 57 59
67 66 66 66 66 65 64 66 65 64 64 64 62 62 62 63 63 63 63 63 62 62 62 63 64 64 62 62 62 63 66 66 64 64 64 63 62 61 60 57 57 56 55
66 66 67 66 66 65 64 65 64 63 63 64 61 59 56 58 60 62 63 62 61 62 61 62 63 63 63 62 63 64 65 66 65 64 64 62 62 61 59 58 58 57 57
64 66 66 66 66 65 64 65 64 62 61 63 61 57 54 54 55 60 61 61 60 61 60 60 62 63 63 63 63 62 61 61 64 64 64 63 62 60 59 59 57 58 58
63 65 66 66 65 64 64 64 64 62 61 61 62 60 59 58 54 54 58 61 61 61 60 60 61 62 62 63 62 60 58 57 60 63 63 63 61 59 58 57 57 58 58
62 64 65 65 64 64 63 64 64 62 61 60 60 60 59 59 59 55 52 56 59 60 60 60 60 61 62 62 63 61 56 55 57 60 62 62 61 60 58 58 58 58 57
59 62 64 66 65 64 64 63 60 63 62 62 61 60 59 58 58 56 54 54 55 58 60 60 60 60 61 62 61 58 55 54 55 57 60 61 60 60 59 56 56 57 57
58 59 63 65 65 64 63 63 63 63 62 62 61 60 60 59 59 58 56 55 55 57 58 60 60 60 61 61 61 57 56 52 53 55 57 59 59 59 58 57 57 58 57
57 61 63 64 64 64 63 63 62 61 60 60 60 61 61 60 60 59 57 55 55 55 56 57 60 61 61 61 60 54 57 51 51 52 54 56 57 57 57 56 57 56 57
57 61 64 63 63 63 63 60 59 59 58 61 58 60 61 61 60 60 59 58 55 52 53 56 56 60 61 61 58 57 58 52 51 50 51 53 54 55 55 55 55 56 57
60 61 63 63 63 63 63 60 60 61 62 62 62 61 61 61 60 60 59 58 57 54 52 55 56 58 60 60 57 57 56 51 48 48 49 50 51 53 53 53 54 54 56
59 61 63 63 62 62 62 62 61 61 61 60 61 60 60 61 60 60 59 58 57 57 55 55 57 58 59 59 58 58 56 54 52 48 47 48 48 50 50 51 51 52 53
52 60 61 62 62 61 60 61 60 59 59 57 58 59 59 60 60 60 59 59 58 58 56 54 57 57 57 58 58 57 58 57 53 47 46 46 46 46 47 47 48 48 49
46 54 59 61 61 60 59 59 59 59 57 57 58 58 59 59 58 59 59 59 58 58 57 56 55 57 57 58 57 57 49 46 45 45 44 45 45 45 46 46 46 46 46
41 42 52 59 60 60 59 58 57 56 55 56 59 59 59 58 57 59 58 58 58 58 58 57 55 55 55 57 56 48 44 45 43 43 42 42 43 43 43 43 43 43 43
38 38 40 42 45 47 47 54 59 57 54 55 56 52 48 45 41 43 53 57 57 57 57 56 55 54 54 54 48 49 43 40 40 41 40 40 40 40 41 41 42 41 40
35 35 35 36 38 39 37 42 54 58 56 54 48 47 43 43 40 38 38 39 42 54 55 55 54 53 53 54 49 46 40 38 36 40 36 34 36 35 36 38 39 39 38
31 32 33 33 33 34 36 39 42 44 41 40 42 43 41 40 40 41 37 36 35 35 36 52 54 53 53 53 48 44 43 41 37 36 34 30 33 32 35 36 37 36 36
28 28 29 31 32 32 34 35 36 36 35 34 34 35 36 36 36 38 36 33 32 32 33 36 39 36 37 52 48 46 44 35 35 34 34 28 32 30 33 34 35 34 34
28 27 27 27 28 30 33 33 33 32 31 31 31 32 32 33 34 37 34 32 31 31 33 34 34 34 35 39 42 39 36 36 32 32 32 29 30 29 31 31 33 33 33
31 30 28 28 29 28 31 32 31 30 28 28 29 29 31 31 32 32 31 30 27 26 28 28 29 30 32 33 34 37 40 39 32 30 31 28 28 28 25 29 30 30 30

GFSMA_sfc_dewp_111.txt.gz
Dewpoint
68 68 68 69 69 69 68 68 68 68 67 67 67 66 67 66 66 66 65 65 65 67 69 68 68 69 68 67 67 68 68 68 68 67 67 66 65 65 64 64 63 63 62
67 67 67 67 68 68 68 68 67 67 67 67 66 66 66 66 65 65 64 64 63 64 66 68 69 68 68 67 67 67 68 67 67 67 66 66 65 65 64 63 63 61 61
68 67 66 66 67 68 67 67 66 67 66 66 65 65 65 65 65 65 64 63 62 62 63 66 68 68 68 68 67 66 67 67 67 67 66 66 65 64 63 63 62 61 60
68 68 67 66 65 66 65 66 66 66 65 65 64 64 65 65 65 64 64 63 62 62 61 63 65 67 67 67 67 68 67 66 66 66 66 65 65 64 63 63 61 60 59
67 67 67 67 65 65 66 65 65 65 64 65 64 64 64 64 64 65 63 63 63 63 63 62 62 63 65 66 67 67 65 66 66 66 66 65 65 64 63 62 61 60 59
68 67 66 66 66 65 64 65 65 65 65 64 64 63 63 64 64 63 63 63 63 63 63 63 61 62 63 65 66 66 65 67 66 66 65 65 64 63 62 62 61 59 57
67 67 66 66 66 66 64 65 65 64 62 64 61 60 60 63 63 63 63 63 63 62 61 62 62 61 62 63 64 65 64 68 66 65 65 64 63 62 61 61 60 58 59
58 66 66 66 66 66 65 64 64 63 62 63 60 59 57 57 60 63 63 62 62 61 60 61 63 63 63 62 62 63 64 63 66 66 65 63 62 62 61 60 59 59 59
54 58 65 66 66 66 65 64 63 63 61 61 60 57 54 52 54 57 61 62 61 60 59 59 61 62 63 62 61 60 59 60 65 65 65 63 62 62 61 60 59 59 58
52 55 58 63 65 65 64 62 59 59 57 59 61 61 57 55 52 53 56 59 61 60 60 60 60 61 63 63 61 60 58 57 61 64 64 63 63 62 61 60 59 59 59
50 53 56 61 62 64 63 59 57 59 61 61 57 60 59 58 56 53 52 56 59 60 60 59 59 60 60 62 63 61 56 56 57 61 63 63 63 62 61 60 59 58 59
49 51 55 59 62 62 63 62 60 60 61 60 60 59 57 57 57 56 52 51 55 58 60 60 59 60 61 62 61 59 55 54 55 58 60 62 62 61 60 59 59 58 59
48 50 54 57 60 61 61 62 62 62 61 61 61 59 60 59 57 57 55 53 53 57 58 59 59 59 60 61 61 57 55 53 54 56 58 59 59 59 59 58 58 59 58
48 50 52 56 58 61 62 62 62 60 59 61 60 60 60 59 59 58 57 54 53 54 56 56 60 59 60 60 60 54 58 52 52 53 55 56 57 57 57 57 56 57 57
49 53 52 54 53 56 58 61 60 60 58 56 56 61 60 60 60 59 58 56 54 52 53 56 57 60 59 60 59 59 60 52 51 51 52 53 55 55 55 55 55 55 56
47 50 55 55 57 54 57 60 60 60 59 59 57 59 59 60 60 60 59 57 56 53 52 55 56 58 60 60 58 60 60 54 50 50 50 51 52 53 53 53 53 54 54
45 48 50 59 59 59 59 59 60 59 59 58 59 58 56 59 60 59 59 59 56 55 54 53 55 56 59 60 59 59 59 59 56 50 49 49 49 50 51 51 51 52 52
42 44 49 56 59 58 58 60 59 59 58 59 59 58 57 59 59 59 59 58 58 57 56 53 55 56 57 58 59 58 58 57 56 49 49 48 49 48 48 48 48 49 49
38 40 43 45 52 59 59 61 60 60 60 60 59 59 58 58 59 59 58 58 58 58 57 56 54 57 57 58 58 57 53 49 47 47 46 46 47 47 47 46 47 47 48
35 36 38 40 42 44 46 50 60 59 57 57 57 56 55 57 57 59 58 58 58 57 57 56 56 56 57 57 57 50 46 46 44 44 44 45 45 45 45 45 45 47 47
31 33 35 36 36 38 36 39 46 57 55 55 53 51 50 48 47 51 57 57 57 57 56 56 55 55 55 55 54 52 46 41 40 41 41 41 42 42 43 43 45 45 44
29 30 31 32 33 34 36 36 40 56 55 52 47 45 44 41 40 41 40 38 43 56 56 56 55 54 54 54 51 49 41 40 38 40 36 34 37 36 38 39 41 42 43
28 28 28 30 30 32 35 34 35 40 43 43 42 42 40 41 42 39 37 36 34 35 36 44 53 54 53 54 51 47 44 45 38 37 36 32 33 33 36 38 39 39 40
29 28 28 28 29 31 34 34 33 32 32 32 33 34 35 36 38 39 36 34 32 32 33 34 35 34 37 51 51 49 46 37 35 34 34 29 32 31 33 35 37 37 36
29 28 29 29 28 29 32 32 32 30 29 29 30 32 32 33 36 37 34 32 31 30 32 32 33 33 34 39 45 41 37 36 32 33 32 31 30 30 31 31 33 34 34
29 28 27 27 29 29 32 30 29 29 27 27 29 29 31 32 32 32 31 31 27 26 28 29 29 29 29 31 34 36 39 39 32 31 32 29 29 28 25 30 31 31 32

GFSMA_sfc_dewp_114.txt.gz
Dewpoint
69 69 69 69 68 68 69 68 68 67 67 67 67 66 66 66 66 66 65 64 64 67 68 69 69 69 69 68 67 66 67 67 67 68 67 66 66 65 65 64 64 63 63
68 68 68 68 68 68 68 68 68 67 67 67 66 66 66 66 66 65 64 64 63 64 66 68 69 69 69 68 66 66 66 68 68 68 67 66 65 65 64 64 63 63 63
68 67 67 67 68 68 68 68 67 67 67 66 66 66 66 66 65 64 64 63 63 62 64 66 67 68 69 68 67 66 65 67 67 67 67 66 65 64 64 63 63 62 62
68 68 68 67 67 68 68 68 67 66 66 66 65 65 64 64 64 64 63 63 62 62 61 63 65 67 68 68 68 66 67 66 66 67 66 66 65 64 64 63 62 61 61
67 68 67 67 66 66 67 67 66 66 65 65 65 64 64 64 64 64 63 63 62 61 61 61 62 64 65 67 68 67 66 64 66 67 66 66 65 64 63 63 62 61 60
60 65 66 66 66 65 65 66 66 65 64 64 64 63 63 64 64 64 63 63 62 62 63 62 61 62 62 64 65 67 67 66 66 67 66 66 65 64 63 63 61 61 60
56 55 63 66 65 65 64 64 64 63 63 64 61 59 60 63 63 63 63 63 62 62 63 62 61 61 61 63 64 65 67 67 67 66 66 65 64 64 63 62 61 61 60
52 53 55 60 65 65 64 63 64 63 64 64 62 61 58 59 61 62 63 63 62 63 62 62 62 61 61 63 64 64 66 66 66 67 66 64 64 64 63 62 61 61 59
48 50 52 54 56 64 65 64 63 62 60 61 61 59 55 55 56 58 61 61 61 61 61 60 61 62 62 62 62 62 60 61 63 66 66 64 64 63 63 62 61 60 60
47 49 51 53 55 58 62 64 63 62 59 56 56 58 58 57 53 53 57 61 61 60 60 60 59 61 61 62 61 59 57 57 59 63 64 64 64 63 62 62 61 60 60
46 48 49 50 52 54 58 63 61 57 57 55 54 56 56 58 57 54 51 57 60 60 60 60 59 60 60 61 62 60 56 55 56 59 62 63 63 63 62 61 60 60 59
45 47 48 50 52 55 58 61 62 60 57 56 55 56 57 57 55 54 51 54 55 58 60 59 59 59 60 59 61 58 55 53 55 57 60 62 62 62 62 61 61 60 59
44 46 48 50 51 52 55 60 60 59 58 58 57 56 57 54 56 57 54 52 53 56 58 59 59 59 59 59 60 57 55 52 53 57 58 60 60 61 61 61 60 60 59
43 45 47 49 50 52 54 57 61 60 59 59 59 59 57 58 59 58 57 54 52 54 55 55 59 59 59 59 59 54 59 52 52 52 54 57 58 58 58 58 58 58 58
41 43 44 47 49 53 53 55 60 59 60 60 59 59 59 59 60 59 59 57 54 52 53 55 57 59 59 59 58 59 60 53 52 51 51 54 55 56 56 56 56 56 56
40 41 42 45 48 52 54 54 56 59 59 59 59 59 59 59 59 59 59 57 56 53 50 53 55 57 59 59 57 59 60 53 50 49 50 51 53 54 54 54 53 54 55
38 39 40 43 47 49 56 55 54 57 59 59 58 57 59 59 59 59 59 58 57 55 52 53 54 55 59 58 58 59 59 59 56 48 48 49 50 51 51 51 51 51 52
36 37 38 40 43 44 48 58 56 57 58 58 58 57 56 58 58 59 59 58 57 57 55 52 54 55 57 58 59 58 59 59 59 51 48 48 49 49 49 48 48 48 49
32 33 36 37 38 39 40 46 57 57 58 57 58 57 55 55 55 56 57 57 58 57 57 55 54 56 56 57 58 58 57 56 53 50 47 47 48 49 49 48 48 48 47
30 30 32 34 35 36 37 38 43 52 57 58 58 58 58 55 55 57 57 55 56 57 57 56 54 56 56 57 57 52 48 47 46 45 45 46 47 48 48 47 47 47 47
29 30 30 31 32 34 35 36 42 48 51 56 57 55 56 56 52 53 56 57 57 57 56 56 55 55 55 55 55 53 51 42 41 42 42 41 44 45 47 46 48 46 46
29 29 29 30 30 31 35 35 37 37 36 42 49 46 44 43 41 41 41 43 53 56 55 55 55 54 55 55 55 51 42 41 42 40 38 35 37 37 39 42 44 44 45
27 28 28 30 30 30 33 34 34 33 32 32 33 37 41 41 41 39 37 37 36 36 40 53 54 54 53 54 53 49 46 44 43 38 36 32 34 33 36 39 41 42 42
28 27 27 28 30 31 32 31 32 33 31 30 31 32 33 34 36 39 37 34 33 33 33 35 36 34 34 38 49 52 49 38 35 34 35 31 32 31 33 36 39 40 40
26 26 27 27 28 30 33 32 29 29 29 30 30 31 31 31 34 35 35 33 31 30 33 33 33 32 33 35 40 44 39 39 32 32 32 32 31 30 31 32 34 36 37
23 23 24 25 27 28 32 33 30 28 27 28 28 29 31 30 31 31 30 31 28 27 29 29 28 29 30 31 33 35 42 42 32 32 32 30 30 29 25 29 32 32 33

GFSMA_sfc_dewp_117.txt.gz
Dewpoint
68 68 68 68 68 68 68 68 68 68 68 67 66 66 65 65 65 65 65 64 65 67 69 69 70 69 69 68 68 67 67 66 67 67 66 67 67 66 66 65 65 65 64
68 68 68 68 68 68 68 68 68 67 67 67 67 66 66 65 65 65 65 65 63 65 67 69 69 69 69 69 68 67 66 66 67 67 66 67 66 66 65 64 64 64 64
67 67 67 68 69 68 68 68 67 67 67 67 67 66 66 66 66 65 65 64 64 62 63 66 67 68 68 69 68 67 67 65 66 67 67 67 66 65 64 64 63 63 63
64 67 67 67 68 68 67 67 67 67 66 66 66 65 66 66 65 65 64 64 63 63 63 64 65 67 67 68 69 68 67 65 66 67 67 66 66 65 64 64 63 63 63
59 60 63 67 67 67 67 67 67 67 66 65 65 65 65 65 65 65 64 63 62 62 62 61 62 62 65 66 68 68 67 66 65 66 67 66 65 65 64 63 63 63 62
55 56 58 62 66 65 65 66 65 66 65 65 65 65 64 64 65 65 64 63 62 62 61 60 60 61 62 65 67 68 67 66 66 66 65 66 66 64 64 63 63 62 61
50 50 52 54 57 63 64 63 64 63 64 65 62 61 60 62 62 63 63 63 62 62 61 61 61 60 61 62 65 67 66 66 66 65 65 65 65 64 63 63 62 61 61
47 48 50 51 54 55 58 64 64 62 62 63 60 60 58 59 61 63 63 62 62 62 62 62 62 61 60 61 63 65 65 66 67 65 65 65 65 64 63 63 62 61 61
45 47 48 50 51 53 53 57 63 63 62 61 62 58 53 55 57 59 61 62 61 62 62 61 61 61 60 61 62 62 61 61 64 66 65 65 64 64 63 63 62 61 61
45 47 48 48 49 51 53 55 59 63 63 58 57 58 56 56 54 51 58 60 61 61 61 61 61 61 61 61 61 60 58 57 59 64 65 65 65 64 64 63 62 62 61
44 46 48 47 48 49 50 53 54 58 63 61 56 55 56 55 55 52 51 54 60 61 61 60 60 60 61 61 61 59 56 56 56 60 62 64 64 64 63 63 62 62 61
42 45 46 47 49 50 51 52 54 57 61 60 58 57 55 54 54 53 51 52 53 57 61 61 59 59 59 60 60 58 55 54 55 57 60 61 62 63 63 63 62 62 61
41 43 44 45 46 49 50 52 52 54 59 60 57 56 57 55 55 55 54 53 53 56 58 60 60 59 59 59 59 57 56 53 53 55 57 58 60 62 62 62 62 61 61
39 41 42 43 44 46 48 50 53 53 56 60 58 56 56 57 57 56 55 54 52 53 55 54 59 59 59 59 58 55 59 52 51 52 53 55 57 59 60 60 60 59 60
37 39 40 41 42 44 47 50 53 53 54 59 59 58 57 57 58 57 57 56 53 51 53 55 56 58 59 59 58 59 59 55 50 50 50 53 55 57 58 58 58 58 58
36 37 37 39 41 42 45 47 50 54 54 58 59 58 58 58 57 57 58 58 56 53 51 55 56 57 58 58 57 59 58 55 50 49 49 50 52 55 55 56 56 55 56
34 34 35 37 38 38 41 42 44 54 54 55 58 58 57 58 58 59 58 58 57 56 53 53 55 55 58 58 58 58 58 58 55 49 48 49 50 51 52 52 52 53 53
32 32 33 34 35 36 38 38 40 43 54 55 57 57 56 56 56 57 58 57 57 57 56 54 54 55 57 58 57 58 58 59 58 50 48 48 49 49 49 49 50 50 50
31 31 32 32 33 35 35 36 37 40 45 56 56 57 56 57 57 58 58 58 57 57 56 55 54 56 56 57 58 58 57 58 57 52 47 46 47 48 48 48 49 49 49
29 29 30 31 32 33 33 34 35 41 46 51 56 58 58 57 56 57 57 57 57 56 56 56 55 55 55 56 57 54 50 49 49 48 47 47 47 47 47 48 48 49 48
28 28 29 30 31 31 31 33 34 36 38 39 40 45 51 50 51 53 57 56 55 55 55 55 55 55 55 54 54 54 53 45 43 45 45 42 45 47 48 46 49 48 47
26 27 27 28 29 31 33 32 33 33 33 34 35 35 38 38 43 44 45 46 51 53 52 53 53 54 54 55 55 52 44 44 45 41 42 38 38 39 39 42 47 46 46
26 25 25 26 28 31 33 33 31 31 31 31 32 33 33 34 35 40 38 37 37 38 43 54 54 54 54 55 54 50 47 46 46 40 39 34 34 34 35 38 41 43 45
23 23 24 25 26 29 33 33 31 30 29 29 30 31 32 32 33 36 36 34 32 33 33 37 48 37 38 41 52 52 51 41 35 34 36 34 32 31 33 34 39 41 43
21 22 23 24 25 27 32 32 30 29 28 28 29 30 30 31 33 34 32 33 32 30 32 34 34 34 34 35 40 45 39 40 33 33 33 32 31 29 30 31 33 38 39
20 22 23 24 24 24 28 30 29 28 27 27 28 28 31 31 31 31 28 28 29 27 28 28 31 30 31 32 34 34 41 43 33 32 33 31 30 30 27 29 31 32 33

GFSMA_sfc_dewp_120.txt.gz
Dewpoint
68 68 68 68 68 68 68 67 68 68 68 68 67 66 66 66 66 66 65 64 64 66 69 70 70 69 71 70 68 67 67 67 68 67 66 66 65 66 66 65 65 65 64
68 68 68 68 68 68 68 67 67 67 66 67 67 66 66 66 65 65 65 65 63 64 67 70 70 70 70 70 69 68 67 67 66 66 66 66 65 66 65 65 65 64 64
62 65 67 67 68 68 67 68 67 67 67 66 66 66 66 66 65 65 65 65 65 62 63 66 68 69 69 69 69 68 67 66 66 65 66 66 66 65 65 65 65 64 64
60 61 61 63 67 68 68 67 67 66 66 66 66 66 66 66 66 65 65 65 64 64 63 63 65 66 68 68 69 69 68 67 66 66 66 66 66 66 65 64 64 64 64
55 56 59 61 62 65 66 66 66 66 66 66 66 66 65 65 65 65 65 64 64 64 63 62 62 63 65 67 68 69 68 68 66 66 65 66 66 66 65 64 64 63 63
50 51 53 54 56 60 64 65 64 65 64 65 65 64 65 65 65 64 64 64 63 63 62 62 62 63 61 64 66 68 68 68 67 66 66 66 66 66 64 64 63 63 63
48 48 49 50 53 54 55 59 64 62 61 63 62 61 62 63 64 64 64 63 62 62 62 62 62 61 61 61 64 67 68 68 68 67 66 65 64 65 64 64 63 63 63
46 46 47 48 50 51 52 53 58 63 62 63 61 58 54 56 60 63 64 63 62 63 62 62 62 61 61 62 62 64 66 67 67 66 65 64 64 65 64 64 63 63 62
45 46 47 48 48 49 50 52 54 56 61 62 63 59 55 55 57 60 60 63 63 62 62 62 62 62 62 61 61 62 61 62 65 66 65 65 64 64 65 64 63 62 62
43 45 47 48 49 50 50 50 53 53 57 60 60 62 58 57 55 54 58 61 62 61 61 62 62 62 62 61 61 59 58 58 60 64 65 65 65 64 65 64 63 62 62
42 43 46 46 47 48 50 50 51 51 53 55 59 57 57 56 55 54 53 55 60 60 60 61 62 62 62 62 62 60 57 55 57 60 63 64 64 65 65 64 63 62 62
40 42 42 44 44 46 47 49 52 52 52 53 56 59 57 56 54 53 51 52 54 58 59 59 61 62 62 62 61 58 56 54 54 57 60 62 63 64 64 64 64 63 62
38 39 40 41 42 44 45 47 48 50 52 53 53 57 59 58 56 55 54 52 51 53 57 60 61 61 61 61 61 57 55 53 53 55 56 58 60 61 62 63 63 63 62
35 37 38 39 41 42 43 45 47 49 52 53 53 54 59 59 58 56 54 53 51 52 55 56 61 61 61 60 59 54 59 52 52 52 53 55 56 58 59 60 61 61 61
34 35 36 37 39 40 41 43 45 47 49 53 54 54 58 58 59 58 57 55 53 51 51 54 55 59 60 60 58 59 59 54 51 51 51 52 54 56 56 58 59 60 60
33 34 34 35 36 37 38 40 41 43 45 48 54 55 56 58 58 58 58 58 57 54 51 54 56 58 59 59 57 59 59 54 50 50 49 50 51 53 55 55 57 58 58
32 32 33 34 34 35 36 37 38 39 40 43 53 55 56 57 58 58 58 58 57 56 54 54 56 57 58 58 58 58 58 58 57 49 48 48 48 49 50 53 53 55 56
31 31 32 32 33 33 34 34 35 37 39 41 45 53 55 57 57 57 57 57 57 57 56 53 54 55 57 57 58 57 57 58 58 50 48 47 48 48 48 49 51 51 52
29 30 30 31 32 33 32 33 35 36 37 40 43 47 55 56 56 56 56 56 57 57 56 54 54 55 56 57 57 57 57 57 57 52 47 47 47 48 48 48 49 50 50
27 27 29 30 32 32 32 32 33 33 34 35 38 39 41 40 42 52 56 57 57 57 56 56 55 54 55 56 57 55 54 54 53 51 49 48 47 47 47 48 47 48 49
26 26 27 28 31 31 32 31 30 31 31 32 32 34 36 37 37 38 46 56 57 57 56 55 54 54 54 54 54 55 54 49 46 47 47 46 48 49 48 46 48 48 48
24 25 26 26 28 30 33 32 30 29 29 29 29 30 32 34 34 36 38 40 43 56 55 55 54 54 54 54 55 55 48 46 47 44 45 40 41 43 41 44 43 45 45
23 24 25 25 26 28 31 30 30 29 28 28 28 29 29 30 31 34 36 35 34 34 35 44 54 54 54 55 55 54 50 52 51 43 44 39 35 36 36 39 40 41 43
21 23 23 23 24 27 29 28 28 28 27 28 28 29 28 29 31 32 34 34 32 32 32 33 33 34 38 54 55 55 53 46 36 36 39 38 33 33 33 34 38 40 41
19 20 24 23 22 23 26 27 25 25 25 25 26 28 28 28 31 31 29 30 31 30 32 34 33 34 34 35 40 49 43 44 34 34 33 34 32 32 32 32 33 36 38
19 20 20 22 23 22 24 25 25 23 22 23 24 25 27 29 31 30 27 26 25 25 28 31 32 32 32 32 33 34 46 47 34 33 33 34 31 32 33 31 31 33 34

GFSMA_sfc_dewp_123.txt.gz
Dewpoint
70 70 70 70 69 68 68 68 68 68 69 70 70 69 68 68 67 67 68 65 65 67 68 69 70 70 70 70 69 69 68 68 68 67 67 66 67 66 66 66 65 65 64
69 69 69 69 70 69 69 69 67 67 67 68 68 69 69 68 68 68 67 67 64 65 66 68 69 70 70 69 69 68 68 67 68 67 66 66 65 66 65 65 65 65 65
62 65 68 67 69 69 69 69 68 68 67 67 67 67 68 68 68 68 68 67 65 62 63 66 68 69 69 69 69 68 67 67 67 66 66 66 65 66 65 65 65 65 64
59 60 61 62 62 65 69 69 67 67 66 67 66 66 67 68 67 68 68 67 66 65 63 63 64 66 67 68 69 69 68 67 67 66 66 65 65 65 66 65 65 64 64
53 55 57 59 58 61 63 66 68 67 66 66 67 67 67 67 67 67 67 67 68 66 66 64 62 63 64 66 67 68 69 68 67 67 66 65 65 65 65 65 64 64 64
51 52 54 54 55 57 59 64 64 66 66 67 66 66 67 66 67 67 67 67 67 67 67 67 66 65 61 64 66 67 68 69 68 68 67 66 66 65 65 65 64 64 64
50 50 49 51 53 53 55 56 58 62 64 66 64 63 62 64 64 65 66 67 66 66 66 66 66 66 64 62 64 66 68 68 68 68 67 66 65 65 65 65 65 64 64
48 48 50 50 51 51 53 54 55 57 64 64 61 61 58 61 62 63 65 65 65 66 65 65 65 66 65 64 64 64 66 67 68 68 67 66 65 65 65 65 64 64 63
45 48 48 48 48 50 50 50 53 55 56 62 64 61 56 55 57 60 61 63 65 66 64 65 65 65 65 64 64 62 60 62 65 66 66 66 65 65 65 65 64 64 63
44 44 46 47 48 49 50 50 51 52 54 55 60 63 63 61 58 57 61 62 64 63 64 65 65 65 65 65 63 60 57 58 61 64 65 66 65 65 64 65 64 64 63
41 42 43 44 44 46 47 48 50 52 52 52 54 59 62 62 61 57 56 59 61 61 61 63 64 64 64 65 65 62 55 55 57 61 64 65 65 65 64 64 64 64 63
38 39 40 41 42 43 44 46 47 49 51 53 53 54 55 58 57 57 56 56 57 60 61 62 62 63 64 64 63 59 55 54 54 58 60 62 64 64 64 64 64 64 63
35 36 37 39 39 41 42 44 45 47 49 50 52 53 53 55 58 56 56 56 56 56 60 62 62 62 62 63 63 58 56 53 53 55 57 59 61 62 63 63 64 64 64
34 35 36 37 37 39 40 41 43 46 48 50 51 53 53 54 56 59 57 56 56 56 55 57 59 60 61 62 61 55 62 52 52 53 54 55 57 58 59 61 62 62 62
33 34 34 35 36 37 38 39 40 42 44 45 48 49 53 54 57 57 59 57 55 53 54 55 55 60 60 61 60 62 62 57 52 51 51 53 54 56 56 57 58 60 61
32 32 33 34 35 35 36 36 38 39 40 43 44 46 50 54 56 57 59 59 57 55 53 55 55 56 60 59 59 61 61 56 51 50 51 50 52 53 53 55 55 57 58
31 31 32 34 34 34 35 35 36 38 39 41 43 45 47 52 55 57 58 58 57 57 55 56 58 58 59 60 60 60 60 60 59 49 49 49 49 50 50 51 52 54 55
30 30 31 32 32 33 34 34 35 35 36 37 39 40 43 42 49 57 57 57 57 57 56 54 57 59 59 59 60 59 59 59 59 52 49 48 48 48 48 48 49 49 51
28 28 29 31 32 32 32 32 32 32 33 34 34 36 37 37 37 39 42 55 57 56 56 56 56 58 59 59 59 59 58 58 58 54 48 47 47 48 47 47 47 48 49
27 27 28 29 32 31 31 31 31 31 31 31 32 33 33 34 34 35 38 42 47 56 56 57 55 55 55 57 57 57 56 57 57 56 51 50 48 47 47 47 47 47 48
26 25 26 27 30 30 31 31 30 30 29 29 31 30 31 33 33 34 37 38 39 42 56 55 54 55 55 55 55 57 55 56 55 52 53 51 52 52 51 46 49 47 46
24 24 24 24 27 26 29 29 29 29 28 28 28 29 29 30 31 31 34 35 34 34 34 53 55 55 55 55 56 54 54 50 49 49 53 50 47 51 50 52 47 46 45
24 24 24 24 25 26 26 27 27 28 28 28 28 28 28 28 30 30 30 32 33 32 33 33 37 48 48 55 57 54 54 53 52 48 52 49 41 43 41 40 41 41 43
24 24 24 24 25 26 24 24 26 29 29 28 27 29 29 30 30 29 28 28 29 29 30 32 33 32 33 34 36 53 55 50 40 37 46 43 35 36 35 37 38 40 41
23 23 23 23 24 25 23 23 24 26 27 27 27 27 27 29 28 29 28 26 27 27 30 32 32 34 34 34 34 42 49 46 35 37 35 36 33 33 33 33 34 36 38
21 21 21 21 21 23 21 22 23 23 22 24 24 25 24 25 25 26 26 26 25 26 27 27 28 29 31 30 33 32 33 40 38 34 35 36 33 34 33 33 34 34 37

GFSMA_sfc_dewp_126.txt.gz
Dewpoint
71 70 70 70 70 70 68 68 70 68 69 68 68 67 67 66 65 62 62 65 66 68 69 69 70 70 70 69 68 69 68 68 68 68 67 66 66 66 66 65 66 65 65
70 70 70 69 70 71 71 69 67 68 69 69 68 68 68 67 66 66 63 64 64 66 68 69 69 69 71 70 68 69 68 67 68 68 67 66 66 65 66 65 65 64 65
65 68 68 68 68 69 70 70 69 70 69 69 68 68 68 68 67 66 66 64 64 63 64 67 68 69 69 70 69 68 68 67 67 67 67 66 65 64 64 65 65 64 64
59 62 64 65 65 66 66 70 68 68 68 68 68 67 68 69 68 68 68 68 64 62 63 64 65 67 68 69 69 69 68 67 67 67 66 66 66 65 65 65 65 64 64
55 56 58 61 63 62 63 64 66 68 68 67 67 67 68 68 69 69 68 68 68 67 64 63 63 63 65 67 68 69 68 67 67 67 66 66 66 65 65 65 65 65 64
53 53 53 55 57 57 59 62 63 65 66 66 66 66 67 68 69 68 67 67 67 68 67 66 65 64 62 64 66 68 69 69 68 68 67 66 66 65 65 65 65 65 64
52 52 51 52 53 53 55 58 58 61 63 66 64 64 65 67 65 65 64 62 64 65 67 67 66 65 63 62 64 66 68 69 69 68 67 67 66 65 64 65 65 64 64
49 48 50 49 50 51 53 55 56 55 57 63 63 62 59 61 63 61 61 61 63 63 65 66 66 66 65 62 64 64 66 68 68 68 67 66 66 65 65 65 65 64 64
46 45 47 47 48 49 50 50 51 53 53 55 62 62 58 57 56 59 59 61 62 63 64 65 66 66 66 64 62 63 61 63 66 67 67 66 66 66 65 65 65 64 64
43 43 44 45 46 47 48 49 50 52 52 52 55 62 62 58 55 53 59 61 62 62 64 63 63 64 63 65 63 59 58 58 61 65 66 66 66 66 65 65 65 65 64
41 41 42 42 43 44 45 46 47 48 50 52 52 53 56 60 61 59 53 57 59 60 61 63 63 63 63 64 64 62 56 55 57 61 64 66 66 66 65 65 65 65 64
38 39 39 40 41 42 43 44 45 46 48 49 51 52 52 53 53 56 56 54 54 57 60 60 62 63 63 63 62 57 55 54 54 58 61 63 64 65 65 65 65 65 65
35 36 37 38 39 40 41 42 43 45 46 48 49 50 52 53 53 54 55 54 52 52 55 59 59 61 61 63 62 58 56 53 53 55 58 60 61 63 64 64 64 64 64
34 35 36 37 38 39 39 40 41 43 45 46 46 47 50 52 53 54 53 55 54 52 53 55 57 59 60 60 60 55 61 52 52 53 54 56 58 59 60 61 62 62 63
33 34 35 35 36 37 37 38 39 40 41 43 45 45 46 48 51 53 54 55 55 53 52 54 55 58 57 58 58 62 63 56 52 51 52 53 55 57 58 58 59 60 61
32 33 33 34 34 35 35 36 37 39 39 41 42 43 45 46 47 51 54 56 57 56 54 52 53 56 58 54 56 62 62 56 51 50 50 51 53 54 55 56 57 57 58
32 32 32 33 32 33 34 34 34 35 35 36 37 39 41 40 42 43 50 56 57 56 56 55 54 55 59 59 57 61 61 61 59 50 49 49 49 50 52 53 53 54 55
31 30 31 31 32 32 32 32 32 32 32 33 33 35 34 34 36 38 39 43 47 57 56 54 55 56 57 59 60 61 61 60 60 53 49 49 49 48 49 50 50 50 51
30 29 30 30 30 31 31 32 32 32 32 32 32 32 32 33 34 35 37 40 43 45 48 55 55 57 57 58 59 60 60 61 59 55 48 47 47 48 48 48 49 49 49
27 27 28 29 29 29 29 30 31 31 31 31 32 32 32 32 33 33 36 37 37 39 41 46 55 56 56 57 60 59 57 59 58 58 54 51 49 48 47 48 47 48 48
26 25 26 27 27 26 26 29 30 30 30 29 31 30 31 32 32 31 32 34 33 34 36 38 43 50 56 55 55 56 56 57 57 58 57 56 55 54 52 47 50 47 47
25 25 25 26 25 20 25 27 28 29 28 27 27 29 29 30 30 31 31 30 31 31 31 33 35 35 37 37 50 55 55 55 53 53 56 55 55 55 55 55 49 47 46
25 25 25 25 25 24 24 25 26 28 27 27 28 27 26 27 29 30 31 31 29 29 30 31 31 31 32 33 33 36 51 55 55 56 55 53 47 53 51 45 44 45 44
26 26 25 25 25 25 22 23 24 29 30 28 28 28 28 28 28 28 28 29 32 30 30 30 30 31 31 32 32 34 36 41 50 46 54 48 36 41 40 41 41 42 43
26 25 24 23 23 24 21 20 24 29 30 27 28 27 25 26 24 25 26 28 29 30 30 30 32 30 30 31 31 32 32 35 41 38 37 41 34 34 34 34 36 38 40
25 25 24 23 21 22 20 19 23 23 24 24 24 25 20 21 21 22 25 25 24 27 29 30 32 31 30 30 31 30 30 31 34 35 35 37 34 35 34 33 34 35 38

GFSMA_sfc_dewp_129.txt.gz
Dewpoint
72 72 71 71 71 71 71 69 69 68 69 69 68 67 67 66 65 62 60 65 66 68 69 69 70 70 71 70 69 69 69 68 68 68 67 66 66 67 67 67 66 66 66
70 71 70 70 70 70 69 70 70 69 69 69 69 69 68 67 68 66 61 64 64 66 68 70 71 71 71 71 69 69 69 68 67 68 67 66 66 66 66 66 66 65 66
61 62 65 69 69 70 69 70 70 70 69 68 67 68 69 69 68 68 67 62 65 64 65 67 69 70 70 71 70 69 68 68 67 67 67 67 66 65 65 65 65 65 65
58 59 61 63 65 65 66 67 69 67 68 69 69 68 68 69 69 69 69 67 65 64 64 64 66 67 69 69 70 69 69 68 67 67 67 67 66 65 65 64 65 65 65
55 56 57 60 62 61 64 64 65 66 67 66 66 68 68 67 69 69 68 68 69 67 68 64 63 64 66 67 68 69 69 69 68 68 67 66 66 65 65 64 65 65 65
53 53 53 55 55 55 56 59 62 63 64 64 65 66 66 68 69 69 68 68 67 66 67 67 66 64 62 65 66 68 70 69 69 68 67 67 66 65 65 64 65 65 65
51 51 50 51 52 51 53 55 56 57 56 62 64 65 64 65 67 65 64 64 64 63 65 67 67 68 65 62 64 67 69 69 69 68 67 67 66 65 65 64 64 65 65
48 46 47 47 48 49 50 52 52 52 53 55 60 60 58 62 64 64 63 63 62 58 61 62 64 66 67 66 65 64 67 68 69 68 67 66 66 65 65 65 65 65 65
46 46 45 45 46 47 47 49 50 50 50 52 54 57 56 54 56 63 63 63 62 61 60 60 62 64 65 66 65 63 61 63 66 67 67 66 66 66 65 65 65 65 65
44 44 44 44 44 44 45 46 47 48 49 49 51 51 56 57 55 55 61 62 62 61 61 60 59 61 63 64 64 61 58 58 61 65 67 67 66 66 65 65 65 65 65
42 42 42 42 42 42 43 44 45 45 47 47 48 50 52 51 54 56 54 56 61 61 61 62 63 63 64 65 65 64 56 56 57 62 65 66 66 66 65 65 65 65 65
39 40 39 40 40 41 41 42 43 44 45 47 47 48 49 50 50 50 53 55 55 56 59 61 64 64 64 64 62 58 56 54 55 58 62 64 65 65 65 65 65 65 65
36 37 38 38 38 39 39 40 41 42 44 45 47 47 47 49 50 50 51 51 52 55 56 59 61 62 62 64 63 57 56 52 53 55 58 60 62 63 64 64 65 65 65
35 36 37 37 37 37 38 38 39 41 42 43 44 45 46 46 47 49 50 51 50 52 53 56 56 57 57 61 62 56 61 52 52 53 54 56 58 60 61 62 63 63 63
33 34 35 35 35 36 37 37 38 38 38 39 40 42 43 45 46 46 48 49 50 48 50 53 54 57 59 58 58 62 64 55 51 51 51 53 55 57 58 59 60 61 62
33 33 33 34 34 35 35 35 35 35 35 36 36 38 39 37 39 41 42 44 47 51 49 53 54 55 59 56 56 59 60 55 51 50 50 50 52 54 55 57 57 58 59
32 32 32 33 33 33 34 34 33 33 33 33 34 34 33 34 36 37 38 40 42 46 50 53 56 56 56 58 58 59 59 60 60 49 49 49 49 50 51 52 54 56 56
32 31 32 32 32 31 32 33 33 32 32 32 32 32 32 32 33 34 35 38 40 42 44 44 52 56 55 58 58 59 58 58 61 55 49 49 49 48 49 50 50 51 53
29 29 29 29 29 29 30 32 32 32 32 32 32 32 31 31 32 32 34 35 36 36 40 42 45 50 55 58 58 59 59 60 60 56 48 47 47 47 47 48 49 50 50
26 26 28 27 27 26 27 30 30 30 30 30 32 31 31 31 31 32 31 32 32 33 35 36 41 44 45 45 50 56 56 59 59 59 56 53 50 48 47 47 47 48 49
26 25 26 25 24 22 23 27 28 28 28 28 29 28 29 30 30 32 31 31 30 30 31 32 34 34 35 34 36 36 38 41 56 60 60 58 56 54 52 47 49 48 48
24 25 25 24 22 17 24 26 27 26 26 25 24 25 26 28 28 31 31 31 31 30 28 29 30 29 30 31 32 33 35 36 42 56 58 56 57 56 56 54 49 47 46
24 25 24 24 22 20 22 25 27 27 26 25 25 24 22 22 26 27 29 29 30 29 30 30 28 28 28 29 31 30 32 33 35 39 44 54 56 53 56 55 48 45 45
27 26 24 24 24 22 21 22 26 28 29 27 26 23 23 24 24 24 24 25 29 30 30 31 31 31 31 31 31 30 32 31 35 39 43 46 38 47 42 46 43 45 45
27 26 26 23 22 23 20 20 23 29 29 28 26 23 21 22 20 22 22 24 24 27 28 28 28 29 29 30 32 31 28 28 28 35 33 32 35 36 34 35 37 41 41
27 27 26 25 22 23 20 19 21 22 23 23 24 24 18 19 18 19 22 22 20 24 26 27 29 29 29 29 29 31 31 28 28 29 32 27 34 34 36 33 34 35 37

GFSMA_sfc_dewp_132.txt.gz
Dewpoint
69 70 70 70 69 69 69 68 68 68 68 68 67 67 66 68 65 62 63 65 66 69 70 71 71 71 71 70 69 69 69 69 68 68 67 67 66 67 67 67 66 66 66
62 63 65 69 68 68 68 68 67 67 67 67 67 67 67 67 68 66 64 65 64 67 68 70 71 71 71 71 69 69 69 68 68 68 67 67 66 66 66 66 66 66 66
59 60 62 63 65 66 65 65 66 67 66 66 66 67 68 67 67 68 68 67 65 64 65 68 69 70 70 70 70 69 68 68 68 68 67 67 66 66 65 66 66 66 66
56 56 58 62 64 63 64 64 64 64 64 65 66 66 66 66 68 67 68 66 67 65 64 64 66 68 69 70 71 70 69 68 68 67 67 67 66 66 65 65 65 65 65
53 53 55 57 57 58 61 62 62 63 63 64 64 64 63 65 61 63 66 67 67 67 67 64 63 63 66 67 69 71 70 69 68 68 67 67 66 66 65 65 65 65 65
50 50 50 51 51 52 53 54 54 56 58 59 61 63 63 64 63 65 64 66 67 64 63 65 65 64 62 65 67 68 70 70 69 68 68 67 67 66 65 65 64 64 65
48 47 47 48 48 49 50 50 51 51 52 53 55 57 61 63 64 65 65 65 63 63 62 61 62 65 65 62 64 66 68 70 70 69 68 67 66 66 65 65 64 64 64
47 44 45 45 44 46 46 47 48 47 49 51 51 53 54 56 62 64 64 63 61 61 61 59 60 60 63 66 64 64 66 68 69 68 68 67 66 66 65 65 65 64 64
45 44 44 43 43 44 44 45 45 45 44 46 49 51 51 50 52 55 61 64 62 62 61 60 60 61 62 65 65 63 61 62 66 68 68 66 66 66 66 65 65 64 64
43 43 42 42 41 42 42 42 43 43 46 44 46 48 49 50 50 49 54 57 63 62 62 61 59 59 60 61 62 62 59 58 61 65 67 67 66 66 66 65 65 65 65
41 40 40 40 40 40 40 42 42 43 44 45 45 46 47 48 48 49 49 51 54 58 61 62 61 60 59 60 61 60 56 56 57 61 64 66 66 66 66 66 65 65 65
37 38 37 38 39 39 39 38 40 40 42 44 45 46 46 47 47 48 47 47 48 50 52 56 61 62 62 61 60 57 56 54 56 58 61 64 65 66 65 65 65 65 65
34 35 36 37 37 37 38 37 38 40 41 41 42 42 44 44 46 46 46 46 48 48 50 52 55 59 64 64 63 58 57 53 54 56 58 60 62 63 64 64 65 65 65
34 34 36 36 36 37 37 38 39 38 37 39 39 38 39 42 42 44 44 45 44 45 48 49 51 53 59 62 63 56 61 52 51 53 55 57 59 60 61 61 62 63 64
32 34 35 35 36 36 36 36 36 35 35 35 36 36 36 36 37 38 40 41 43 41 44 46 49 51 53 55 56 60 62 57 52 51 52 54 56 58 58 59 60 61 62
33 33 33 34 34 34 35 35 34 34 34 34 34 34 34 34 35 37 37 39 40 41 40 45 49 51 54 55 55 57 59 55 52 49 50 51 52 54 55 56 57 58 59
32 33 33 32 32 32 33 35 34 34 33 33 34 33 32 33 34 34 35 38 38 39 39 41 43 47 50 54 56 58 59 60 59 50 48 49 50 51 52 52 53 55 56
32 31 31 29 29 29 31 33 33 33 33 33 34 32 31 32 33 33 34 34 34 35 36 37 40 43 46 48 43 47 56 57 59 53 49 48 49 49 49 49 50 50 51
28 30 28 27 25 27 28 30 31 31 31 31 31 30 29 30 31 32 32 31 32 33 35 35 37 38 39 37 38 41 40 42 43 44 48 48 48 48 49 49 49 49 49
26 26 26 24 23 23 26 28 29 28 28 27 29 29 27 27 29 32 30 30 30 30 31 32 33 34 34 34 35 34 33 36 37 41 46 51 48 48 48 47 47 48 49
25 26 25 23 21 20 23 27 27 25 24 23 24 24 24 25 27 29 30 31 29 28 29 29 29 29 29 29 29 31 32 33 35 44 39 42 50 53 51 46 48 47 47
24 24 25 22 20 17 25 27 27 25 24 22 20 21 20 22 23 25 26 28 29 28 27 28 28 27 28 28 29 30 30 30 31 38 35 37 41 43 56 55 49 46 45
24 24 23 24 21 20 23 26 27 26 25 24 20 19 18 18 21 21 23 24 25 26 28 30 27 27 27 29 30 29 29 29 29 32 33 36 42 41 47 53 48 46 45
25 25 23 22 22 20 21 23 25 26 26 23 22 18 18 18 19 19 19 20 21 23 25 27 28 28 29 30 30 29 29 29 30 34 30 28 32 35 37 40 45 46 45
26 24 24 23 20 20 20 20 21 23 22 21 21 19 18 18 20 21 17 17 16 19 24 25 25 25 25 26 27 27 26 26 25 27 30 27 30 31 34 35 37 39 40
26 26 24 22 21 19 20 19 19 19 19 19 18 18 19 18 19 19 16 16 14 16 19 19 21 21 22 23 25 25 26 25 25 23 27 27 26 28 28 34 35 36 37